[[{"header":{"parameterUnit":"m.s-1","parameterCategory":1,"la1":30.6,"la2":29.2853,"lo1":-89.7004,"lo2":-87.6739,"dy":0.0162,"dx":0.0183,"nx":112,"ny":82,"refTime":"2024-05-27T12:00:00:Z","depth":0,"parameterNumber":2,"parameterNumberName":"U-component_of_WINDS"},"data":[0.0,0.0,0.0,0.0,0.0,0.0,0.0,0.0,0.0,0.0,0.0,0.0,0.0,0.0,0.0,0.0,0.0,0.0,0.0,0.0,0.0,0.0,0.0,0.0,0.0,0.0,0.0,0.0,0.0,0.0,0.0,0.0,0.0,0.0,0.0,0.0,0.0,0.0,0.0,0.0,0.0,0.0,0.0,0.0,0.0,0.0,0.0,0.0,0.0,0.0,0.0,0.0,0.0,0.0,0.0,0.0,0.0,0.0,0.0,0.0,0.0,0.0,0.0,0.0,0.0,0.0,0.0,0.0,0.0,0.0,0.0,0.0,0.0,0.0,0.0,0.0,0.0,0.0,0.0,0.0,0.0,0.0,0.0,0.0,0.0,0.0,0.0,0.0,0.0,0.0,-1.536,-1.6568,-1.968,-2.1397,-2.0628,-2.1614,-2.0977,-1.7879,0.0,0.0,0.0,0.0,0.0,0.0,0.0,0.0,0.0,0.0,0.0,0.0,0.0,0.0,0.0,0.0,0.0,0.0,0.0,0.0,0.0,0.0,0.0,0.0,0.0,0.0,0.0,0.0,0.0,0.0,0.0,0.0,0.0,0.0,0.0,0.0,0.0,0.0,0.0,0.0,0.0,0.0,0.0,0.0,0.0,0.0,0.0,0.0,0.0,0.0,0.0,0.0,0.0,0.0,0.0,0.0,0.0,0.0,0.0,0.0,0.0,0.0,0.0,0.0,0.0,0.0,0.0,0.0,0.0,0.0,0.0,0.0,0.0,0.0,0.0,0.0,0.0,0.0,0.0,0.0,0.0,0.0,0.0,0.0,0.0,0.0,0.0,0.0,0.0,0.0,0.0,0.0,0.0,0.0,0.0,0.0,0.0,0.0,0.0,0.0,0.0,0.0,0.0,0.0,-1.5703,-1.7691,-2.0207,-2.1213,-2.0039,-2.1376,-2.0977,-1.7879,0.0,0.0,0.0,0.0,0.0,0.0,0.0,0.0,0.0,0.0,0.0,0.0,0.0,0.0,0.0,0.0,0.0,0.0,0.0,0.0,0.0,0.0,0.0,0.0,0.0,0.0,0.0,0.0,0.0,0.0,0.0,0.0,0.0,0.0,0.0,0.0,0.0,0.0,0.0,0.0,0.0,0.0,0.0,0.0,0.0,0.0,0.0,0.0,0.0,0.0,0.0,0.0,0.0,0.0,0.0,0.0,0.0,0.0,0.0,0.0,0.0,0.0,0.0,0.0,0.0,0.0,0.0,0.0,0.0,0.0,0.0,0.0,0.0,0.0,0.0,0.0,0.0,0.0,0.0,0.0,0.0,0.0,0.0,0.0,0.0,0.0,0.0,0.0,0.0,0.0,0.0,0.0,0.0,0.0,0.0,0.0,0.0,0.0,0.0,0.0,0.0,0.0,0.0,-1.5127,-1.6492,-1.8493,-2.0482,-2.1319,-2.0372,-2.1535,-2.0977,-1.7879,-1.6834,0.0,0.0,0.0,0.0,0.0,0.0,0.0,0.0,0.0,0.0,0.0,0.0,0.0,0.0,0.0,0.0,0.0,0.0,0.0,0.0,0.0,0.0,0.0,0.0,0.0,0.0,0.0,0.0,0.0,0.0,0.0,0.0,0.0,0.0,0.0,0.0,0.0,0.0,0.0,0.0,0.0,0.0,0.0,0.0,0.0,0.0,0.0,0.0,0.0,0.0,0.0,0.0,0.0,0.0,0.0,0.0,0.0,0.0,0.0,0.0,0.0,0.0,0.0,0.0,0.0,0.0,0.0,0.0,0.0,0.0,0.0,0.0,0.0,0.0,0.0,0.0,0.0,0.0,0.0,0.0,0.0,0.0,0.0,0.0,0.0,0.0,0.0,0.0,0.0,0.0,0.0,0.0,0.0,0.0,0.0,0.0,0.0,0.0,0.0,0.0,0.0,0.0,-1.6259,-1.7409,-1.8929,-2.0656,-2.1443,-2.0754,-2.1455,-2.0716,-1.7879,-1.6338,0.0,0.0,0.0,0.0,0.0,0.0,0.0,0.0,0.0,0.0,0.0,0.0,0.0,0.0,0.0,0.0,0.0,0.0,0.0,0.0,0.0,0.0,0.0,0.0,0.0,0.0,0.0,0.0,0.0,0.0,0.0,0.0,0.0,0.0,0.0,0.0,0.0,0.0,0.0,0.0,0.0,0.0,0.0,0.0,0.0,0.0,0.0,0.0,0.0,0.0,0.0,0.0,0.0,0.0,0.0,0.0,0.0,0.0,0.0,0.0,0.0,0.0,0.0,0.0,0.0,0.0,0.0,0.0,0.0,0.0,0.0,0.0,0.0,0.0,0.0,0.0,0.0,0.0,0.0,0.0,0.0,0.0,0.0,0.0,0.0,0.0,0.0,0.0,0.0,0.0,0.0,0.0,0.0,0.0,0.0,0.0,0.0,0.0,0.0,0.0,0.0,0.0,-1.6759,-1.8363,-1.9027,-2.0656,-2.1443,-2.0754,-2.0769,-1.9899,-1.7817,-1.5625,0.0,0.0,0.0,0.0,0.0,0.0,0.0,0.0,0.0,0.0,0.0,0.0,0.0,0.0,0.0,0.0,0.0,0.0,0.0,0.0,0.0,0.0,0.0,0.0,0.0,0.0,0.0,0.0,0.0,0.0,0.0,0.0,0.0,0.0,0.0,0.0,0.0,0.0,0.0,0.0,0.0,0.0,0.0,0.0,0.0,0.0,0.0,0.0,0.0,0.0,0.0,0.0,0.0,0.0,0.0,0.0,0.0,0.0,0.0,0.0,0.0,0.0,0.0,0.0,0.0,0.0,0.0,0.0,0.0,0.0,0.0,0.0,0.0,0.0,0.0,0.0,0.0,0.0,0.0,0.0,0.0,0.0,0.0,0.0,0.0,0.0,0.0,0.0,0.0,0.0,0.0,0.0,0.0,0.0,0.0,0.0,0.0,0.0,0.0,0.0,0.0,0.0,-1.6541,-1.8066,-1.9001,-2.0307,-2.1008,-2.074,-2.07,-1.9739,-1.7485,0.0,0.0,0.0,0.0,0.0,0.0,0.0,0.0,0.0,0.0,0.0,0.0,0.0,0.0,0.0,0.0,0.0,0.0,0.0,0.0,0.0,0.0,0.0,0.0,0.0,0.0,0.0,0.0,0.0,0.0,0.0,0.0,0.0,0.0,0.0,0.0,0.0,0.0,0.0,0.0,0.0,0.0,0.0,0.0,0.0,0.0,0.0,0.0,0.0,0.0,0.0,0.0,0.0,0.0,0.0,0.0,0.0,0.0,0.0,0.0,0.0,0.0,0.0,0.0,0.0,0.0,0.0,0.0,0.0,0.0,0.0,0.0,0.0,0.0,0.0,0.0,0.0,0.0,0.0,0.0,0.0,0.0,0.0,0.0,0.0,0.0,0.0,0.0,0.0,0.0,0.0,0.0,0.0,0.0,0.0,0.0,0.0,0.0,0.0,0.0,0.0,0.0,-1.4714,-1.6497,-1.804,-1.8988,-1.9972,-2.0536,-2.0472,-2.0103,-1.8949,-1.6713,0.0,0.0,0.0,0.0,0.0,0.0,0.0,0.0,0.0,0.0,0.0,0.0,0.0,0.0,0.0,0.0,0.0,0.0,0.0,0.0,0.0,0.0,0.0,0.0,0.0,0.0,0.0,0.0,0.0,0.0,0.0,0.0,0.0,0.0,0.0,0.0,0.0,0.0,0.0,0.0,0.0,0.0,0.0,0.0,0.0,0.0,0.0,0.0,0.0,0.0,0.0,0.0,0.0,0.0,0.0,0.0,0.0,0.0,0.0,0.0,0.0,0.0,0.0,0.0,0.0,0.0,0.0,0.0,0.0,0.0,0.0,0.0,0.0,0.0,0.0,0.0,0.0,0.0,0.0,0.0,0.0,0.0,0.0,0.0,0.0,0.0,0.0,0.0,0.0,0.0,0.0,0.0,0.0,0.0,0.0,0.0,0.0,0.0,0.0,0.0,0.0,0.0,-1.4726,-1.6823,-1.8414,-1.9027,-1.9615,-1.9967,-1.9899,-1.8796,-1.7384,0.0,0.0,0.0,0.0,0.0,0.0,0.0,0.0,0.0,0.0,0.0,0.0,0.0,0.0,0.0,0.0,0.0,0.0,0.0,0.0,0.0,0.0,0.0,0.0,0.0,0.0,0.0,0.0,0.0,0.0,0.0,0.0,0.0,0.0,0.0,0.0,0.0,0.0,0.0,0.0,0.0,0.0,0.0,0.0,0.0,0.0,0.0,0.0,0.0,0.0,0.0,0.0,0.0,0.0,0.0,0.0,0.0,0.0,0.0,0.0,0.0,0.0,0.0,0.0,0.0,0.0,0.0,0.0,0.0,0.0,0.0,0.0,0.0,0.0,0.0,0.0,0.0,0.0,0.0,0.0,0.0,0.0,0.0,0.0,0.0,0.0,0.0,0.0,0.0,0.0,0.0,0.0,0.0,0.0,0.0,0.0,0.0,0.0,0.0,0.0,0.0,0.0,0.0,-1.4726,-1.6823,-1.8134,-1.7913,-1.8729,-1.9132,-1.8759,-1.8401,-1.7437,-1.5766,0.0,0.0,0.0,0.0,0.0,0.0,0.0,0.0,0.0,0.0,0.0,0.0,0.0,0.0,0.0,0.0,0.0,0.0,0.0,0.0,0.0,0.0,0.0,0.0,0.0,0.0,0.0,0.0,0.0,0.0,0.0,0.0,0.0,0.0,0.0,0.0,0.0,0.0,0.0,0.0,0.0,0.0,0.0,0.0,0.0,0.0,0.0,0.0,0.0,0.0,0.0,0.0,0.0,0.0,0.0,0.0,0.0,0.0,0.0,0.0,0.0,0.0,0.0,0.0,0.0,0.0,0.0,0.0,0.0,0.0,0.0,0.0,0.0,0.0,0.0,0.0,0.0,0.0,0.0,0.0,0.0,0.0,0.0,0.0,0.0,0.0,0.0,0.0,0.0,0.0,0.0,0.0,0.0,0.0,0.0,0.0,0.0,0.0,0.0,0.0,0.0,0.0,-1.4726,-1.6635,-1.7752,-1.7413,-1.7978,-1.8232,-1.7906,-1.7666,-1.684,-1.5188,0.0,0.0,0.0,0.0,0.0,0.0,0.0,0.0,0.0,0.0,0.0,0.0,0.0,0.0,0.0,0.0,0.0,0.0,0.0,0.0,0.0,0.0,0.0,0.0,0.0,0.0,0.0,0.0,0.0,0.0,0.0,0.0,0.0,0.0,0.0,0.0,0.0,0.0,0.0,0.0,0.0,0.0,0.0,0.0,0.0,0.0,0.0,0.0,0.0,0.0,0.0,0.0,0.0,0.0,0.0,0.0,0.0,0.0,0.0,0.0,0.0,0.0,0.0,0.0,0.0,0.0,0.0,0.0,0.0,0.0,0.0,0.0,0.0,0.0,0.0,0.0,0.0,0.0,0.0,0.0,0.0,0.0,0.0,0.0,0.0,0.0,0.0,0.0,0.0,0.0,0.0,0.0,0.0,0.0,0.0,0.0,0.0,0.0,0.0,0.0,0.0,0.0,-1.4726,-1.6346,-1.7363,-1.73,-1.735,-1.7363,-1.73,-1.6823,-1.5856,-1.4337,0.0,0.0,0.0,0.0,0.0,0.0,0.0,0.0,0.0,0.0,0.0,0.0,0.0,0.0,0.0,0.0,0.0,0.0,0.0,0.0,0.0,0.0,0.0,0.0,0.0,0.0,0.0,0.0,0.0,0.0,0.0,0.0,0.0,0.0,0.0,0.0,0.0,0.0,0.0,0.0,0.0,0.0,0.0,0.0,0.0,0.0,0.0,0.0,0.0,0.0,0.0,0.0,0.0,0.0,0.0,0.0,0.0,0.0,0.0,0.0,-1.9103,0.0,0.0,0.0,0.0,0.0,0.0,0.0,0.0,0.0,0.0,0.0,0.0,0.0,0.0,0.0,0.0,0.0,0.0,0.0,0.0,0.0,0.0,0.0,0.0,0.0,0.0,0.0,0.0,0.0,0.0,0.0,0.0,0.0,0.0,0.0,0.0,0.0,0.0,0.0,0.0,0.0,-1.4726,-1.6346,-1.7212,-1.6748,-1.7112,-1.72,-1.6735,-1.6584,-1.6183,-1.5392,-1.4462,0.0,0.0,0.0,0.0,0.0,0.0,0.0,0.0,0.0,0.0,0.0,0.0,0.0,0.0,0.0,0.0,0.0,0.0,0.0,0.0,0.0,0.0,0.0,0.0,0.0,0.0,0.0,0.0,0.0,0.0,0.0,0.0,0.0,0.0,0.0,0.0,0.0,0.0,0.0,0.0,0.0,0.0,0.0,0.0,0.0,0.0,0.0,0.0,0.0,0.0,0.0,0.0,0.0,0.0,0.0,0.0,0.0,0.0,0.0,0.0,-2.0079,0.0,0.0,0.0,0.0,0.0,0.0,0.0,0.0,0.0,0.0,0.0,0.0,0.0,0.0,0.0,0.0,0.0,0.0,0.0,0.0,0.0,0.0,0.0,0.0,0.0,0.0,0.0,0.0,0.0,0.0,0.0,0.0,0.0,0.0,0.0,0.0,0.0,0.0,0.0,0.0,-1.509,-1.6258,-1.6861,-1.6547,-1.6785,-1.6848,-1.6547,-1.6522,-1.6283,-1.5731,-1.4941,0.0,0.0,0.0,0.0,0.0,0.0,0.0,0.0,0.0,0.0,0.0,0.0,0.0,0.0,0.0,0.0,0.0,0.0,0.0,0.0,0.0,0.0,0.0,0.0,0.0,0.0,0.0,0.0,0.0,0.0,0.0,0.0,0.0,0.0,0.0,0.0,0.0,0.0,0.0,0.0,0.0,0.0,0.0,0.0,0.0,0.0,0.0,0.0,0.0,0.0,0.0,0.0,0.0,-2.4025,-2.4344,-2.4678,-2.4689,-2.4689,-2.4557,-2.1929,-2.1092,-2.1518,-2.072,0.0,0.0,0.0,0.0,0.0,0.0,0.0,0.0,0.0,0.0,0.0,0.0,0.0,0.0,0.0,0.0,0.0,0.0,0.0,0.0,0.0,0.0,0.0,0.0,-1.6848,-1.6898,0.0,0.0,0.0,0.0,0.0,0.0,0.0,0.0,0.0,0.0,0.0,0.0,-1.5505,-1.6183,-1.6522,-1.6522,-1.6522,-1.6522,-1.6522,-1.6522,-1.6321,-1.5869,-1.5329,-1.44,0.0,0.0,0.0,0.0,0.0,0.0,0.0,0.0,0.0,0.0,0.0,0.0,0.0,0.0,0.0,0.0,0.0,0.0,0.0,0.0,0.0,0.0,0.0,0.0,0.0,0.0,0.0,0.0,0.0,0.0,0.0,0.0,-2.0107,-2.1764,0.0,0.0,0.0,0.0,0.0,0.0,0.0,0.0,0.0,0.0,0.0,0.0,0.0,-2.4131,-2.546,-2.5917,-2.5864,-2.5347,-2.6605,-2.6595,-2.5446,-2.5473,-2.5439,-2.5411,-2.436,0.0,-2.3061,-2.2298,0.0,0.0,0.0,0.0,0.0,0.0,0.0,0.0,0.0,0.0,0.0,0.0,0.0,0.0,0.0,0.0,0.0,0.0,0.0,0.0,0.0,0.0,-1.7363,-1.7777,-1.799,-1.799,0.0,-1.6019,-1.4513,-1.3991,-1.3437,0.0,0.0,0.0,0.0,0.0,0.0,0.0,-1.5605,-1.6183,-1.6522,-1.6522,-1.6522,-1.6522,-1.6522,-1.6522,-1.6484,-1.6409,-1.5894,-1.5492,-1.5266,-1.4374,0.0,0.0,0.0,0.0,0.0,0.0,0.0,0.0,0.0,0.0,0.0,0.0,0.0,0.0,0.0,0.0,0.0,0.0,0.0,0.0,0.0,0.0,0.0,0.0,0.0,0.0,0.0,0.0,0.0,-1.9929,-2.1507,-2.2566,-2.2303,-2.1869,0.0,0.0,0.0,0.0,0.0,0.0,0.0,0.0,0.0,-2.5306,-2.5407,-2.594,-2.7046,-2.7701,-2.7823,-2.7511,-2.8168,-2.8152,-2.7513,-2.7501,-2.7244,-2.6836,-2.6979,-2.6131,-2.4594,-2.3837,-2.2852,-2.1786,0.0,0.0,0.0,0.0,-1.9589,-1.9061,-1.9291,-1.905,0.0,-1.7987,0.0,0.0,0.0,0.0,0.0,0.0,0.0,0.0,0.0,0.0,-1.8367,-1.8606,-1.8894,-1.902,-1.8731,-1.7903,-1.6861,0.0,-1.499,-1.4412,-1.3797,0.0,0.0,0.0,0.0,-1.5178,-1.6045,-1.6371,-1.6522,-1.6522,-1.6522,-1.6522,-1.6522,-1.6522,-1.6522,-1.6522,-1.6283,-1.6019,-1.5706,-1.5229,-1.415,0.0,0.0,0.0,0.0,0.0,0.0,0.0,0.0,0.0,0.0,0.0,0.0,0.0,0.0,0.0,0.0,0.0,0.0,0.0,0.0,0.0,0.0,0.0,0.0,0.0,0.0,0.0,0.0,-2.154,-2.2815,-2.3326,-2.3713,-2.3768,0.0,0.0,0.0,0.0,0.0,0.0,-2.6072,-2.5833,-2.6092,-2.7097,-2.7328,-2.7767,-2.8388,-2.8987,-2.9282,-2.9293,-2.9598,-2.9561,-2.927,-2.9393,-2.8934,-2.8132,-2.8745,-2.7809,-2.5831,-2.5304,-2.4205,-2.2861,-2.288,-2.1927,-2.0582,-2.1002,-2.0671,-2.0073,-2.0512,-2.0461,-2.0094,-1.9435,0.0,-1.709,-1.6823,0.0,0.0,0.0,0.0,-1.7527,-1.7743,-1.8405,-1.9008,-1.9196,-1.9522,-1.9698,-1.9309,-1.912,-1.857,0.0,-1.6622,-1.6082,-1.5293,0.0,0.0,0.0,0.0,-1.5593,-1.6409,-1.6522,-1.6522,-1.6522,-1.6522,-1.6522,-1.6522,-1.6522,-1.6522,-1.6522,-1.6522,-1.6333,-1.5919,-1.5906,-1.5082,-1.3337,0.0,0.0,0.0,0.0,0.0,0.0,0.0,0.0,0.0,0.0,0.0,0.0,0.0,0.0,0.0,0.0,0.0,0.0,0.0,0.0,0.0,0.0,0.0,0.0,0.0,0.0,0.0,0.0,0.0,-2.4407,-2.5595,0.0,0.0,0.0,0.0,-2.6429,-2.7126,-2.7729,-2.8121,-2.8895,-2.899,-2.826,-2.9025,-2.9624,-2.9967,-3.0019,-3.0036,-3.0074,-3.1145,-3.1072,-3.0074,-3.0437,-3.0007,-2.8921,-2.8988,-2.8091,-2.6623,-2.6619,-2.5729,-2.4404,-2.4397,-2.4099,-2.3621,-2.3151,-2.2659,-2.2183,-2.178,-2.1629,-2.1485,-2.0827,-1.9362,-1.7964,-1.8576,-1.7981,0.0,0.0,-1.7632,-1.8254,-1.8807,-1.8933,-1.9145,-1.9648,-1.9786,-1.9798,-1.9773,-1.9371,-1.8795,0.0,-1.8091,-1.8066,-1.8003,0.0,-1.7225,-1.725,-1.6785,-1.6459,-1.6509,-1.6522,-1.6522,-1.6522,-1.6522,-1.6522,-1.6522,-1.6522,-1.6522,-1.6522,-1.6522,-1.6509,-1.6471,-1.6471,-1.5971,-1.4886,-1.3478,0.0,0.0,0.0,0.0,0.0,0.0,0.0,0.0,0.0,0.0,0.0,0.0,0.0,0.0,0.0,0.0,0.0,0.0,0.0,0.0,0.0,0.0,0.0,0.0,0.0,0.0,0.0,0.0,-2.644,-2.708,0.0,-2.7291,-2.7824,-2.8374,-2.8888,-2.9182,-2.9624,-3.0254,-3.0387,-3.0512,-3.0659,-3.0738,-3.1047,-3.1652,-3.1655,-3.164,-3.1647,-3.2071,-3.205,-3.1653,-3.1783,-3.1365,-3.0549,-3.0733,-2.9955,-2.8537,-2.83,-2.7002,-2.5212,-2.5226,-2.466,-2.3835,-2.3317,-2.2805,-2.2322,-2.1862,-2.1695,-2.161,-2.1039,-2.0093,-1.9169,-1.9071,-1.8477,-1.7829,-1.7829,-1.8235,-1.8781,-1.8933,-1.9284,-1.9572,-1.9761,-1.9798,-1.9798,-1.9798,-1.966,-1.9472,-1.9271,-1.8681,-1.8204,-1.8204,-1.8041,-1.7903,-1.7903,-1.7739,-1.7601,-1.7601,-1.7287,-1.7074,-1.7074,-1.6735,-1.6522,-1.6522,-1.6522,-1.6522,-1.6522,-1.6522,-1.6522,-1.6522,-1.6522,-1.6173,-1.5447,-1.4587,-1.2902,0.0,0.0,0.0,0.0,0.0,0.0,0.0,0.0,0.0,0.0,0.0,0.0,0.0,0.0,0.0,0.0,0.0,0.0,0.0,0.0,0.0,0.0,0.0,0.0,0.0,-2.5293,-2.6307,-2.7647,-2.8525,-2.9127,-2.9379,-2.9654,-3.0149,-3.0962,-3.1017,-3.1297,-3.1981,-3.1918,-3.1978,-3.2154,-3.2074,-3.2152,-3.2506,-3.2489,-3.249,-3.2491,-3.2645,-3.266,-3.2502,-3.2666,-3.2249,-3.1411,-3.1688,-3.081,-2.9225,-2.9042,-2.7814,-2.5984,-2.5984,-2.5514,-2.4778,-2.4279,-2.377,-2.3233,-2.2551,-2.2222,-2.201,-2.185,-2.1097,-2.0159,-1.9809,-1.9311,-1.8754,-1.8528,-1.8869,-1.9284,-1.9284,-1.9547,-1.9798,-1.9798,-1.9798,-1.9798,-1.9798,-1.9798,-1.9798,-1.9798,-1.9233,-1.8744,-1.8744,-1.8593,-1.848,-1.848,-1.8329,-1.8204,-1.8204,-1.7714,-1.7388,-1.7388,-1.6861,-1.6522,-1.6522,-1.6522,-1.6522,-1.6522,-1.6522,-1.6522,-1.6522,-1.6522,-1.6346,-1.5982,-1.4909,-1.3123,-1.0575,0.0,0.0,0.0,0.0,0.0,0.0,0.0,0.0,0.0,0.0,0.0,0.0,0.0,0.0,0.0,0.0,0.0,0.0,0.0,0.0,0.0,0.0,0.0,-2.4579,-2.7124,-2.8732,-2.8028,-3.0023,-3.1146,-3.0424,-3.1059,-3.1865,-3.2651,-3.2687,-3.2858,-3.3262,-3.3615,-3.3419,-3.2619,-3.2983,-3.2979,-3.2546,-3.2523,-3.2529,-3.2556,-3.2996,-3.2966,-3.2547,-3.303,-3.2592,-3.1483,-3.171,-3.0631,-2.8649,-2.8893,-2.8126,-2.6775,-2.6708,-2.6691,-2.664,-2.6169,-2.5664,-2.5028,-2.3964,-2.3198,-2.2803,-2.3404,-2.2416,-2.0976,-2.0974,-2.0514,-1.9895,-1.9255,-1.9422,-1.9811,-1.9811,-1.9798,-1.9798,-1.9798,-1.9798,-1.9798,-1.9798,-1.9798,-1.9798,-1.9798,-1.9798,-1.9798,-1.9798,-1.9384,-1.8995,-1.8995,-1.8593,0.0,-1.8254,-1.7777,-1.7438,-1.7438,-1.6898,-1.6547,-1.6547,-1.6522,-1.6522,-1.6522,-1.6522,-1.6522,-1.6522,-1.6522,-1.6479,-1.6466,-1.4464,-1.241,-1.0361,0.0,0.0,0.0,0.0,0.0,0.0,0.0,0.0,0.0,0.0,0.0,0.0,0.0,0.0,0.0,0.0,0.0,0.0,0.0,0.0,0.0,-2.6431,-2.8174,-2.7966,-2.8567,-2.9582,-3.1107,-3.1875,-3.2643,-3.36,-3.3868,-3.4355,-3.5209,-3.4694,-3.4669,-3.542,-3.4403,-3.3954,-3.4302,-3.386,-3.3569,-3.3433,-3.3437,-3.3452,-3.3436,-3.356,-3.3578,-3.3441,-3.3578,-3.3441,-3.3103,-3.2547,-3.1951,-3.1286,-2.9668,-2.8733,-2.8253,-2.7131,-2.6691,-2.664,-2.6169,-2.5431,-2.4522,-2.3842,-2.3492,-2.3389,-2.3565,-2.299,-2.2219,-2.2193,-2.1755,-2.1101,-2.0501,-2.0399,-2.0425,-1.9913,-1.9798,-1.9798,-1.9798,-1.9798,-1.9798,-1.9798,-1.9798,-1.9798,-1.9798,-1.9798,-1.9798,-1.9798,-1.9685,-1.9585,-1.9585,-1.9459,0.0,-1.9359,-1.8894,-1.8581,-1.8581,-1.7727,-1.7149,-1.7149,-1.676,-1.6522,-1.6522,-1.6522,-1.6522,-1.6522,-1.6522,-1.6281,-1.5864,-1.4243,-1.2891,0.0,0.0,0.0,0.0,0.0,0.0,0.0,0.0,0.0,0.0,0.0,0.0,0.0,0.0,0.0,0.0,0.0,0.0,0.0,0.0,0.0,0.0,-2.8216,-2.9887,-3.0723,-3.065,-3.1029,-3.2419,-3.2886,-3.3592,-3.4871,-3.5,-3.5367,-3.6224,-3.5846,-3.5763,-3.627,-3.5368,-3.4899,-3.5,-3.454,-3.4127,-3.3807,-3.3807,-3.3807,-3.3807,-3.3807,-3.3807,-3.3807,-3.3807,-3.3807,-3.3752,-3.2875,-3.2317,-3.1862,-2.985,-2.88,0.0,0.0,0.0,0.0,0.0,-2.526,-2.4646,-2.3874,-2.3595,-2.3595,-2.3595,-2.3374,-2.3051,-2.2774,-2.2429,-2.1994,-2.1323,-2.0972,-2.072,-2.0335,-2.0003,-1.9798,-1.9798,-1.9798,-1.9798,-1.9798,-1.9798,-1.9798,-1.9798,-1.9798,0.0,-1.9798,-1.9798,-1.9798,-1.9798,-1.9798,-1.9798,-1.9798,-1.9346,-1.8983,-1.8983,-1.8242,-1.7639,-1.74,-1.7074,0.0,0.0,0.0,-1.6522,-1.6522,-1.6522,0.0,0.0,0.0,0.0,0.0,0.0,0.0,0.0,-1.1133,-1.1201,0.0,0.0,0.0,0.0,0.0,0.0,0.0,0.0,0.0,0.0,0.0,0.0,0.0,0.0,0.0,0.0,-2.9607,-3.0711,-3.2719,-3.2849,-3.2746,-3.2747,-3.346,-3.4238,-3.5054,-3.5237,-3.5632,-3.6517,-3.6481,-3.6463,-3.6574,0.0,0.0,0.0,0.0,-3.4788,-3.4082,-3.4082,-3.4045,-3.3954,-3.3935,-3.3899,-3.3807,-3.3807,-3.3807,-3.3752,-3.2875,-3.213,-3.138,-2.9683,-2.8485,-2.7623,-2.6962,-2.6691,-2.6573,-2.5581,-2.5185,-2.5035,-2.3993,0.0,0.0,-2.3595,-2.3595,-2.3492,-2.2964,-2.2789,-2.2658,-2.2022,-2.1396,-2.0912,-2.0825,-2.0295,-1.9798,-1.9798,-1.9798,-1.9798,-1.9798,-1.9798,-1.9798,-1.9798,-1.9798,-1.9798,-1.9798,-1.9798,-1.9798,-1.9798,-1.9798,-1.9798,-1.9798,-1.9397,-1.912,-1.912,0.0,0.0,-1.7526,-1.7413,-1.7137,-1.6559,-1.6522,-1.6522,-1.6522,-1.6522,-1.5932,-1.4698,-1.4698,-1.4118,-1.2881,-1.2881,-1.3096,-1.3467,-1.1924,-1.1855,0.0,0.0,0.0,0.0,0.0,0.0,0.0,0.0,0.0,0.0,0.0,0.0,0.0,0.0,0.0,-3.0648,-3.1853,-3.2743,-3.2969,-3.3345,-3.3576,-3.356,-3.4275,-3.5117,-3.5991,-3.6637,-3.7351,-3.8157,-3.7617,-3.7555,-3.8217,-3.7011,-3.6505,-3.6993,-3.6389,-3.5975,-3.5818,-3.5816,-3.5475,-3.4789,0.0,0.0,-3.3807,-3.3807,-3.3807,-3.3752,-3.2875,-3.2429,-3.2128,-2.9907,-2.8193,-2.6911,-2.6775,-2.6691,-2.6573,-2.5582,-2.5187,-2.5035,-2.3993,-2.3595,-2.3595,-2.3595,-2.3595,-2.358,-2.3477,-2.3419,0.0,-2.2688,-2.2044,-2.1394,-2.0947,-2.0295,-1.9798,-1.9798,-1.9798,-1.9798,-1.9798,-1.9798,-1.9798,-1.9798,-1.9798,-1.9798,-1.9798,-1.9798,-1.9798,-1.9798,-1.9798,-1.9798,-1.9798,-1.971,-1.966,-1.966,-1.9183,-1.8643,-1.8091,-1.7639,-1.7137,-1.6559,-1.6522,-1.6522,-1.6522,-1.6522,-1.5932,-1.4698,-1.4698,-1.4118,-1.2881,-1.2881,-1.3096,-1.3496,-1.3164,-1.332,0.0,0.0,0.0,0.0,0.0,0.0,0.0,0.0,0.0,0.0,0.0,-2.8253,-2.9567,0.0,-3.1418,-3.2574,-3.3113,-3.3524,-3.3807,-3.4171,-3.4412,-3.4403,-3.4761,-3.5512,-3.678,-3.7264,-3.7821,-3.8652,-3.8322,-3.8267,-3.8689,-3.7936,-3.7484,-3.7509,-3.7121,-3.6709,-3.6303,-3.6292,-3.5871,-3.5009,-3.499,-3.4596,-3.3807,-3.3807,-3.3807,-3.3752,-3.2875,-3.2492,-3.2311,-2.9953,-2.8078,-2.6691,-2.6691,-2.6691,-2.659,-2.5573,-2.5217,-2.5066,-2.396,-2.3595,-2.3595,-2.3595,-2.3595,-2.3595,-2.3595,-2.3595,-2.3522,-2.3256,-2.2711,-2.2027,-2.1444,-2.0782,-2.0207,-1.9901,-1.9798,-1.9798,-1.9798,-1.9798,-1.9798,-1.9798,-1.9798,-1.9798,-1.9798,-1.9798,-1.9798,-1.9798,-1.9798,-1.9798,-1.9798,-1.9798,-1.9798,-1.9798,-1.9572,-1.9196,-1.8656,-1.7852,-1.7137,-1.6559,-1.6522,-1.6522,-1.6522,-1.6522,-1.6064,-1.5186,-1.5141,-1.4856,-1.4184,-1.4184,-1.4393,-1.4694,-1.4694,-1.4613,0.0,0.0,0.0,0.0,0.0,0.0,0.0,-2.5398,-2.6506,-2.8067,-2.9047,-3.0121,-3.1872,-3.2199,-3.2737,-3.441,-3.4268,-3.4243,-3.5052,-3.5125,-3.5129,-3.5247,-3.5394,-3.6028,-3.7349,-3.7624,-3.7991,-3.8652,-3.8707,-3.8707,-3.8707,-3.8707,-3.8401,-3.7741,-3.7723,-3.7422,-3.6765,-3.6769,-3.6266,-3.5247,-3.5247,-3.4743,-3.3807,-3.3807,-3.377,-3.3633,-3.2762,-3.2234,-3.1876,-2.9974,-2.8321,-2.6911,-2.6911,-2.6759,-2.6436,-2.555,-2.5112,-2.4898,-2.3955,-2.3699,-2.3746,-2.364,-2.3698,-2.3786,-2.3625,-2.3595,-2.3595,-2.3595,-2.3172,-2.2572,-2.2053,-2.1355,-2.0646,-2.0105,-1.9901,-1.9798,-1.9798,-1.9798,-1.9798,-1.9798,-1.9798,-1.9798,-1.9798,-1.9798,-1.9798,-1.9798,-1.9798,-1.9798,-1.9798,-1.9798,-1.9798,-1.9798,-1.9798,-1.9547,-1.892,-1.7852,-1.7024,-1.6547,-1.6522,-1.6522,-1.6522,-1.6522,-1.6238,-1.5632,-1.5683,-1.5671,-1.5485,-1.5635,-1.5842,-1.6095,-1.6095,-1.567,-2.4133,-2.3608,-2.328,-2.3985,-2.474,-2.5528,0.0,-2.7679,-2.9029,-3.0016,-3.0846,-3.1929,-3.3603,-3.391,-3.4468,-3.6161,-3.6173,-3.6178,-3.6755,-3.6035,-3.5621,-3.6093,-3.678,-3.7276,-3.7489,-3.8138,-3.8597,-3.8689,-3.8707,-3.8707,-3.8707,-3.8707,-3.867,-3.8566,-3.8579,-3.8524,-3.845,-3.8432,-3.7679,-3.6156,-3.6156,-3.533,-3.3807,-3.3807,-3.3597,-3.3214,-3.2266,-3.1312,-3.0357,-3.0093,-2.9074,-2.7674,-2.7674,-2.7027,-2.5999,-2.5427,-2.4894,-2.4379,-2.3809,-2.3999,-2.4403,-2.3775,-2.4008,-2.4364,-2.3786,-2.3595,-2.3595,-2.3595,-2.317,-2.2688,-2.2622,-2.1704,-2.0795,-2.0696,-2.0245,-1.9798,-1.9798,-1.9798,-1.9798,-1.9798,-1.9798,-1.9798,-1.9798,-1.9798,-1.9798,-1.9798,-1.9798,-1.9798,-1.9798,-1.9798,-1.9798,-1.9798,-1.9798,-1.9397,-1.838,-1.7262,-1.6584,-1.6522,-1.6522,-1.6522,-1.6522,-1.6522,-1.6238,-1.5632,-1.6085,-1.6033,-1.5485,-1.6045,-1.6491,-1.6863,-1.6863,-1.633,-2.4832,-2.4798,-2.4824,-2.5661,-2.6121,-2.6685,-2.7955,-2.8754,-2.9571,-3.0925,-3.1842,-3.2776,-3.3968,-3.4603,-3.5334,-3.6507,-3.6476,-3.6574,-3.7281,-3.6828,-3.6461,-3.6523,-3.6813,-3.7156,-3.747,-3.779,-3.8193,-3.867,-3.8707,-3.8707,-3.8707,-3.8707,-3.8707,-3.8707,-3.8707,-3.8707,-3.8707,-3.823,-3.7422,-3.6285,-3.5789,-3.4926,-3.3807,-3.3807,-3.3429,-3.2773,-3.2383,-3.1399,-3.0113,-3.0099,-2.9202,-2.7806,-2.7809,-2.7052,-2.5938,-2.539,-2.4862,-2.4369,-2.4219,-2.4104,-2.4044,-2.4134,-2.4131,-2.3993,-2.3683,-2.3595,-2.3595,-2.3595,-2.3404,-2.314,-2.279,-2.202,-2.1251,-2.0856,-2.0284,-1.9798,-1.9798,-1.9798,-1.9798,-1.9798,-1.9798,-1.9798,-1.9798,-1.9798,-1.9798,-1.9798,-1.9798,-1.9798,-1.9798,-1.9798,-1.9798,-1.9798,-1.9535,-1.9045,-1.8267,-1.7476,-1.6873,-1.6534,-1.6522,-1.6522,-1.6522,-1.6522,-1.6542,-1.663,-1.6864,-1.7188,-1.752,-1.7798,-1.7957,-1.7972,-1.7972,-1.7698,-2.5302,-2.574,-2.619,-2.6815,-2.7295,-2.7917,-2.908,-2.9467,-2.9969,-3.1433,-3.2165,-3.2891,-3.3987,-3.4718,-3.5565,-3.6853,-3.6907,-3.7118,-3.8154,-3.768,-3.713,-3.6836,-3.6427,-3.6404,-3.698,-3.7116,-3.7496,-3.8303,-3.8377,-3.8469,-3.8689,-3.8707,-3.8707,-3.8707,-3.8707,-3.8707,-3.8707,-3.79,-3.7092,-3.6285,-3.544,-3.4596,-3.3788,-3.3561,-3.3098,-3.2491,-3.2264,-3.1489,-3.0404,-3.0404,-2.9626,-2.8414,-2.823,-2.737,-2.6211,-2.5481,-2.4851,-2.4416,-2.455,-2.4298,-2.3969,-2.4418,-2.4283,-2.3849,-2.3655,-2.3595,-2.3595,-2.3595,-2.3595,-2.3492,-2.3066,-2.2451,-2.1796,-2.1219,-2.0552,-2.0054,-1.9823,-1.9798,-1.9798,-1.9798,-1.9798,-1.9798,-1.9798,-1.9798,-1.9798,-1.9798,-1.9798,-1.9798,-1.9798,-1.9798,-1.9748,-1.961,-1.912,-1.8581,-1.8028,-1.7614,-1.72,-1.6785,-1.6898,-1.6986,-1.6986,-1.6986,-1.7174,-1.7601,-1.7765,-1.8229,-1.8983,-1.9171,-1.9168,-1.898,-1.898,-1.9066,-2.5406,-2.6116,-2.6874,-2.6893,-2.8179,-2.9425,-2.9481,-2.9997,-3.0711,-3.1612,-3.1763,-3.2237,-3.3891,-3.4218,-3.5064,-3.7565,-3.795,-3.8431,-3.9834,-3.8632,-3.7471,-3.7133,-3.5713,-3.507,-3.5878,-3.6196,-3.667,-3.7489,-3.7533,-3.7863,-3.867,-3.8707,-3.8707,-3.8707,-3.8707,-3.8707,-3.8707,-3.79,-3.7092,-3.6285,-3.544,-3.4596,-3.3762,-3.2925,-3.2542,-3.2457,-3.1613,-3.1207,-3.1173,-3.1173,-3.0701,-2.9945,-2.9229,-2.8212,-2.6906,-2.5672,-2.4851,-2.4416,-2.455,-2.4567,-2.4552,-2.4567,-2.4567,-2.4477,-2.3804,-2.3595,-2.3595,-2.3595,-2.3595,-2.3595,-2.358,-2.3125,-2.2498,-2.1829,-2.1193,-2.0605,-1.9964,-1.9798,-1.9798,-1.9798,-1.9798,-1.9798,-1.9798,-1.9798,-1.9798,-1.9798,-1.9798,-1.9798,-1.9798,-1.9798,-1.961,-1.9058,-1.8555,-1.8003,-1.7451,-1.7388,-1.7375,-1.735,-1.7852,-1.8154,-1.8154,-1.8154,-1.8166,-1.8179,-1.8706,-1.8945,-1.8983,-1.9535,-1.9786,-1.9747,-1.9747,-2.006,-2.6265,-2.6961,-2.7824,-2.8355,-2.8919,-2.9513,-3.003,-3.0335,-3.0577,-3.0807,-3.1311,-3.1872,-3.2449,-3.3449,-3.4834,-3.6815,-3.7623,-3.8535,-4.0142,-3.9413,-3.841,-3.7547,-3.6445,-3.559,-3.5167,-3.5501,0.0,-3.7655,-3.7606,-3.7845,-3.867,-3.8707,-3.8707,-3.8707,-3.8707,-3.8707,-3.8707,-3.7367,-3.656,-3.6266,-3.489,-3.4064,-3.3762,-3.3225,-3.2806,-3.2474,-3.1856,-3.1455,-3.119,-3.119,-3.0762,-3.0082,-2.983,-2.882,-2.7464,-2.6733,-2.5818,-2.4886,-2.4682,-2.4328,-2.4029,-2.4433,-2.4313,-2.3894,-2.367,-2.3595,-2.3595,-2.3595,-2.3595,-2.3595,-2.3595,-2.3157,-2.2536,-2.1871,-2.1237,-2.0649,-1.9952,-1.9798,-1.9798,-1.9798,-1.9798,-1.9798,-1.9798,-1.9798,-1.9798,-1.9798,-1.9798,-1.9798,-1.9798,-1.9798,-1.9597,-1.9083,-1.8869,-1.853,-1.7978,-1.7589,-1.7539,-1.7903,-1.7765,-1.7827,-1.8191,-1.8204,-1.838,-1.8744,-1.8883,-1.9196,-1.9547,-1.971,-1.9798,-1.9798,-1.9798,-2.0313,-2.6683,-2.7563,-2.8625,-2.9136,-2.9505,-2.9853,-3.038,-3.0239,-2.9989,-2.9952,-3.016,-3.0429,-3.0717,-3.1641,-3.3147,-3.5451,-3.6548,-3.781,-3.9827,-3.9649,-3.9019,-3.8276,-3.7436,-3.6642,-3.5949,-3.6096,-3.6583,-3.7396,-3.7478,-3.7845,-3.867,-3.8707,-3.8707,-3.8707,-3.8707,-3.8707,-3.8707,-3.7092,-3.5991,-3.5385,-3.4302,-3.3807,-3.378,-3.3226,-3.2806,-3.2469,-3.1832,-3.1455,-3.119,-3.119,-3.0768,-3.0074,-2.982,-2.8941,-2.772,-2.6969,-2.6171,-2.5448,-2.5041,-2.4339,-2.3714,-2.4403,-2.4163,-2.3595,-2.3595,-2.3595,-2.3595,-2.3595,-2.3595,-2.3595,-2.3595,-2.3334,-2.2831,-2.2235,-2.156,-2.0966,-2.0304,-1.9965,-1.9798,-1.9798,-1.9798,-1.9798,-1.9798,-1.9798,-1.9798,-1.9798,-1.9798,-1.9798,-1.9798,-1.9798,-1.9597,-1.9083,-1.8983,-1.8731,-1.7978,-1.7953,-1.8041,-1.8191,-1.8229,-1.8405,-1.8756,-1.8781,-1.8945,-1.9296,-1.9309,-1.9472,-1.9798,-1.9798,-1.9798,-1.9798,-1.9798,-2.0413,-2.6747,-2.7971,-2.9259,-2.9259,-2.987,-3.049,-3.049,-2.9767,-2.9102,-2.9102,-2.8448,-2.8132,-2.8901,-2.9113,-3.0285,-3.3684,-3.4986,-3.6459,-3.903,-3.9392,-3.9354,-3.9296,-3.8565,-3.8046,-3.8007,-3.7797,-3.7431,-3.6839,0.0,-3.7875,-3.867,-3.8707,-3.8707,-3.8707,-3.8707,-3.8707,-3.8707,-3.7092,-3.5477,-3.3862,-3.3825,-3.3807,-3.3762,-3.2934,-3.2541,-3.2459,-3.161,-3.123,-3.119,-3.119,-3.0768,-3.004,-2.9313,-2.8535,-2.7653,-2.6507,-2.6046,-2.595,-2.5564,-2.4667,-2.3786,-2.4402,-2.4177,-2.3638,-2.3595,-2.3595,-2.3595,-2.3595,-2.3595,-2.3595,-2.3595,-2.3595,-2.3419,-2.2818,-2.2168,-2.1539,-2.086,-2.0226,-1.9798,-1.9798,-1.9798,-1.9798,-1.9798,-1.9798,-1.9798,-1.9798,-1.9798,-1.9798,-1.9798,-1.9798,-1.9597,-1.9083,-1.8995,-1.8631,-1.7551,-1.843,-1.8819,-1.8317,-1.9208,-1.9773,-1.9798,-1.9798,-1.9798,-1.9798,-1.9798,-1.9798,-1.9798,-1.9798,-1.9798,-1.9798,-1.9798,-2.0413,-2.8492,-2.9259,-3.01,-3.01,-3.0254,-3.0428,-3.0428,-2.9751,-2.9102,-2.9102,-2.8448,-2.7979,-2.8222,-2.9312,-3.0877,-3.3111,-3.5156,-3.715,-3.912,-3.9874,-3.9969,-3.9373,-3.9104,-3.87,-3.8065,-3.8299,-3.8325,-3.792,-3.7828,-3.8072,-3.8652,-3.8707,-3.8707,-3.8707,-3.8707,-3.8707,-3.8707,-3.7092,-3.5752,-3.4679,-3.41,-3.3807,-3.3762,-3.3273,-3.2813,-3.2472,-3.1896,-3.147,-3.119,-3.119,-3.0768,-3.0091,-2.9888,-2.8991,-2.7755,-2.7448,-2.6781,-2.5994,-2.5863,-2.5365,-2.4728,-2.4524,-2.4337,-2.4116,-2.3709,-2.3595,-2.3595,-2.3595,-2.3595,-2.3595,-2.3595,-2.3595,-2.3347,-2.2214,-2.1833,-2.1383,-2.0304,-1.994,-1.9798,-1.9798,-1.9798,-1.9798,-1.9798,-1.9798,-1.9798,-1.9798,-1.9798,-1.9798,-1.9798,-1.9798,-1.9597,-1.9083,-1.9371,-1.9334,-1.8668,-1.8869,-1.9133,-1.9384,-1.9284,-1.9397,-1.9786,-1.9798,-1.9798,-1.9798,-1.9798,-1.9798,-1.9798,-1.9798,-1.9798,-1.9798,-1.9798,-2.0413,-2.9177,-2.9762,-3.0398,-3.0398,-3.0398,-3.0302,-2.9929,-2.9179,-2.8448,-2.8082,-2.7332,-2.6775,-2.6804,-2.7918,-2.9524,-3.1666,-3.409,-3.643,-3.8531,-3.9797,-4.0315,-3.9873,-3.9815,-3.9623,-3.9142,-3.9377,-3.9432,-3.9117,-3.8689,-3.8507,-3.8701,-3.8707,-3.8707,-3.8707,-3.8707,-3.8358,-3.7661,-3.6376,-3.5312,-3.4486,-3.4027,-3.3807,-3.3807,-3.339,-3.2952,-3.2484,0.0,-3.1565,-3.119,-3.119,-3.0768,-3.0074,-2.9736,-2.8873,-2.7755,-2.7452,-2.6874,-2.6297,-2.6297,-2.6104,-2.5709,-2.4736,-2.4389,-2.4307,-2.3752,-2.3595,-2.3595,-2.3595,-2.3595,-2.3595,-2.3595,-2.3595,-2.342,-2.2686,-2.2101,-2.1492,-2.0812,-2.0195,-1.9798,-1.9798,-1.9798,-1.9798,-1.9798,-1.9798,-1.9798,-1.9798,-1.9798,-1.9798,-1.9798,-1.9798,-1.9685,-1.9397,-1.9623,-1.9597,-1.907,-1.9233,-1.9397,-1.9459,-1.9409,-1.9497,-1.9798,-1.9798,-1.9798,-1.9798,-1.9798,-1.9798,-1.9798,-1.9798,-1.9798,-1.9798,-1.9798,-2.0275,-2.9384,-2.9872,-3.0398,-3.0398,-3.0302,-3.0025,-2.9275,-2.839,-2.7505,-2.6755,-2.5909,-2.5293,-2.5313,-2.6075,-2.7547,-3.0094,-3.256,-3.5067,-3.773,-3.9392,-4.0373,-4.0489,-4.0489,-4.0489,-4.0489,-4.0489,-4.0389,-4.012,-3.9576,-3.909,-3.8762,-3.8719,-3.8707,-3.8707,-3.8597,-3.7863,-3.6468,-3.5495,-3.4669,-3.3972,-3.3844,-3.3807,-3.3807,-3.3437,-3.3045,-3.2583,-3.2092,0.0,-3.1291,-3.123,-3.0717,-2.9888,-2.9245,-2.845,-2.7588,-2.6945,-2.6691,-2.6691,-2.6691,-2.6691,-2.647,-2.4973,-2.4511,-2.4389,-2.3794,-2.3595,-2.3595,-2.3595,-2.3595,-2.3595,-2.3595,-2.3595,-2.3551,-2.3406,-2.25,-2.1657,-2.1475,-2.055,-1.9798,-1.9798,-1.9798,-1.9798,-1.9798,-1.9798,-1.9798,-1.9798,-1.9798,-1.9798,-1.9798,-1.9798,-1.9798,-1.9798,-1.9798,-1.9623,-1.9171,-1.9547,-1.961,-1.9158,-1.9547,-1.9798,-1.9798,-1.9798,-1.9798,-1.9798,-1.9798,-1.9798,-1.9798,-1.9798,-1.9798,-1.9798,-1.9798,-2.0137,-3.023,-3.0287,-3.0398,-3.0398,-2.9871,-2.9294,-2.9121,-2.7909,-2.6774,-2.664,-2.5909,-2.5322,-2.5368,-2.611,-2.7549,-3.0153,-3.2081,-3.4371,-3.7633,-3.8909,-3.9738,-4.0412,-4.0489,-4.0489,-4.0489,-4.0489,-4.0389,-4.012,-4.0002,-3.9645,-3.9063,-3.8815,-3.8707,-3.8707,-3.8046,-3.7551,-3.7276,-3.5771,-3.4917,-3.477,-3.4119,-3.3807,-3.3807,-3.3734,-3.3465,-3.3045,-3.2583,0.0,-3.166,-3.1351,-3.0395,-2.9161,-2.9025,-2.8129,-2.6877,-2.6742,-2.6691,-2.6691,-2.6691,-2.6691,-2.6539,-2.5395,-2.5067,-2.4855,-2.3921,-2.3595,-2.3595,-2.3595,-2.3595,-2.3595,-2.3595,-2.3595,-2.3319,-2.2271,-2.1838,-2.1424,-2.0372,-1.9978,-1.9798,-1.9798,-1.9798,-1.9798,-1.9798,-1.9798,-1.9798,-1.9798,-1.9798,-1.9798,-1.9798,-1.9798,-1.9798,-1.9798,-1.9798,-1.9761,-1.9673,-1.9748,-1.9761,-1.9673,-1.9748,-1.9798,-1.9798,-1.9798,-1.9798,-1.9798,-1.9798,-1.9798,-1.9798,-1.9798,-1.9798,-1.9798,-1.9798,-2.0381,-3.0513,-3.0442,-3.0398,-3.0398,-2.9737,-2.8986,-2.8563,-2.7505,-2.6467,-2.6024,-2.5591,-2.5303,-2.5329,-2.608,-2.7249,-2.8911,-3.0586,-3.2716,-3.5666,-3.7159,-3.843,-3.9719,-4.0239,-4.0489,-4.0489,-4.0489,-4.0457,-4.0321,-4.0177,-3.9797,-3.9152,-3.8844,-3.8505,-3.8083,-3.7294,-3.6652,-3.6211,-3.5,-3.4394,-3.4376,-3.399,-3.3807,-3.3807,-3.3807,-3.3447,-3.2809,-3.2583,0.0,-3.1452,-3.0883,-3.0209,-2.9482,-2.8687,-2.7926,-2.7232,-2.6843,-2.6691,-2.6691,-2.6691,-2.6691,-2.6573,-2.5835,-2.5411,-2.4989,-2.3921,-2.3595,-2.3595,-2.3595,-2.3595,-2.3595,-2.3595,-2.3595,-2.345,-2.2831,-2.2179,-2.1363,-2.0093,-1.9798,-1.9798,-1.9798,-1.9798,-1.9798,-1.9798,-1.9798,-1.9798,-1.9798,-1.9798,-1.9798,-1.9798,-1.9798,-1.9798,-1.9798,-1.9798,-1.9798,-1.9798,-1.9798,-1.9798,-1.9798,-1.9798,-1.9798,-1.9798,-1.9798,-1.9798,-1.9798,-1.9798,-1.9798,-1.9798,-1.9798,-1.9798,-1.9798,-1.9798,-1.988,-3.0523,-3.05,-3.0398,-3.0398,-2.9621,-2.8679,-2.8044,-2.7082,-2.614,-2.5437,-2.5303,-2.5303,-2.5303,-2.5906,-2.6732,-2.7738,-2.9052,-3.0945,-3.3801,-3.5334,-3.6949,-3.9046,-3.9854,-4.0296,-4.0469,-4.0489,-4.0489,-4.0489,-4.025,-3.9797,-3.9152,-3.8728,-3.821,-3.7526,-3.6541,-3.5697,-3.5009,-3.4211,-3.3807,-3.3807,-3.3807,-3.3807,-3.3807,-3.3807,-3.3419,-3.2759,-3.2406,0.0,0.0,-3.0234,-2.977,-2.9499,-2.8262,-2.7688,-2.7503,-2.6911,-2.6691,-2.6691,-2.6691,-2.6691,-2.6624,-2.6033,-2.554,-2.5028,-2.4074,-2.3681,-2.3595,-2.3595,-2.3595,-2.3595,-2.3595,-2.3595,-2.3551,-2.326,-2.2317,-2.1183,-2.0042,-1.9798,-1.9798,-1.9798,-1.9798,-1.9798,-1.9798,-1.9798,-1.9798,-1.9798,-1.9798,-1.9798,-1.9798,-1.9798,-1.9798,-1.9798,-1.9798,-1.9798,-1.9798,-1.9798,-1.9798,-1.9798,-1.9798,-1.9798,-1.9798,-1.9798,-1.9798,-1.9798,-1.9798,-1.9798,-1.9798,-1.9798,-1.9798,-1.9798,-1.9656,-1.9312,-3.0308,-3.0452,-3.0398,-3.0398,-2.9198,-2.7986,-2.7909,-2.6621,-2.5399,-2.5322,-2.5303,-2.5303,-2.5303,-2.538,-2.5957,-2.7621,-2.8016,-2.9567,-3.3635,-3.4334,-3.5641,-3.8911,-3.9373,-3.97,-4.0431,-4.0489,-4.0489,-4.0489,-4.025,-3.9797,-3.9152,-3.8364,-3.7831,-3.7507,-3.5954,-3.5064,-3.499,-3.4211,-3.3807,-3.3807,-3.3807,-3.3807,-3.3807,-3.3807,-3.3762,-3.3597,-3.2133,0.0,0.0,-2.9728,-2.867,-2.7992,-2.784,-2.7402,-2.6793,-2.6725,-2.6691,-2.6691,-2.6691,-2.6691,-2.6539,-2.5598,-2.5259,-2.5105,-2.4511,-2.3991,-2.3595,-2.3595,-2.3595,-2.3595,-2.3595,-2.3595,-2.3319,-2.2179,-2.139,-2.0696,-1.9952,-1.9798,-1.9798,-1.9798,-1.9798,-1.9798,-1.9798,-1.9798,-1.9798,-1.9798,-1.9798,-1.9798,-1.9798,-1.9798,-1.9798,-1.9798,-1.9798,-1.9798,-1.9798,-1.9798,-1.9798,-1.9798,-1.9798,-1.9798,-1.9798,-1.9798,-1.9798,-1.9798,-1.9798,-1.9798,-1.9798,-1.9798,-1.9798,-1.9798,-1.9129,-1.9057,-2.9713,-3.01,-3.0442,-3.0414,-2.914,-2.789,-2.789,-2.6544,-2.5303,-2.5303,-2.5303,-2.5303,-2.5303,-2.5303,-2.5534,-2.6217,-2.6351,-2.7294,-3.0025,-3.1275,-3.3179,-3.6603,-3.7892,-3.9046,-4.0354,-4.0489,-4.0296,-3.9796,-3.9679,-3.9128,-3.7972,-3.7904,-3.7302,-3.6028,-3.5367,-3.4752,-3.4284,-3.3972,-3.3807,-3.3807,-3.3807,-3.3807,-3.3807,-3.3807,-3.3405,-3.2682,-3.1773,0.0,0.0,-2.8835,-2.8095,-2.7739,-2.7317,-2.6962,-2.6691,-2.6691,-2.6691,-2.6691,-2.6691,-2.6691,-2.659,-2.5908,-2.5449,-2.5028,-2.4184,-2.3752,-2.3595,-2.3595,-2.3595,-2.3595,-2.3595,-2.3595,-2.326,-2.1979,-2.152,-2.1051,-2.0042,-1.9798,-1.9798,-1.9798,-1.9798,-1.9798,-1.9798,-1.9798,-1.9798,-1.9798,-1.9798,-1.9798,-1.9798,-1.9798,-1.9798,-1.9798,-1.9798,-1.9798,-1.9798,-1.9798,-1.9798,-1.9798,-1.9798,-1.9798,-1.9798,-1.9798,-1.9798,-1.9798,-1.9798,-1.9798,-1.9798,-1.9359,-1.9371,-1.9747,-1.8602,-1.8162,-2.9196,-2.9698,-3.0095,-3.0021,-2.8948,-2.7832,-2.7563,-2.637,-2.5303,-2.5303,-2.5322,-2.5312,-2.5293,-2.5322,-2.5312,-2.5293,-2.5303,-2.5986,-2.7986,-2.9275,-3.1275,-3.4718,-3.6161,-3.7526,-3.92,-3.9604,-3.9527,-3.895,-3.8911,-3.8309,-3.6955,-3.7163,-3.6589,-3.5055,-3.4752,-3.4376,-3.3807,-3.3807,-3.3807,-3.3807,-3.3807,-3.3807,-3.3788,-3.355,-3.2994,-3.2136,-3.1148,0.0,0.0,-2.7998,-2.7486,-2.7435,-2.6894,-2.6691,-2.6691,-2.6691,-2.6691,-2.6691,-2.6691,-2.6691,-2.6624,-2.6156,-2.5652,-2.5012,-2.4116,-2.3724,-2.3595,-2.3595,-2.3595,-2.3595,-2.3595,-2.3595,-2.3319,-2.2225,-2.1852,-2.1424,-2.0346,-1.9952,-1.9798,-1.9798,-1.9798,-1.9798,-1.9798,-1.9798,-1.9798,-1.9798,-1.9798,-1.9798,-1.9798,-1.966,-1.9559,-1.9544,-1.9433,-1.9471,-1.9773,-1.9798,-1.9798,-1.9798,-1.9798,-1.9798,-1.9798,-1.9798,-1.9798,-1.9798,-1.9798,-1.9695,-1.9475,-1.8939,-1.8874,-1.915,-1.7847,-1.7148,-2.886,-2.9264,-2.9196,-2.9135,-2.8486,-2.7659,-2.6813,-2.5928,-2.5303,-2.5303,-2.5354,-2.5376,-2.5313,-2.5354,-2.5376,-2.5313,-2.5303,-2.6197,-2.8717,-2.9102,-3.0371,-3.3814,-3.4218,-3.4891,-3.6584,-3.7526,-3.8027,-3.8007,-3.8007,0.0,-3.6362,-3.6064,-3.5637,-3.5018,-3.4229,-3.3807,-3.3807,-3.3807,-3.3807,-3.3807,-3.3807,-3.3807,-3.377,-3.2981,-3.2606,-3.2452,0.0,0.0,0.0,-2.7377,-2.6708,-2.6708,-2.6691,-2.6691,-2.6691,-2.6691,-2.6691,-2.6691,-2.6691,-2.6691,-2.6624,-2.6156,-2.5652,-2.5105,-2.4552,-2.4032,-2.3595,-2.3595,-2.3595,-2.3595,-2.3595,-2.3595,-2.3465,-2.283,-2.2193,-2.152,-2.093,-2.0258,-1.9798,-1.9798,-1.9798,-1.9798,-1.9798,-1.9798,-1.9798,-1.9798,-1.9798,-1.9798,-1.9798,-1.9359,-1.8996,-1.8988,-1.8548,-1.8672,-1.9736,-1.9798,-1.9798,-1.9798,-1.9798,-1.9798,-1.9798,-1.9798,-1.9798,-1.9798,-1.9798,-1.9423,-1.8715,-1.8715,-1.834,-1.7578,-1.6866,-1.6151,-2.7524,-2.8076,-2.8495,-2.8429,-2.7787,-2.707,-2.6798,-2.6049,-2.5434,-2.5434,-2.544,-2.5453,-2.5368,-2.5383,-2.5569,-2.6102,-2.6197,-2.6678,-2.8082,-2.9275,-3.0814,-3.3045,-3.5372,-3.7007,-3.7546,-3.7834,-3.7757,-3.7161,-3.7123,-3.6631,-3.5541,-3.5397,-3.5073,-3.4464,-3.4031,-3.3807,-3.3807,-3.3807,-3.3807,-3.3788,-3.3238,-3.2981,-3.2963,-3.2155,-3.1476,0.0,0.0,0.0,0.0,-2.7421,-2.6971,-2.6691,-2.6691,-2.6691,-2.6691,-2.6691,-2.6691,-2.6691,-2.6691,-2.6691,-2.6573,-2.5709,-2.5335,-2.5012,-2.4116,-2.3709,-2.3595,-2.3595,-2.3595,-2.3595,-2.3595,-2.3595,-2.3319,-2.2285,-2.1852,-2.1424,-2.0333,-1.9952,-1.9798,-1.9798,-1.9798,-1.9798,-1.9798,-1.9798,-1.9798,-1.9798,-1.9798,-1.9673,-1.9321,-1.9133,-1.8871,-1.8474,-1.8277,-1.8326,-1.8697,-1.8722,-1.8709,-1.8719,-1.8706,-1.8882,-1.9258,-1.9271,-1.9447,-1.9798,-1.9307,-1.9202,-1.9423,-1.7961,-1.681,-1.6073,-1.6368,-1.6093,-2.6773,-2.7284,-2.7693,-2.7629,-2.7204,-2.6704,-2.6373,-2.5897,-2.5493,-2.5493,-2.5493,-2.5488,-2.5401,-2.5406,-2.5569,-2.6025,-2.612,-2.6545,-2.7769,-2.9077,-3.066,-3.266,-3.5064,-3.6565,-3.6565,-3.6853,-3.6834,-3.6295,-3.6257,-3.595,-3.5293,-3.5138,-3.4925,-3.4534,-3.4284,-3.4136,-3.4136,-3.4136,-3.3914,-3.3474,-3.2976,-3.2557,-3.2118,-3.1311,-3.0668,0.0,0.0,0.0,0.0,-2.7487,-2.7051,-2.6691,-2.6691,-2.6691,-2.6691,-2.6691,-2.6691,-2.6691,-2.6691,-2.6691,-2.659,-2.5762,-2.5083,-2.4359,-2.3531,-2.3415,-2.3595,-2.3595,-2.3595,-2.3595,-2.3595,-2.3595,-2.3363,-2.2331,-2.1899,-2.1424,-2.0383,-2.0003,-1.9798,-1.9798,-1.9798,-1.9798,-1.9798,-1.9648,-1.9497,-1.951,-1.9334,-1.9083,-1.8756,-1.853,-1.8294,-1.7917,-1.7669,-1.7567,-1.7567,-1.7972,-1.8194,-1.8204,-1.8204,-1.8455,-1.8958,-1.8983,-1.9271,-1.9798,-1.9097,-1.8768,-1.8992,-1.7302,-1.6151,-1.541,-1.6151,-1.6093,0.0,-2.677,-2.6799,-2.6729,-2.6714,-2.6505,-2.5697,-2.5503,0.0,-2.5503,-2.5503,-2.5484,-2.5421,-2.5401,-2.5403,-2.539,-2.5437,-2.6092,-2.7829,-2.882,-3.0306,-3.2788,-3.3808,-3.4295,-3.4295,-3.5026,-3.5493,-3.5493,-3.5493,-3.5468,-3.5411,-3.5178,-3.5007,-3.495,-3.4699,-3.4583,-3.4619,-3.4562,-3.3987,-3.2937,-3.2858,-3.2312,-3.1323,-3.0485,-3.0118,0.0,0.0,0.0,0.0,-2.7517,-2.7083,-2.6691,-2.6691,-2.6691,-2.6691,-2.6691,-2.6657,-2.6623,-2.6623,-2.659,-2.6438,-2.5919,-2.466,-2.3264,-2.2772,-2.3041,-2.3535,-2.3595,-2.3565,-2.355,-2.3595,-2.3535,-2.3287,-2.2712,-2.2048,-2.1397,-2.0801,-2.0181,-1.9748,-1.9798,-1.9761,-1.9736,-1.9736,-1.9308,-1.8929,-1.8945,-1.853,-1.8191,-1.8154,-1.7702,-1.74,-1.736,-1.6842,-1.6522,-1.6522,-1.7467,-1.8083,-1.8066,-1.8129,-1.8392,-1.8895,-1.8958,-1.9221,-1.9734,-1.9044,-1.8286,-1.7468,-1.6866,-1.614,-1.541,-1.6093,-1.6036,-2.5818,0.0,-2.5974,-2.5951,-2.5951,-2.5892,0.0,-2.5659,-2.5659,-2.5659,-2.5659,-2.5629,-2.5508,-2.5488,-2.5654,-2.6217,-2.6851,-2.7651,-2.8694,-3.0664,-3.2728,-3.4734,-3.5104,-3.5199,-3.5199,-3.5391,-3.5493,-3.5493,-3.5493,-3.5218,-3.4545,-3.4447,-3.4112,-3.344,-3.336,-3.3446,-3.3712,-3.3033,-3.2579,-3.2294,-3.1528,-3.1027,-3.0735,-2.9734,-2.9292,0.0,0.0,0.0,-2.7897,-2.7811,-2.7317,-2.6691,-2.6691,-2.6691,-2.6691,-2.6691,-2.6336,-2.5862,-2.5862,-2.5295,-2.4397,-2.3531,-2.3065,-2.2768,-2.2109,-2.2383,-2.2996,-2.346,-2.3251,-2.2996,-2.3475,-2.2877,-2.2002,-2.1447,-2.0823,-2.0157,-1.9542,-1.9304,-1.9308,-1.971,-1.9447,-1.9206,-1.9206,-1.8765,-1.8415,-1.8392,-1.8292,-1.8053,-1.7626,-1.7463,-1.7225,-1.6754,-1.6566,-1.6522,-1.6522,-1.6753,-1.6904,-1.6911,-1.7325,-1.7827,-1.838,-1.8807,-1.9007,-1.898,-1.8768,-1.7775,-1.5911,-1.6856,-1.6687,-1.541,-1.5584,-1.5584,-2.5573,-2.5658,-2.5703,-2.5703,-2.5703,-2.5703,-2.5703,-2.5703,-2.5683,-2.566,-2.5659,-2.5611,-2.5526,-2.5463,-2.5596,-2.6018,-2.6776,-2.8005,-3.0006,-3.1815,-3.3597,-3.5345,-3.5522,-3.5353,0.0,-3.4911,-3.4737,-3.4353,-3.4314,-3.4103,-3.3622,-3.3603,-3.3391,-3.291,-3.2545,-3.2612,-3.3168,-3.2692,-3.2224,-3.1743,-3.1073,-3.0523,-3.0025,-2.9337,-2.8792,0.0,0.0,0.0,-2.7032,-2.6854,-2.6435,-2.5914,-2.5773,-2.5676,-2.5676,-2.5676,-2.5439,-2.5101,-2.5101,-2.4413,-2.3349,-2.231,-2.1904,-2.171,-2.135,-2.15,-2.1904,-2.2547,-2.2488,-2.2308,-2.2637,-2.2025,-2.1172,-2.0578,-1.9983,-1.9373,-1.878,-1.8611,-1.874,-1.9007,-1.8839,-1.8608,-1.8627,-1.8188,-1.7827,-1.7827,-1.7601,-1.7325,-1.7024,-1.6986,-1.6861,-1.6547,-1.6522,-1.6522,-1.6522,-1.6522,-1.6522,-1.6522,-1.7067,-1.7622,-1.8174,-1.8733,-1.8741,-1.8221,-1.7841,-1.6912,-1.541,-1.6528,-1.6528,-1.541,-1.5748,-1.569,-2.5601,-2.5658,-2.5683,-2.5703,-2.5703,-2.5703,-2.5703,-2.5703,-2.5683,-2.5633,-2.5627,-2.5598,-2.5503,-2.5465,-2.5499,-2.5662,-2.6451,-2.8125,-3.1287,-3.2366,-3.3381,-3.4944,-3.5116,0.0,-3.4064,-3.3987,-3.3699,-3.2968,-3.2891,-3.2852,-3.2718,-3.2718,-3.266,-3.2526,-3.1852,-3.1833,-3.2506,-3.2526,-3.2045,-3.1164,-3.0942,-3.0358,-2.9434,-2.9052,-2.8474,-2.7787,0.0,0.0,-2.5967,-2.5636,-2.5314,-2.4977,-2.4628,-2.4506,-2.4506,-2.4506,-2.4438,-2.4306,-2.4048,-2.3506,-2.2725,-2.1604,-2.0975,-2.0692,-2.0587,-2.0557,-2.0677,-2.1231,-2.147,-2.1575,-2.1665,-2.1167,-2.045,-1.9892,-1.931,-1.8675,-1.8164,-1.8096,-1.8075,-1.8176,-1.8147,-1.8066,-1.8088,-1.7614,-1.725,-1.725,-1.6835,-1.6522,-1.6522,-1.6522,-1.6522,-1.6522,-1.6522,-1.6522,-1.6522,-1.6522,-1.6522,-1.6522,-1.7124,-1.7759,-1.824,-1.8585,-1.835,-1.7457,-1.6821,-1.6151,-1.541,-1.6151,-1.6151,-1.541,-1.6036,-1.5979,-2.5661,-2.5658,-2.5633,-2.5683,-2.5703,-2.5703,-2.5703,-2.5703,-2.5703,-2.5683,-2.5683,-2.5658,-2.5511,-2.5543,-2.5773,-2.6411,-2.7906,-2.9642,-3.1605,-3.1945,-3.2348,-3.3355,0.0,-3.3256,-3.3103,-3.3103,-3.3045,-3.291,-3.2891,-3.2602,-3.1929,-3.1891,-3.1545,-3.0814,-3.0648,-3.0648,-3.0794,-3.0794,-3.0694,-3.0535,-3.0285,-2.9978,-2.9624,-2.867,-2.8077,-2.775,0.0,-2.6494,-2.5967,-2.5636,-2.5314,-2.4977,-2.4628,-2.4506,-2.4506,-2.4506,-2.4086,-2.3371,-2.2017,-2.181,-2.1925,-2.0452,-2.0302,-2.0602,-2.0019,-1.9839,-1.9869,-1.9974,-2.0423,-2.0991,-2.1545,-2.0457,-1.9211,-1.9234,-1.8371,-1.7563,-1.7553,-1.7514,-1.7663,-1.8124,-1.7843,-1.7534,-1.7541,-1.7036,-1.6647,-1.6647,-1.6572,-1.6522,-1.6522,-1.6522,-1.6522,-1.6522,-1.6522,-1.6522,-1.6522,-1.6522,-1.6522,-1.6522,-1.748,-1.8223,-1.8584,-1.8074,-1.7445,-1.6708,-1.6549,-1.6151,-1.541,-1.6151,-1.6151,-1.541,-1.5526,-1.5526,-2.4381,-2.4617,-2.4967,-2.4999,-2.5311,-2.5659,-2.5683,-2.5703,-2.5683,-2.5659,-2.5657,-2.5627,-2.5526,-2.5503,-2.5904,-2.7191,-2.8495,-2.9938,-3.1656,-3.1845,-3.2106,0.0,0.0,-3.2737,-3.2295,-3.2256,-3.2064,-3.1583,-3.1545,-3.1391,-3.1025,-3.1006,-3.0814,-3.0398,-3.0398,-3.0398,-3.0398,-3.0398,-3.0398,-3.0379,-2.9696,-2.9243,-2.9015,-2.7942,-2.7117,-2.6465,0.0,-2.5594,-2.4987,-2.4685,-2.4432,-2.4237,-2.3742,-2.3539,-2.3511,-2.3362,-2.3105,-2.2618,-2.1405,-2.1215,-2.1258,-2.0086,-1.9899,-2.0094,-1.9779,-1.969,-1.969,-1.969,-1.9914,-2.0228,-2.0528,-1.9537,-1.8478,-1.8536,-1.7679,-1.6896,-1.6918,-1.6901,-1.7002,-1.7207,-1.7061,-1.6908,-1.6886,-1.6685,-1.6522,-1.6522,-1.6522,-1.6522,-1.6522,-1.6522,-1.6522,-1.6522,-1.6522,-1.6522,-1.6522,-1.6522,-1.6615,-1.6969,-1.7119,-1.7447,-1.7949,-1.6911,-1.6116,-1.5783,-1.5659,-1.5409,-1.5078,-1.5638,-1.5748,-1.541,-1.541,-1.541,-2.3522,-2.3868,-2.4323,-2.414,-2.4857,-2.5668,-2.5937,-2.5996,-2.6035,-2.6202,-2.606,-2.5915,-2.5835,-2.596,-2.6482,-2.7828,-2.8957,-3.0137,-3.1446,-3.1566,-3.1751,-3.2348,-3.2373,-3.2081,-3.1468,-3.141,-3.1121,-3.0436,-3.0398,-3.0398,-3.0398,-3.0398,-3.0398,-3.0398,-3.0398,-3.0302,-3.0102,-3.0102,-3.0198,-3.0379,-2.9366,-2.8765,-2.8528,-2.7262,-2.6247,-2.5463,-2.5221,-2.4759,-2.417,-2.3837,-2.3692,-2.3631,-2.2972,-2.266,-2.2573,-2.2388,-2.231,-2.218,-2.1291,-2.0991,-2.0878,-1.998,-1.969,-1.969,-1.969,-1.969,-1.969,-1.969,-1.969,-1.969,-1.969,-1.8891,-1.8106,-1.8079,-1.7289,-1.6522,-1.6522,-1.6522,-1.6522,-1.6522,-1.6522,-1.6522,-1.6522,-1.6522,-1.6522,-1.6522,-1.6522,-1.6522,-1.6522,-1.6522,-1.6522,-1.6522,-1.6522,-1.6522,-1.6522,-1.6522,-1.6615,-1.6969,-1.6775,-1.6773,-1.7008,-1.6027,-1.5279,-1.4935,-1.4879,-1.4785,-1.4785,-1.5205,-1.541,-1.541,-1.541,-1.541,-2.4232,-2.4252,-2.4124,-2.3378,-2.4408,-2.5824,-2.6718,-2.685,-2.7058,-2.793,-2.7461,-2.6873,-2.6815,-2.7454,-2.8037,-2.8173,-2.9641,-3.0797,-3.0794,0.0,-3.0745,-3.0699,-3.0683,-3.0637,-3.0518,-3.0494,-3.0456,-3.0398,-3.0398,-3.0398,-3.0398,-3.0398,-3.0398,-3.0398,-3.0398,-3.0006,-2.9198,-2.9179,-2.9602,-3.0379,-2.9494,-2.8969,-2.8727,-2.69,-2.5911,-2.5633,-2.469,-2.4245,-2.417,-2.3837,-2.3692,-2.3631,-2.2972,-2.2537,-2.2338,-2.231,-2.231,-2.218,-2.1291,-2.0991,-2.0878,-1.998,-1.969,-1.969,-1.969,-1.969,-1.969,-1.969,-1.969,-1.969,-1.969,-1.8884,-1.8086,-1.8094,-1.7289,-1.6522,-1.6522,-1.6522,-1.6522,-1.6522,-1.6522,-1.6522,-1.6522,-1.6522,-1.6522,-1.6522,-1.6522,-1.6522,-1.6522,-1.6522,-1.6522,-1.6522,-1.6522,-1.6522,-1.6522,-1.6522,-1.6293,-1.5752,-1.6753,-1.7,-1.6293,-1.6162,-1.5509,-1.4174,-1.4615,-1.4785,-1.4785,-1.5205,-1.541,-1.541,-1.541,-1.541,-2.2751,-2.305,-2.3436,-2.3173,-2.436,-2.5707,-2.6093,-2.6581,-2.7224,-2.8125,-2.8005,-2.7563,-2.6942,-2.7554,-2.8147,-2.8198,-2.9654,-3.0792,-3.0816,-3.0747,-3.0673,-3.0575,-3.0521,-3.0472,-3.0421,-3.0398,-3.0398,-3.0398,-3.0398,-3.016,-2.9621,-2.9583,-2.9352,-2.8852,-2.8852,-2.8698,-2.8352,-2.8352,-2.8525,-2.8832,-2.7967,-2.7447,-2.721,-2.5854,-2.5136,-2.4925,-2.4413,-2.419,-2.419,-2.4074,-2.4016,-2.3937,-2.3259,-2.2721,-2.231,-2.231,-2.231,-2.2209,-2.1598,-2.1213,-2.0894,-2.0261,-1.9894,-1.969,-1.969,-1.969,-1.969,-1.969,-1.969,-1.9609,-1.9307,-1.8651,-1.8041,-1.769,-1.705,-1.6522,-1.6522,-1.6522,-1.6522,-1.6522,-1.6522,-1.6522,-1.6522,-1.6522,-1.6522,-1.6522,-1.6522,-1.6522,-1.6522,-1.6522,-1.6522,-1.6522,-1.6522,-1.6522,-1.6522,-1.6156,-1.5988,-1.617,-1.5897,-1.544,-1.4758,-1.4361,-1.3899,-1.335,-1.3769,-1.3994,-1.3994,-1.4414,-1.4619,-1.4619,-1.4619,-1.4619,-2.2223,-2.2682,-2.3326,-2.3121,-2.4344,-2.5685,-2.6012,-2.6755,-2.7635,-2.8535,-2.8455,-2.7932,-2.6997,-2.7344,-2.7846,-2.8159,-2.9184,-3.0071,-3.0449,-3.0171,-3.0013,-3.0234,-3.0179,-3.0189,-3.0411,-3.0414,-3.0294,-3.0006,-2.9987,-2.9621,-2.8775,-2.8717,-2.8467,-2.7909,-2.789,-2.7775,-2.7486,-2.7486,-2.7351,-2.7063,-2.6467,-2.6261,-2.635,-2.5294,-2.4741,-2.4651,-2.4339,-2.4247,-2.4284,-2.4228,-2.4151,-2.3996,-2.3414,-2.2883,-2.2426,-2.2321,-2.231,-2.2237,-2.1764,-2.1337,-2.0926,-2.0449,-2.0035,-1.969,-1.969,-1.969,-1.969,-1.969,-1.969,-1.9549,-1.8825,-1.8387,-1.7965,-1.7421,-1.6901,-1.6522,-1.6522,-1.6522,-1.6522,-1.6522,-1.6522,-1.6522,-1.6522,-1.6522,-1.6522,-1.6522,-1.6522,-1.6522,-1.6522,-1.6522,-1.6522,-1.6522,-1.6522,-1.6522,-1.6522,-1.5961,-1.5674,-1.5905,-1.4998,-1.4323,-1.4082,-1.3478,-1.3076,-1.2881,-1.3291,-1.3506,-1.3506,-1.3873,-1.4077,-1.4077,-1.4077,-1.4077,-2.3107,-2.352,-2.4,-2.3198,-2.4319,-2.5835,-2.6696,-2.7576,-2.8463,-2.9414,-2.8926,-2.8026,-2.7093,-2.6968,-2.7265,-2.8069,-2.8257,-2.8594,-2.9473,-2.8848,-2.8592,-2.9389,-2.9377,-2.959,-3.0391,-3.0422,-3.0025,-2.914,-2.9083,-2.8736,0.0,-2.789,-2.7871,-2.7871,-2.7871,-2.7467,-2.6601,-2.6582,-2.6159,-2.5303,-2.5303,-2.5745,-2.6553,-2.5348,-2.4864,-2.4955,-2.4442,-2.4321,-2.4478,-2.4284,-2.3996,-2.3671,-2.3346,-2.2996,-2.2686,-2.2415,-2.231,-2.2237,-2.1764,-2.1337,-2.0926,-2.0449,-2.0035,-1.969,-1.969,-1.969,-1.969,-1.969,-1.969,-1.9468,-1.8397,-1.8092,-1.7968,-1.742,-1.6901,-1.6522,-1.6522,-1.6522,-1.6522,-1.6522,-1.6522,-1.6522,-1.6522,-1.6522,-1.6522,-1.6522,-1.6522,-1.6522,-1.6522,-1.6522,-1.6522,-1.6522,-1.6522,-1.6522,-1.6522,-1.5961,-1.5336,-1.4749,-1.4127,-1.4089,-1.4655,-1.4127,-1.3527,-1.2929,-1.3291,-1.3496,-1.3506,-1.3863,-1.4068,-1.4068,-1.4068,-1.4068,-2.2142,-2.259,-2.3223,-2.299,-2.4732,-2.6579,-2.6832,-2.7608,-2.871,-3.0195,-2.9824,-2.8945,-2.8045,-2.789,-2.7793,-2.742,-2.789,-2.8398,-2.8652,-2.8457,-2.8377,-2.8569,-2.8551,-2.8583,-2.8725,-2.8713,-2.8599,-2.8285,-2.8255,0.0,0.0,-2.6986,-2.6697,-2.6101,-2.6082,-2.5947,-2.5687,-2.5687,-2.5553,-2.5303,-2.5303,-2.5437,-2.5668,-2.5156,-2.4962,-2.4986,-2.4588,-2.4444,-2.4478,-2.4284,-2.3996,-2.3671,-2.3346,-2.2996,-2.2686,-2.2415,-2.2106,-2.1823,-2.2032,-2.1415,-2.055,-2.0731,-2.0311,-1.969,-1.969,-1.969,-1.969,-1.969,-1.9417,-1.8986,-1.8267,-1.7836,-1.742,-1.6845,-1.6615,-1.6522,-1.6522,-1.6522,-1.6522,-1.6522,-1.6522,-1.6522,-1.6522,-1.6522,-1.6522,-1.6522,-1.6522,-1.6522,-1.6522,-1.6522,-1.6522,-1.6522,-1.6522,-1.6522,-1.6522,-1.5944,-1.5501,-1.5334,-1.4359,-1.3672,-1.3433,-1.327,-1.3076,-1.2881,-1.2998,-1.3066,-1.3066,-1.3193,-1.3252,-1.3252,-1.3252,-1.3252,-2.2677,-2.3171,-2.3844,-2.3844,-2.5084,-2.642,-2.6808,-2.7631,-2.8594,-2.9648,-2.918,-2.8418,-2.7871,-2.75,-2.7207,-2.7031,-2.7148,-2.7383,-2.7734,-2.748,-2.7382,-2.7686,-2.7693,-2.778,-2.8054,-2.8067,-2.7865,-2.7451,-2.7422,0.0,0.0,-2.6082,-2.5851,-2.5322,-2.5303,-2.5303,-2.5303,-2.5303,-2.5303,-2.5303,-2.5303,-2.5303,-2.5284,-2.5088,-2.5034,-2.5099,-2.4752,-2.4528,-2.4375,-2.4266,-2.4074,-2.3837,-2.3392,-2.3069,-2.2848,-2.2453,-2.2106,-2.1899,-2.2003,-2.1385,-2.0583,-2.0682,-2.0277,-1.969,-1.969,-1.969,-1.966,-1.9432,-1.9146,-1.8724,-1.7991,-1.7544,-1.7145,-1.6615,-1.6522,-1.6522,-1.6522,-1.6522,-1.6522,-1.6522,-1.6522,-1.6522,-1.6522,-1.6522,-1.6522,-1.6522,-1.6522,-1.6522,-1.6522,-1.6522,-1.6522,-1.6522,-1.6522,-1.6522,-1.6522,-1.5964,-1.5499,-1.5276,-1.4318,-1.3552,-1.2929,-1.2881,-1.2881,-1.2881,-1.2881,-1.2881,-1.2881,-1.2881,-1.2881,-1.2881,-1.2881,-1.2881,-2.3879,-2.4505,-2.5187,-2.5187,-2.5365,-2.5777,-2.6705,-2.7574,-2.8203,-2.8281,-2.7676,-2.709,-2.7012,-2.6348,-2.6055,-2.6777,-2.6211,-2.5977,-2.6777,-2.6191,-2.5996,-2.6797,-2.6827,-2.7103,-2.7881,-2.7911,-2.7511,-2.6653,0.0,0.0,0.0,-2.5322,-2.5322,-2.5303,-2.5303,-2.5322,-2.5303,-2.5303,-2.5303,-2.5303,-2.5303,-2.5303,-2.5284,-2.5111,-2.5111,-2.5253,-2.4955,-2.4575,-2.4228,-2.4209,-2.417,-2.4094,-2.3437,-2.3165,-2.3087,-2.2508,-2.2254,-2.2135,-2.1735,-2.1275,-2.0829,-2.0416,-2.0035,-1.969,-1.969,-1.969,-1.9579,-1.9051,-1.8877,-1.8579,-1.7576,-1.7269,-1.7119,-1.6615,-1.6522,-1.6522,-1.6522,-1.6522,-1.6522,-1.6522,-1.6522,-1.6522,-1.6522,-1.6522,-1.6522,-1.6522,-1.6522,-1.6522,-1.6522,-1.6522,-1.6522,-1.6522,-1.6522,-1.6479,-1.6436,-1.5932,-1.5332,-1.4652,-1.4097,-1.3552,-1.2929,-1.2881,-1.2881,-1.2881,-1.2881,-1.2881,-1.2881,-1.2881,-1.2881,-1.2881,-1.2881,-1.2871,-2.2254,-2.3178,-2.436,-2.436,-2.5444,-2.6578,-2.6908,-2.7129,-2.7461,-2.8164,-2.8144,-2.7812,-2.7129,-2.6855,-2.6562,-2.6055,-2.582,-2.5762,-2.5957,-2.582,-2.5762,-2.5957,-2.5976,-2.6011,-2.6149,-2.6158,-2.6034,0.0,0.0,0.0,-2.5465,-2.5465,-2.5434,-2.5376,-2.5387,-2.5346,-2.5303,-2.5303,-2.5303,0.0,-2.5303,-2.5303,-2.5303,-2.5264,-2.5163,-2.5046,-2.4883,-2.4654,-2.4409,-2.4284,-2.4036,-2.3774,-2.3369,-2.3045,-2.2772,-2.2426,-2.1886,-2.1323,-2.1538,-2.0878,-2.0015,-2.0212,-2.0035,-1.969,-1.969,-1.969,-1.9579,-1.9051,-1.8592,-1.8136,-1.7479,-1.6982,-1.6615,-1.6534,-1.6522,-1.6522,-1.6522,-1.6522,-1.6522,-1.6522,-1.6522,-1.6522,-1.6522,-1.6522,-1.6522,-1.6522,-1.6522,-1.6522,-1.6522,-1.6522,-1.6522,-1.6522,-1.6522,-1.6318,-1.584,-1.5662,-1.5119,-1.405,-1.3862,-1.3552,-1.2929,-1.2881,-1.2881,-1.2881,-1.2881,-1.2881,-1.2881,-1.2881,-1.2881,-1.2881,-1.2881,-1.2609,-2.2136,-2.309,-2.4205,-2.4623,-2.5454,-2.6201,-2.6316,-2.6347,-2.6504,-2.6953,-2.7051,-2.6914,-2.6465,-2.6387,-2.623,-2.5762,-2.5703,-2.5703,-2.5703,-2.5703,-2.5703,-2.5703,-2.5703,-2.5683,-2.5658,-2.5658,-2.5629,0.0,0.0,-2.552,-2.5493,-2.5493,-2.5473,-2.5453,-2.5453,-2.5428,-2.5398,-2.5398,-2.5398,-2.5398,-2.5363,-2.5321,-2.5303,-2.5303,-2.5203,-2.4998,-2.4869,-2.4685,-2.4478,-2.4284,-2.3996,-2.3671,-2.3346,-2.2996,-2.2643,-2.2141,-2.1675,-2.1244,-2.1039,-2.055,-2.0,-2.0,-1.9874,-1.969,-1.969,-1.9513,-1.9227,-1.8665,-1.8131,-1.7583,-1.705,-1.6696,-1.6522,-1.6522,-1.6522,-1.6522,-1.6522,-1.6522,-1.6522,-1.6522,-1.6522,-1.6522,-1.6522,-1.6522,-1.6522,-1.6522,-1.6522,-1.6522,-1.6522,-1.6522,-1.6386,-1.6102,-1.6089,-1.5837,-1.5242,-1.5151,-1.4789,-1.3886,-1.3782,-1.3507,-1.292,-1.2881,-1.2881,-1.2881,-1.2881,-1.2881,-1.2881,-1.2559,-1.2365,-1.2366,-1.2033,-1.1697,-2.1976,-2.3003,-2.4126,-2.5154,-2.5459,-2.5493,-2.5573,-2.5637,-2.5683,-2.5683,-2.5683,-2.5703,-2.5703,-2.5703,-2.5703,-2.5703,-2.5703,-2.5703,-2.5703,-2.5703,-2.5703,-2.5703,-2.5703,-2.5703,-2.5703,-2.5703,-2.5682,0.0,0.0,-2.5598,-2.5543,-2.552,-2.5535,-2.5526,-2.5526,-2.5503,-2.5493,-2.5493,-2.5493,-2.5489,-2.5441,-2.5376,-2.5322,-2.5322,-2.5215,-2.5034,-2.4869,-2.47,-2.4526,-2.4303,-2.3976,-2.3588,-2.3323,-2.2972,-2.2556,-2.1936,-2.1628,-2.1399,-2.0682,-2.0314,-2.0158,-1.9818,-1.969,-1.9675,-1.9579,-1.9241,-1.8753,-1.8155,-1.7625,-1.7188,-1.6615,-1.6522,-1.6522,-1.6522,-1.6522,-1.6522,-1.6522,-1.6522,-1.6522,-1.6522,-1.6522,-1.6522,-1.6522,-1.6522,-1.6522,-1.6522,-1.6522,-1.6454,-1.6373,-1.6318,-1.6102,-1.5526,-1.5449,-1.5186,-1.4582,-1.4563,-1.4307,-1.3662,-1.3651,-1.3408,-1.292,-1.2881,-1.2881,-1.2881,-1.2881,-1.2881,-1.2881,-1.2147,-1.1809,-1.1798,-1.1096,-1.0723,-1.9554,-2.1244,-2.3372,-2.5077,-2.5459,-2.5453,-2.5567,-2.5605,-2.5607,-2.5607,-2.566,-2.5703,-2.5703,-2.5703,-2.5703,-2.5703,-2.5703,-2.5703,-2.5703,-2.5703,-2.5703,-2.5703,-2.5703,-2.5703,-2.5703,-2.5703,0.0,0.0,-2.5683,-2.5683,-2.5662,-2.5662,-2.5658,-2.5595,-2.5595,-2.5558,-2.5493,-2.5493,-2.5493,-2.5493,-2.5484,-2.5459,-2.5391,-2.5391,-2.5346,-2.5243,-2.4923,-2.479,-2.4731,-2.4357,-2.3837,-2.3259,-2.323,-2.2857,-2.2332,-2.2237,-2.1721,-2.1055,-2.0959,-2.0398,-1.9782,-1.9711,-1.969,-1.9594,-1.9146,-1.8971,-1.8687,-1.7706,-1.7375,-1.7188,-1.6615,-1.6522,-1.6522,-1.6522,-1.6522,-1.6522,-1.6522,-1.6522,-1.6522,-1.6522,-1.6522,-1.6522,-1.6522,-1.6522,-1.6522,-1.6522,-1.6522,-1.6305,-1.5807,-1.5727,-1.5471,-1.49,-1.4811,-1.459,-1.3978,-1.3924,-1.3641,-1.3045,-1.3035,-1.2997,-1.2881,-1.2881,-1.2881,-1.2881,-1.2881,-1.2881,-1.2881,-1.2184,-1.1805,-1.1798,-1.1106,-1.0474,-2.0162,-2.1712,-2.3333,-2.5111,-2.5517,-2.5473,-2.557,-2.5601,-2.5601,-2.5601,-2.5659,-2.5703,-2.5703,-2.5703,-2.5703,-2.5703,-2.5703,-2.5703,-2.5703,-2.5703,-2.5703,-2.5703,-2.5703,-2.5703,-2.5703,-2.5703,0.0,0.0,-2.5703,-2.5703,-2.5703,-2.5703,-2.5683,-2.566,-2.5659,-2.5637,-2.5607,-2.5607,-2.5598,-2.5558,-2.5558,-2.5531,-2.5446,-2.5408,-2.5363,-2.5274,-2.4955,-2.4804,-2.4775,-2.4357,-2.3795,-2.3189,-2.3189,-2.2849,-2.2237,-2.1751,-2.1323,-2.0926,-2.0431,-2.0015,-1.969,-1.969,-1.9498,-1.9227,-1.8971,-1.8489,-1.7922,-1.7418,-1.7063,-1.682,-1.6547,-1.6522,-1.6522,-1.6522,-1.6522,-1.6522,-1.6522,-1.6522,-1.6522,-1.6522,-1.6522,-1.6522,-1.6522,-1.6522,-1.6522,-1.6522,-1.6522,-1.6386,-1.6157,-1.6093,-1.5745,-1.4787,-1.4722,-1.4338,-1.3399,-1.3272,-1.3193,-1.2939,-1.2881,-1.2705,-1.2308,-1.2656,-1.2686,-1.2283,-1.2288,-1.2288,-1.2292,-1.1202,-1.0681,-1.0648,-1.0018,-0.9541,-2.0094,-2.136,-2.2434,-2.4186,-2.4907,-2.5195,-2.5242,-2.5444,-2.5601,-2.5601,-2.5659,-2.5703,-2.5703,-2.5703,-2.5703,-2.5703,-2.5703,-2.5703,-2.5703,-2.5703,-2.5703,-2.5703,-2.5703,-2.5683,-2.5682,-2.5683,0.0,0.0,-2.5683,-2.5703,-2.5703,-2.5703,-2.5703,-2.5703,-2.5703,-2.5703,-2.5703,-2.5703,-2.5662,-2.5611,-2.5396,-2.5264,-2.52,-2.491,-2.4745,-2.4697,-2.4778,-2.4804,-2.476,-2.4284,-2.3627,-2.2905,-2.2835,-2.2356,-2.1653,-2.1073,-2.0829,-2.0639,-2.0043,-1.9782,-1.969,-1.969,-1.9417,-1.903,-1.8614,-1.804,-1.742,-1.6995,-1.6683,-1.6471,-1.633,-1.6309,-1.6254,-1.612,-1.6186,-1.6318,-1.6466,-1.6522,-1.6522,-1.6522,-1.6522,-1.6522,-1.6522,-1.6522,-1.6466,-1.6281,-1.638,-1.6343,-1.5855,-1.5948,-1.5591,-1.4361,-1.4253,-1.3872,-1.2998,-1.2881,-1.2881,-1.2881,-1.2881,-1.2665,-1.2077,-1.2414,-1.2345,-1.1822,-1.1487,-1.1469,-1.1778,-1.0449,-0.9795,-0.9794,-0.911,-0.8804,-1.7623,-1.8692,-1.9733,-2.1547,-2.3143,-2.4291,-2.4342,-2.5015,-2.5601,-2.5601,-2.5659,-2.5703,-2.5703,-2.5703,-2.5703,-2.5703,-2.5703,-2.5703,-2.5703,-2.5703,-2.5703,-2.5703,-2.5703,-2.5682,-2.5607,-2.5661,0.0,0.0,-2.5661,-2.5703,-2.5703,-2.5703,-2.5703,-2.5703,-2.5703,-2.5703,-2.5703,-2.5703,-2.5703,-2.5683,-2.4863,-2.443,-2.4327,-2.3505,-2.309,-2.3086,-2.4283,-2.4804,-2.4741,-2.4023,-2.3113,-2.2149,-2.1808,-2.1051,-2.0136,-2.0428,-2.027,-2.0003,-2.0198,-2.0035,-1.969,-1.969,-1.9675,-1.9368,-1.7852,-1.7692,-1.7735,-1.6225,-1.6114,-1.6363,-1.5891,-1.575,-1.5608,-1.508,-1.536,-1.5887,-1.6386,-1.6522,-1.6522,-1.6522,-1.6522,-1.6522,-1.6522,-1.6522,-1.6293,-1.572,-1.6139,-1.5898,-1.415,-1.4429,-1.4327,-1.3144,-1.2982,-1.2949,-1.2929,-1.2881,-1.2881,-1.2881,-1.2881,-1.2881,-1.2842,-1.222,-1.1861,-1.182,-1.0554,-1.0547,-1.1814,-1.0466,-0.9792,-0.9794,-0.911,-0.8804,-1.7441,-1.8105,-1.875,-2.0525,-2.1795,-2.2596,-2.2626,-2.3734,-2.4762,-2.4762,-2.5269,-2.5703,-2.5703,-2.5703,-2.5703,-2.5703,-2.5703,-2.5703,-2.5703,-2.5661,-2.5634,-2.5634,-2.5601,-2.5561,-2.5543,-2.5558,0.0,0.0,0.0,-2.5629,-2.5567,-2.5607,-2.5375,-2.4812,-2.479,-2.4539,-2.3976,-2.4011,-2.4036,-2.4036,-2.3769,-2.3593,-2.3512,-2.3153,-2.2984,-2.2968,-2.313,-2.3205,-2.3145,-2.2484,-2.1875,-2.1295,-2.0999,-2.0529,-1.9942,-1.9596,-1.938,-1.921,-1.8789,-1.854,-1.8404,-1.8431,-1.8197,-1.7755,-1.6895,-1.6552,-1.6257,-1.5423,-1.5325,-1.5432,-1.5234,-1.5192,-1.5158,-1.4957,-1.5293,-1.574,-1.5954,-1.625,-1.6522,-1.6522,-1.6522,-1.6522,-1.6522,-1.6522,-1.6423,-1.6194,-1.6051,-1.5684,-1.5024,-1.4812,-1.4369,-1.359,-1.347,-1.3324,-1.292,-1.2881,-1.2881,-1.2881,-1.2452,-1.1981,-1.1584,-1.1311,-1.0978,-1.053,-1.0041,-1.0064,-1.0534,-0.9582,-0.918,-0.9155,-0.889,-0.8804,-1.6713,-1.7242,-1.7805,-1.9253,-2.0258,-2.1015,-2.1601,-2.2635,-2.355,-2.3844,-2.4394,-2.4821,-2.4799,-2.4801,-2.5019,-2.5605,-2.5449,-2.5351,-2.5623,-2.5633,-2.5598,-2.5564,-2.5535,-2.5484,-2.5477,-2.5498,0.0,0.0,0.0,0.0,-2.5109,-2.4868,-2.4466,-2.3887,-2.3867,-2.3595,-2.3015,-2.3043,-2.3079,-2.3107,-2.2846,-2.2714,-2.2676,-2.2302,-2.2122,-2.209,-2.1646,-2.1777,-2.226,-2.1622,-2.1051,-2.0486,-2.0219,-1.9681,-1.9059,-1.8653,-1.8462,-1.8292,-1.7852,-1.7716,-1.7681,-1.769,-1.7466,-1.7043,-1.6407,-1.6011,-1.5634,-1.5017,-1.4889,-1.4866,-1.4664,-1.4477,-1.4393,-1.4577,-1.4891,-1.5215,-1.5367,-1.5996,-1.6456,-1.6278,-1.6379,-1.6446,-1.6262,-1.6371,-1.638,-1.5976,-1.5732,-1.5365,-1.4778,-1.4514,-1.4143,-1.3552,-1.3505,-1.3334,-1.292,-1.2666,-1.255,-1.255,-1.1882,-1.1266,-1.0813,-1.0568,-1.0261,-0.9814,-0.9562,-0.9449,-0.9468,-0.899,-0.8804,-0.8804,-0.8804,-0.8804,0.0,0.0,0.0,-1.7605,-1.8475,-1.957,-2.1264,-2.1682,-2.1979,-2.2834,-2.3027,-2.304,-2.3003,-2.3026,-2.362,-2.5331,-2.4902,-2.4647,-2.5449,-2.5562,-2.5548,-2.5493,-2.5508,-2.5477,-2.5394,0.0,0.0,0.0,-2.4674,-2.4252,-2.4267,-2.3435,-2.2952,-2.2952,-2.2933,-2.2913,-2.2913,-2.2913,-2.2958,-2.301,-2.2168,-2.1809,-2.1836,-2.0843,-2.041,-2.0379,-1.9967,-2.0732,-2.2166,-2.1496,-2.0657,-1.9735,-1.9398,-1.8454,-1.7344,-1.7649,-1.7564,-1.7309,-1.7562,-1.7644,-1.7644,-1.7644,-1.7626,-1.7445,-1.6382,-1.6165,-1.602,-1.4969,-1.4768,-1.4724,-1.4221,-1.3634,-1.3336,-1.3934,-1.4108,-1.4233,-1.4745,-1.5732,-1.6281,-1.5784,-1.614,-1.6338,-1.5802,-1.6137,-1.6064,-1.488,-1.5186,-1.4915,-1.3152,-1.342,-1.3552,-1.2968,-1.2881,-1.2881,-1.2881,-1.2187,-1.1814,-1.1765,-1.1166,-1.0762,-1.0762,-1.0115,-0.9762,-0.9762,-0.9106,-0.8804,-0.8752,-0.8804,-0.8804,-0.8804,-0.8804,-0.8804,-1.5458,0.0,0.0,0.0,0.0,0.0,-1.7801,-1.8932,-2.0135,-2.0854,-2.1491,-2.2129,-2.2746,-2.2362,-2.2332,-2.3553,-2.3587,-2.3749,-2.4549,-2.4619,-2.4808,-2.535,-2.5376,-2.5357,-2.533,0.0,0.0,0.0,-2.3734,-2.3276,-2.3226,-2.2395,-2.1912,-2.1912,-2.1352,-2.1043,-2.1043,-2.1041,-2.108,-2.1136,-2.0948,-2.089,-2.0957,-2.0567,-2.041,-2.0379,-1.9967,-2.0074,-2.0426,-1.9656,-1.917,-1.8871,-1.8402,-1.7832,-1.7288,-1.7124,-1.6843,-1.6541,-1.6379,-1.6338,-1.6323,-1.6323,-1.6323,-1.6219,-1.5574,-1.5213,-1.4872,-1.4283,-1.389,-1.3654,-1.3483,-1.3311,-1.3235,-1.3421,-1.3768,-1.4128,-1.429,-1.4878,-1.5413,-1.5661,-1.5825,-1.5989,-1.6237,-1.6028,-1.5732,-1.541,-1.4732,-1.4133,-1.36,-1.3334,-1.3113,-1.2929,-1.2881,-1.2666,-1.2129,-1.1922,-1.1616,-1.1116,-1.0466,-1.0064,-1.0064,-0.9413,-0.9061,-0.9061,-0.891,-0.8533,-0.7996,-0.8533,-0.8804,-0.8804,-0.8804,-0.8804,-1.5936,-1.5873,-1.5981,-1.6062,0.0,0.0,-1.6715,-1.7429,-1.8159,-1.8923,-1.9478,-1.9973,-2.0453,-2.0159,-2.0147,-2.1133,-2.1351,-2.1929,-2.3497,-2.3708,-2.3853,-2.4277,-2.4235,-2.4197,0.0,-2.3775,-2.3496,-2.3543,-2.2731,-2.2059,-2.1655,-2.1147,-2.0915,-2.1004,-2.0542,-2.0312,-2.0312,-2.0306,-2.032,-2.0352,-2.0429,-2.0486,-2.0544,-2.0458,-2.0398,-2.0383,-1.9973,-1.9802,-1.9736,-1.892,-1.8608,-1.8562,-1.8127,-1.7706,-1.7263,-1.6913,-1.6581,-1.6237,-1.5913,-1.5799,-1.5799,-1.5799,-1.5799,-1.5698,-1.5231,-1.4833,-1.4429,-1.401,-1.3556,-1.3198,-1.3198,-1.3047,-1.2943,-1.3163,-1.333,-1.3504,-1.3693,-1.396,-1.4347,-1.4926,-1.5381,-1.5646,-1.5504,-1.5531,-1.5443,-1.4903,-1.4272,-1.3732,-1.3467,-1.3104,-1.2774,-1.2452,-1.2452,-1.2138,-1.1466,-1.1116,-1.0813,-1.0415,-0.9762,-0.9361,-0.9361,-0.9008,-0.8804,-0.8804,-0.848,-0.799,-0.7235,-0.799,-0.8203,-0.7859,-0.7859,-0.7894,-1.6657,-1.6138,-1.592,-1.7145,-1.6349,0.0,-1.6923,-1.6674,-1.6392,-1.7175,-1.7328,-1.7333,-1.7359,-1.7423,-1.775,-1.8626,-1.8813,-1.9766,-2.2392,-2.2803,-2.2843,-2.2797,-2.27,-2.2661,-2.2784,-2.2604,-2.2527,-2.2641,-2.1713,-2.0833,-2.0069,-2.0031,-2.0115,-2.0285,-2.0312,-2.0312,-2.0312,-2.0312,-2.0299,-2.0294,-2.0357,-2.039,-2.0352,-2.0295,-2.0221,-2.0091,-1.9787,-1.9635,-1.9564,-1.888,-1.8599,-1.8574,-1.8272,-1.7803,-1.7259,-1.6918,-1.6578,-1.6243,-1.5931,-1.5799,-1.5799,-1.5799,-1.5799,-1.5728,-1.5296,-1.4853,-1.4419,-1.3963,-1.3474,-1.3129,-1.3129,-1.2756,-1.2544,-1.2943,-1.2768,-1.2615,-1.2978,-1.3129,-1.333,-1.3766,-1.4739,-1.5187,-1.4205,-1.4778,-1.5048,-1.3882,-1.369,-1.3505,-1.2978,-1.2832,-1.251,-1.1864,-1.1715,-1.1416,-1.0771,-1.0167,-0.9762,-0.971,-0.9113,-0.8804,-0.8804,-0.8804,-0.8804,-0.8804,-0.7996,-0.7235,-0.6475,-0.7235,-0.7219,-0.6592,-0.6597,-0.662,-1.7664,-1.785,-1.7975,-1.6831,-1.6772,0.0,-1.5654,-1.5779,-1.614,-1.6201,-1.6199,-1.6423,-1.7116,-1.7251,-1.7394,-1.7778,-1.7869,-1.8818,-2.1543,-2.1895,-2.2115,-2.2798,-2.2808,-2.2775,-2.2793,-2.2141,-2.1674,-2.1598,-2.0766,-2.0241,-2.0233,-2.0241,-2.0269,-2.0304,-2.0312,-2.0312,-2.0312,-2.0312,-2.0299,-2.0307,-2.0305,-2.0011,-1.9441,-1.9375,-1.9005,-1.8391,-1.8641,-1.8663,-1.8527,-1.8581,-1.861,-1.8554,-1.8069,-1.7633,-1.7244,-1.6924,-1.66,-1.6243,-1.5931,-1.5799,-1.5799,-1.5799,-1.5799,-1.5785,-1.5699,-1.5103,-1.4337,-1.3565,-1.2992,-1.2651,-1.2627,-1.2282,-1.1957,-1.2066,-1.2282,-1.2437,-1.2138,-1.2685,-1.299,-1.2376,-1.3411,-1.4325,-1.4129,-1.4178,-1.4016,-1.3348,-1.3138,-1.3017,-1.2929,-1.2393,-1.1972,-1.1814,-1.1316,-1.0712,-1.0064,-0.9865,-0.9562,-0.9008,-0.8857,-0.8804,-0.8804,-0.8804,-0.8804,-0.8804,-0.7509,-0.6475,-0.5706,-0.6475,-0.673,-0.6592,-0.6622,-0.6578,-1.8588,-1.835,-1.8217,-1.7603,-1.7112,0.0,0.0,-1.5301,-1.5391,-1.572,-1.5487,-1.5351,-1.5781,-1.5923,-1.6022,-1.621,-1.6648,-1.7605,-1.9495,-2.0137,-2.0694,-2.1517,-2.1533,0.0,-2.1551,-2.11,-2.0725,-2.0568,-2.0158,-1.9933,-2.006,-2.0097,-2.0197,-2.0304,-2.0312,-2.0312,-2.0312,-1.9869,-1.9661,-1.965,-1.9275,-1.891,-1.8542,-1.8521,-1.8239,-1.7803,-1.7863,-1.7823,-1.7732,-1.7927,-1.7986,-1.7991,-1.7845,-1.7698,-1.7496,-1.6976,-1.6686,-1.6466,-1.5961,-1.5799,-1.5799,-1.5799,-1.5651,-1.5402,-1.5197,-1.4537,-1.3749,-1.3317,-1.285,-1.2484,-1.2508,-1.1945,-1.1468,-1.1737,-1.1774,-1.1763,-1.1774,-1.2174,-1.2354,-1.1884,-1.2408,-1.2932,-1.2918,-1.3255,-1.3309,-1.2736,-1.2778,-1.2774,-1.2393,-1.203,-1.1566,-1.0864,-1.0517,-1.0012,-0.9361,-0.9309,-0.9159,-0.8804,-0.8804,-0.8804,-0.8804,-0.8804,-0.848,-0.7723,-0.6632,-0.571,-0.5003,-0.5386,-0.5546,-0.5534,-0.5546,-0.5559,-1.9434,-1.8708,-1.8187,-1.8355,-1.7471,-1.6363,0.0,0.0,0.0,-1.5362,-1.4958,-1.4499,-1.4533,0.0,0.0,-1.4663,0.0,0.0,0.0,-1.7862,0.0,-1.9708,-1.9765,0.0,-1.9822,-1.9523,-1.9407,-1.9593,-1.9262,-1.9213,-1.959,-1.9706,-1.9934,-2.0285,-2.0312,-2.0215,-2.0042,-1.935,-1.8912,-1.8743,-1.8161,-1.7794,-1.7644,-1.7633,-1.7461,-1.7195,-1.7112,-1.6959,-1.6841,-1.7075,-1.7114,-1.711,-1.7592,-1.776,-1.7599,-1.6898,-1.6649,-1.66,-1.5857,-1.5681,-1.5799,-1.5799,-1.5476,-1.5023,-1.454,-1.3906,-1.331,-1.3129,-1.2745,-1.2341,-1.2246,-1.1531,-1.0981,-1.1404,-1.1244,-1.1094,-1.1442,-1.1664,-1.1737,-1.1553,-1.159,-1.1636,-1.1551,-1.2268,-1.2593,-1.1918,-1.2224,-1.2338,-1.1608,-1.1472,-1.1015,-0.9917,-0.9666,-0.9361,-0.8857,-0.8804,-0.8804,-0.8804,-0.8804,-0.8804,-0.8804,-0.8646,-0.7883,-0.6421,-0.5814,-0.5164,-0.4519,-0.4519,-0.4519,-0.4519,-0.4519,-0.4519,-2.0177,-1.995,-1.9411,0.0,-1.7924,-1.7545,0.0,0.0,-1.538,-1.4756,0.0,-1.4533,-1.4656,0.0,0.0,0.0,0.0,0.0,-1.433,-1.516,-1.6336,-1.7891,-1.8079,0.0,0.0,-1.7214,-1.727,-1.8791,-1.7319,-1.71,-1.882,-1.8943,-1.9358,-2.0265,-2.0312,-1.9927,-1.9165,-1.9058,-1.8616,-1.785,-1.7824,-1.7437,-1.6758,-1.6689,-1.6191,-1.5427,-1.5989,-1.5933,-1.5472,-1.6152,-1.6181,-1.5944,-1.7289,-1.7612,-1.7246,-1.6275,-1.6098,-1.6228,-1.5256,-1.5314,-1.5799,-1.5799,-1.5477,-1.4961,-1.4186,-1.3881,-1.367,-1.2803,-1.2219,-1.1764,-1.1303,-1.0802,-1.039,-1.0477,-1.0725,-1.0905,-1.0544,-1.118,-1.1553,-1.0659,-1.0802,-1.1105,-1.1082,-1.1523,-1.1491,-1.0498,-1.0922,-1.1214,-1.0632,-1.0224,-0.9969,-0.9814,-0.9263,-0.8857,-0.8811,-0.8804,-0.8804,-0.8804,-0.8804,-0.8804,-0.8804,-0.8174,-0.7139,-0.5651,-0.5542,-0.5164,-0.4519,-0.4519,-0.4519,-0.4519,-0.4519,-0.4519,-2.0258,0.0,0.0,0.0,0.0,0.0,-1.5658,0.0,-1.505,0.0,0.0,0.0,0.0,0.0,0.0,0.0,-1.3488,0.0,0.0,0.0,-1.4642,0.0,0.0,0.0,0.0,0.0,0.0,0.0,-1.6763,-1.6582,-1.7852,-1.8049,-1.8316,-1.8773,-1.8792,-1.8619,-1.8261,-1.7785,-1.7374,-1.6997,-1.6561,-1.6164,-1.584,-1.5812,-1.5499,-1.4998,-1.5281,-1.5109,-1.4671,-1.5297,-1.5395,-1.5206,-1.5993,-1.6219,-1.5998,-1.5206,-1.5018,-1.5108,-1.4875,-1.4975,-1.5198,-1.5062,-1.4739,-1.4279,-1.3668,-1.3304,-1.301,-1.2603,-1.1929,-1.1287,-1.1062,-1.0657,-1.0283,-1.0283,-1.0467,-1.0544,-1.0361,-1.0621,-1.0802,-1.04,-1.0225,-1.0128,-1.0128,-1.0725,-1.0981,-1.0224,-1.0732,-1.0859,-0.9955,-0.9438,-0.9176,-0.9204,-0.858,-0.8321,-0.8752,-0.8804,-0.8804,-0.8804,-0.8804,-0.8606,-0.8152,-0.7478,-0.6588,-0.5542,-0.5109,-0.4787,-0.4519,-0.4519,-0.4519,-0.4519,-0.4519,-0.4519,-2.0124,0.0,0.0,0.0,0.0,0.0,0.0,0.0,0.0,0.0,0.0,0.0,0.0,0.0,-1.4422,-1.3033,0.0,-1.3287,0.0,-1.2409,0.0,0.0,0.0,0.0,0.0,0.0,0.0,0.0,0.0,-1.5612,-1.6962,-1.712,-1.7355,-1.7696,-1.7696,-1.7593,-1.7369,-1.6785,-1.6394,-1.6168,-1.5586,-1.5298,-1.5303,-1.5299,-1.516,-1.4896,-1.4905,-1.4591,-1.415,-1.4533,-1.4537,-1.4314,-1.4435,-1.4431,-1.4345,-1.4115,-1.4093,-1.4166,-1.4227,-1.4414,-1.4587,-1.4394,-1.4139,-1.3822,-1.3339,-1.2955,-1.2639,-1.2389,-1.1766,-1.1153,-1.0881,-1.0542,-1.0283,-1.0283,-1.0283,-1.0283,-1.0283,-1.0283,-1.0283,-1.0283,-0.9883,-0.9518,-0.9518,-0.9956,-1.0146,-0.9657,-1.014,-1.0169,-0.9222,-0.8892,-0.8764,-0.8804,-0.8321,-0.8209,-0.8752,-0.8804,-0.8692,-0.8508,-0.8513,-0.8051,-0.7112,-0.6608,-0.5941,-0.5218,-0.4732,-0.4519,-0.4519,-0.4519,-0.4519,-0.4519,-0.4519,-0.4519,0.0,0.0,0.0,-1.7639,0.0,0.0,0.0,0.0,-1.5674,0.0,0.0,0.0,0.0,-1.5894,-1.4581,-1.3957,-1.3228,0.0,0.0,0.0,0.0,0.0,0.0,0.0,0.0,0.0,0.0,0.0,0.0,0.0,-1.6181,-1.6221,-1.6633,-1.7676,-1.7694,-1.7322,-1.6548,-1.6516,-1.611,-1.5342,-1.5304,-1.5301,-1.5293,-1.5302,-1.5149,-1.4896,-1.4905,-1.4517,-1.3907,-1.3935,-1.3599,-1.3025,-1.2774,-1.2523,-1.2368,-1.3084,-1.3544,-1.372,-1.31,-1.3432,-1.4084,-1.3947,-1.3901,-1.3815,-1.3323,-1.3198,-1.2988,-1.2059,-1.181,-1.1545,-1.0591,-1.0322,-1.0283,-1.0283,-1.0283,-1.0283,-1.0283,-1.0283,-1.0283,-1.0283,-0.9883,-0.9518,-0.9518,-0.9088,-0.8692,-0.8391,-0.8595,-0.8692,-0.8486,-0.8624,-0.8804,-0.8804,-0.8758,-0.8752,-0.8804,-0.8804,-0.8508,-0.7799,-0.7726,-0.7083,-0.5617,-0.5567,-0.5203,-0.4574,-0.4519,-0.4519,-0.4519,-0.4519,-0.4519,-0.4519,-0.4519,-0.4519,0.0,0.0,-1.9308,-1.8093,0.0,0.0,0.0,0.0,0.0,0.0,0.0,0.0,0.0,-1.5179,-1.4646,-1.3952,-1.3637,-1.3031,0.0,0.0,0.0,0.0,0.0,-1.4406,0.0,0.0,0.0,0.0,-1.3272,0.0,0.0,-1.5429,-1.5608,-1.6093,-1.6112,-1.5978,-1.5708,-1.5713,-1.5564,-1.5307,-1.5331,-1.5348,-1.5304,-1.5206,-1.5074,-1.4892,-1.4677,-1.4299,-1.3877,-1.3598,-1.3295,-1.2958,-1.2511,-1.2283,-1.2219,-1.2264,-1.238,-1.2485,-1.2476,-1.2635,-1.2823,-1.2774,-1.2842,-1.2831,-1.2369,-1.22,-1.2079,-1.1453,-1.0992,-1.0677,-1.0396,-1.0283,-1.0283,-1.0283,-1.0283,-1.0283,-1.0283,-1.0283,-1.0283,-1.0283,-0.9597,-0.8958,-0.8958,-0.8177,-0.7685,-0.7978,-0.8268,-0.8294,-0.7848,-0.763,-0.7654,-0.8174,-0.7759,-0.7548,-0.7666,-0.7289,-0.6989,-0.6871,-0.6824,-0.6436,-0.5559,-0.55,-0.5167,-0.4519,-0.4519,-0.4519,-0.4519,-0.4519,-0.4519,-0.4519,-0.4519,-0.4519,-1.9569,-1.9541,0.0,-1.8426,-1.7753,0.0,-1.5949,0.0,-1.5979,0.0,0.0,0.0,0.0,-1.5866,-1.5096,-1.4405,-1.3835,-1.2896,0.0,-1.1332,0.0,0.0,0.0,-1.3407,-1.2825,-1.2471,-1.2629,-1.3418,-1.287,0.0,0.0,0.0,-1.5087,-1.5285,-1.5303,-1.5289,-1.5289,-1.5295,-1.531,-1.5348,-1.5356,-1.5332,-1.5291,-1.5168,-1.503,-1.4881,-1.4539,-1.4203,-1.3872,-1.3473,-1.3123,-1.2813,-1.236,-1.213,-1.2011,-1.1738,-1.1548,-1.1527,-1.1804,-1.1873,-1.1857,-1.1948,-1.2058,-1.2052,-1.1753,-1.1644,-1.1607,-1.132,-1.1018,-1.0705,-1.057,-1.0537,-1.0488,-1.0332,-1.0283,-1.0283,-1.0283,-1.0157,-1.0,-1.0,-0.9159,-0.8398,-0.8398,-0.7482,-0.6934,-0.7638,-0.7918,-0.7912,-0.7661,-0.7361,-0.7379,-0.7834,-0.7481,-0.7182,-0.7098,-0.6541,-0.6122,-0.5996,-0.5992,-0.5752,-0.5187,-0.5167,-0.4941,-0.4519,-0.4519,-0.4519,-0.4519,-0.4519,-0.4522,-0.4473,-0.4473,-0.4477]},{"header":{"parameterUnit":"m.s-1","parameterCategory":1,"la1":30.6,"la2":29.2853,"lo1":-89.7004,"lo2":-87.6739,"dy":0.0162,"dx":0.0183,"nx":112,"ny":82,"refTime":"2024-05-27T12:00:00:Z","depth":0,"parameterNumber":3,"parameterNumberName":"V-component_of_WINDS"},"data":[0.0,0.0,0.0,0.0,0.0,0.0,0.0,0.0,0.0,0.0,0.0,0.0,0.0,0.0,0.0,0.0,0.0,0.0,0.0,0.0,0.0,0.0,0.0,0.0,0.0,0.0,0.0,0.0,0.0,0.0,0.0,0.0,0.0,0.0,0.0,0.0,0.0,0.0,0.0,0.0,0.0,0.0,0.0,0.0,0.0,0.0,0.0,0.0,0.0,0.0,0.0,0.0,0.0,0.0,0.0,0.0,0.0,0.0,0.0,0.0,0.0,0.0,0.0,0.0,0.0,0.0,0.0,0.0,0.0,0.0,0.0,0.0,0.0,0.0,0.0,0.0,0.0,0.0,0.0,0.0,0.0,0.0,0.0,0.0,0.0,0.0,0.0,0.0,0.0,0.0,-1.88,-2.1111,-2.1571,-2.1027,-1.9405,-1.8056,-1.6611,-1.5003,0.0,0.0,0.0,0.0,0.0,0.0,0.0,0.0,0.0,0.0,0.0,0.0,0.0,0.0,0.0,0.0,0.0,0.0,0.0,0.0,0.0,0.0,0.0,0.0,0.0,0.0,0.0,0.0,0.0,0.0,0.0,0.0,0.0,0.0,0.0,0.0,0.0,0.0,0.0,0.0,0.0,0.0,0.0,0.0,0.0,0.0,0.0,0.0,0.0,0.0,0.0,0.0,0.0,0.0,0.0,0.0,0.0,0.0,0.0,0.0,0.0,0.0,0.0,0.0,0.0,0.0,0.0,0.0,0.0,0.0,0.0,0.0,0.0,0.0,0.0,0.0,0.0,0.0,0.0,0.0,0.0,0.0,0.0,0.0,0.0,0.0,0.0,0.0,0.0,0.0,0.0,0.0,0.0,0.0,0.0,0.0,0.0,0.0,0.0,0.0,0.0,0.0,0.0,0.0,-1.9653,-2.1461,-2.1669,-2.1213,-2.0039,-1.8338,-1.6611,-1.5003,0.0,0.0,0.0,0.0,0.0,0.0,0.0,0.0,0.0,0.0,0.0,0.0,0.0,0.0,0.0,0.0,0.0,0.0,0.0,0.0,0.0,0.0,0.0,0.0,0.0,0.0,0.0,0.0,0.0,0.0,0.0,0.0,0.0,0.0,0.0,0.0,0.0,0.0,0.0,0.0,0.0,0.0,0.0,0.0,0.0,0.0,0.0,0.0,0.0,0.0,0.0,0.0,0.0,0.0,0.0,0.0,0.0,0.0,0.0,0.0,0.0,0.0,0.0,0.0,0.0,0.0,0.0,0.0,0.0,0.0,0.0,0.0,0.0,0.0,0.0,0.0,0.0,0.0,0.0,0.0,0.0,0.0,0.0,0.0,0.0,0.0,0.0,0.0,0.0,0.0,0.0,0.0,0.0,0.0,0.0,0.0,0.0,0.0,0.0,0.0,0.0,0.0,0.0,-1.9362,-2.0548,-2.1087,-2.149,-2.1134,-1.9673,-1.815,-1.6611,-1.5003,-1.3877,0.0,0.0,0.0,0.0,0.0,0.0,0.0,0.0,0.0,0.0,0.0,0.0,0.0,0.0,0.0,0.0,0.0,0.0,0.0,0.0,0.0,0.0,0.0,0.0,0.0,0.0,0.0,0.0,0.0,0.0,0.0,0.0,0.0,0.0,0.0,0.0,0.0,0.0,0.0,0.0,0.0,0.0,0.0,0.0,0.0,0.0,0.0,0.0,0.0,0.0,0.0,0.0,0.0,0.0,0.0,0.0,0.0,0.0,0.0,0.0,0.0,0.0,0.0,0.0,0.0,0.0,0.0,0.0,0.0,0.0,0.0,0.0,0.0,0.0,0.0,0.0,0.0,0.0,0.0,0.0,0.0,0.0,0.0,0.0,0.0,0.0,0.0,0.0,0.0,0.0,0.0,0.0,0.0,0.0,0.0,0.0,0.0,0.0,0.0,0.0,0.0,0.0,-2.0259,-2.1212,-2.0748,-2.1296,-2.098,-1.9269,-1.8003,-1.6626,-1.5003,-1.3588,0.0,0.0,0.0,0.0,0.0,0.0,0.0,0.0,0.0,0.0,0.0,0.0,0.0,0.0,0.0,0.0,0.0,0.0,0.0,0.0,0.0,0.0,0.0,0.0,0.0,0.0,0.0,0.0,0.0,0.0,0.0,0.0,0.0,0.0,0.0,0.0,0.0,0.0,0.0,0.0,0.0,0.0,0.0,0.0,0.0,0.0,0.0,0.0,0.0,0.0,0.0,0.0,0.0,0.0,0.0,0.0,0.0,0.0,0.0,0.0,0.0,0.0,0.0,0.0,0.0,0.0,0.0,0.0,0.0,0.0,0.0,0.0,0.0,0.0,0.0,0.0,0.0,0.0,0.0,0.0,0.0,0.0,0.0,0.0,0.0,0.0,0.0,0.0,0.0,0.0,0.0,0.0,0.0,0.0,0.0,0.0,0.0,0.0,0.0,0.0,0.0,0.0,-2.033,-2.1406,-2.0765,-2.1296,-2.098,-1.9269,-1.8054,-1.6697,-1.5016,-1.3642,0.0,0.0,0.0,0.0,0.0,0.0,0.0,0.0,0.0,0.0,0.0,0.0,0.0,0.0,0.0,0.0,0.0,0.0,0.0,0.0,0.0,0.0,0.0,0.0,0.0,0.0,0.0,0.0,0.0,0.0,0.0,0.0,0.0,0.0,0.0,0.0,0.0,0.0,0.0,0.0,0.0,0.0,0.0,0.0,0.0,0.0,0.0,0.0,0.0,0.0,0.0,0.0,0.0,0.0,0.0,0.0,0.0,0.0,0.0,0.0,0.0,0.0,0.0,0.0,0.0,0.0,0.0,0.0,0.0,0.0,0.0,0.0,0.0,0.0,0.0,0.0,0.0,0.0,0.0,0.0,0.0,0.0,0.0,0.0,0.0,0.0,0.0,0.0,0.0,0.0,0.0,0.0,0.0,0.0,0.0,0.0,0.0,0.0,0.0,0.0,0.0,0.0,-1.9801,-2.0966,-2.0736,-2.1682,-2.1471,-1.9256,-1.8721,-1.754,-1.5401,0.0,0.0,0.0,0.0,0.0,0.0,0.0,0.0,0.0,0.0,0.0,0.0,0.0,0.0,0.0,0.0,0.0,0.0,0.0,0.0,0.0,0.0,0.0,0.0,0.0,0.0,0.0,0.0,0.0,0.0,0.0,0.0,0.0,0.0,0.0,0.0,0.0,0.0,0.0,0.0,0.0,0.0,0.0,0.0,0.0,0.0,0.0,0.0,0.0,0.0,0.0,0.0,0.0,0.0,0.0,0.0,0.0,0.0,0.0,0.0,0.0,0.0,0.0,0.0,0.0,0.0,0.0,0.0,0.0,0.0,0.0,0.0,0.0,0.0,0.0,0.0,0.0,0.0,0.0,0.0,0.0,0.0,0.0,0.0,0.0,0.0,0.0,0.0,0.0,0.0,0.0,0.0,0.0,0.0,0.0,0.0,0.0,0.0,0.0,0.0,0.0,0.0,-1.7535,-1.966,-2.0937,-2.0721,-2.17,-2.1546,-1.9512,-1.8993,-1.7825,-1.5585,0.0,0.0,0.0,0.0,0.0,0.0,0.0,0.0,0.0,0.0,0.0,0.0,0.0,0.0,0.0,0.0,0.0,0.0,0.0,0.0,0.0,0.0,0.0,0.0,0.0,0.0,0.0,0.0,0.0,0.0,0.0,0.0,0.0,0.0,0.0,0.0,0.0,0.0,0.0,0.0,0.0,0.0,0.0,0.0,0.0,0.0,0.0,0.0,0.0,0.0,0.0,0.0,0.0,0.0,0.0,0.0,0.0,0.0,0.0,0.0,0.0,0.0,0.0,0.0,0.0,0.0,0.0,0.0,0.0,0.0,0.0,0.0,0.0,0.0,0.0,0.0,0.0,0.0,0.0,0.0,0.0,0.0,0.0,0.0,0.0,0.0,0.0,0.0,0.0,0.0,0.0,0.0,0.0,0.0,0.0,0.0,0.0,0.0,0.0,0.0,0.0,0.0,-1.755,-2.0049,-2.1465,-2.0765,-2.1312,-2.1225,-1.9986,-1.8796,-1.7308,0.0,0.0,0.0,0.0,0.0,0.0,0.0,0.0,0.0,0.0,0.0,0.0,0.0,0.0,0.0,0.0,0.0,0.0,0.0,0.0,0.0,0.0,0.0,0.0,0.0,0.0,0.0,0.0,0.0,0.0,0.0,0.0,0.0,0.0,0.0,0.0,0.0,0.0,0.0,0.0,0.0,0.0,0.0,0.0,0.0,0.0,0.0,0.0,0.0,0.0,0.0,0.0,0.0,0.0,0.0,0.0,0.0,0.0,0.0,0.0,0.0,0.0,0.0,0.0,0.0,0.0,0.0,0.0,0.0,0.0,0.0,0.0,0.0,0.0,0.0,0.0,0.0,0.0,0.0,0.0,0.0,0.0,0.0,0.0,0.0,0.0,0.0,0.0,0.0,0.0,0.0,0.0,0.0,0.0,0.0,0.0,0.0,0.0,0.0,0.0,0.0,0.0,0.0,-1.755,-2.0049,-2.1421,-2.0789,-2.1736,-2.172,-2.0028,-1.9561,-1.8536,-1.6542,0.0,0.0,0.0,0.0,0.0,0.0,0.0,0.0,0.0,0.0,0.0,0.0,0.0,0.0,0.0,0.0,0.0,0.0,0.0,0.0,0.0,0.0,0.0,0.0,0.0,0.0,0.0,0.0,0.0,0.0,0.0,0.0,0.0,0.0,0.0,0.0,0.0,0.0,0.0,0.0,0.0,0.0,0.0,0.0,0.0,0.0,0.0,0.0,0.0,0.0,0.0,0.0,0.0,0.0,0.0,0.0,0.0,0.0,0.0,0.0,0.0,0.0,0.0,0.0,0.0,0.0,0.0,0.0,0.0,0.0,0.0,0.0,0.0,0.0,0.0,0.0,0.0,0.0,0.0,0.0,0.0,0.0,0.0,0.0,0.0,0.0,0.0,0.0,0.0,0.0,0.0,0.0,0.0,0.0,0.0,0.0,0.0,0.0,0.0,0.0,0.0,0.0,-1.755,-1.9824,-2.1156,-2.0752,-2.1425,-2.1441,-2.0328,-1.9967,-1.895,-1.6943,0.0,0.0,0.0,0.0,0.0,0.0,0.0,0.0,0.0,0.0,0.0,0.0,0.0,0.0,0.0,0.0,0.0,0.0,0.0,0.0,0.0,0.0,0.0,0.0,0.0,0.0,0.0,0.0,0.0,0.0,0.0,0.0,0.0,0.0,0.0,0.0,0.0,0.0,0.0,0.0,0.0,0.0,0.0,0.0,0.0,0.0,0.0,0.0,0.0,0.0,0.0,0.0,0.0,0.0,0.0,0.0,0.0,0.0,0.0,0.0,0.0,0.0,0.0,0.0,0.0,0.0,0.0,0.0,0.0,0.0,0.0,0.0,0.0,0.0,0.0,0.0,0.0,0.0,0.0,0.0,0.0,0.0,0.0,0.0,0.0,0.0,0.0,0.0,0.0,0.0,0.0,0.0,0.0,0.0,0.0,0.0,0.0,0.0,0.0,0.0,0.0,0.0,-1.755,-1.948,-2.0692,-2.0617,-2.0677,-2.0692,-2.0617,-2.0049,-1.8897,-1.701,0.0,0.0,0.0,0.0,0.0,0.0,0.0,0.0,0.0,0.0,0.0,0.0,0.0,0.0,0.0,0.0,0.0,0.0,0.0,0.0,0.0,0.0,0.0,0.0,0.0,0.0,0.0,0.0,0.0,0.0,0.0,0.0,0.0,0.0,0.0,0.0,0.0,0.0,0.0,0.0,0.0,0.0,0.0,0.0,0.0,0.0,0.0,0.0,0.0,0.0,0.0,0.0,0.0,0.0,0.0,0.0,0.0,0.0,0.0,0.0,-1.0211,0.0,0.0,0.0,0.0,0.0,0.0,0.0,0.0,0.0,0.0,0.0,0.0,0.0,0.0,0.0,0.0,0.0,0.0,0.0,0.0,0.0,0.0,0.0,0.0,0.0,0.0,0.0,0.0,0.0,0.0,0.0,0.0,0.0,0.0,0.0,0.0,0.0,0.0,0.0,0.0,0.0,-1.755,-1.948,-2.0513,-1.9959,-2.0393,-2.0498,-1.9944,-1.9765,-1.9286,-1.8343,-1.716,0.0,0.0,0.0,0.0,0.0,0.0,0.0,0.0,0.0,0.0,0.0,0.0,0.0,0.0,0.0,0.0,0.0,0.0,0.0,0.0,0.0,0.0,0.0,0.0,0.0,0.0,0.0,0.0,0.0,0.0,0.0,0.0,0.0,0.0,0.0,0.0,0.0,0.0,0.0,0.0,0.0,0.0,0.0,0.0,0.0,0.0,0.0,0.0,0.0,0.0,0.0,0.0,0.0,0.0,0.0,0.0,0.0,0.0,0.0,0.0,-1.1073,0.0,0.0,0.0,0.0,0.0,0.0,0.0,0.0,0.0,0.0,0.0,0.0,0.0,0.0,0.0,0.0,0.0,0.0,0.0,0.0,0.0,0.0,0.0,0.0,0.0,0.0,0.0,0.0,0.0,0.0,0.0,0.0,0.0,0.0,0.0,0.0,0.0,0.0,0.0,0.0,-1.7984,-1.9375,-2.0094,-1.972,-2.0004,-2.0079,-1.972,-1.969,-1.9405,-1.8747,-1.7727,0.0,0.0,0.0,0.0,0.0,0.0,0.0,0.0,0.0,0.0,0.0,0.0,0.0,0.0,0.0,0.0,0.0,0.0,0.0,0.0,0.0,0.0,0.0,0.0,0.0,0.0,0.0,0.0,0.0,0.0,0.0,0.0,0.0,0.0,0.0,0.0,0.0,0.0,0.0,0.0,0.0,0.0,0.0,0.0,0.0,0.0,0.0,0.0,0.0,0.0,0.0,0.0,0.0,-1.4011,-1.3287,-1.3121,-1.3266,-1.3266,-1.3057,-1.2407,-1.2178,-1.2299,-1.1963,0.0,0.0,0.0,0.0,0.0,0.0,0.0,0.0,0.0,0.0,0.0,0.0,0.0,0.0,0.0,0.0,0.0,0.0,0.0,0.0,0.0,0.0,0.0,0.0,-2.0079,-2.0139,0.0,0.0,0.0,0.0,0.0,0.0,0.0,0.0,0.0,0.0,0.0,0.0,-1.8478,-1.9286,-1.969,-1.969,-1.969,-1.969,-1.969,-1.969,-1.945,-1.8912,-1.8268,-1.7161,0.0,0.0,0.0,0.0,0.0,0.0,0.0,0.0,0.0,0.0,0.0,0.0,0.0,0.0,0.0,0.0,0.0,0.0,0.0,0.0,0.0,0.0,0.0,0.0,0.0,0.0,0.0,0.0,0.0,0.0,0.0,0.0,-0.5908,-0.5934,0.0,0.0,0.0,0.0,0.0,0.0,0.0,0.0,0.0,0.0,0.0,0.0,0.0,-1.5448,-1.7335,-1.6352,-1.5695,-1.5381,-1.5206,-1.4666,-1.396,-1.4707,-1.4687,-1.3941,-1.4135,0.0,-1.2783,-1.2745,0.0,0.0,0.0,0.0,0.0,0.0,0.0,0.0,0.0,0.0,0.0,0.0,0.0,0.0,0.0,0.0,0.0,0.0,0.0,0.0,0.0,0.0,-2.0692,-2.1186,-2.144,-2.144,0.0,-1.9091,-1.7219,-1.6381,-1.5802,0.0,0.0,0.0,0.0,0.0,0.0,0.0,-1.8597,-1.9286,-1.969,-1.969,-1.969,-1.969,-1.969,-1.969,-1.9645,-1.9555,-1.8942,-1.8463,-1.8194,-1.7055,0.0,0.0,0.0,0.0,0.0,0.0,0.0,0.0,0.0,0.0,0.0,0.0,0.0,0.0,0.0,0.0,0.0,0.0,0.0,0.0,0.0,0.0,0.0,0.0,0.0,0.0,0.0,0.0,0.0,-0.5387,-0.6678,-0.7278,-0.7516,-0.7637,0.0,0.0,0.0,0.0,0.0,0.0,0.0,0.0,0.0,-1.4172,-1.5953,-1.7251,-1.7986,-1.7478,-1.7134,-1.6859,-1.5856,-1.5685,-1.6287,-1.6688,-1.6128,-1.4876,-1.5498,-1.4935,-1.3563,-1.3555,-1.3193,-1.2578,0.0,0.0,0.0,0.0,-1.3463,-1.4364,-1.4803,-1.5018,0.0,-1.5026,0.0,0.0,0.0,0.0,0.0,0.0,0.0,0.0,0.0,0.0,-2.1889,-2.2173,-2.2517,-2.2667,-2.2323,-2.1335,-2.0094,0.0,-1.7864,-1.7176,-1.6443,0.0,0.0,0.0,0.0,-1.8089,-1.9121,-1.951,-1.969,-1.969,-1.969,-1.969,-1.969,-1.969,-1.969,-1.969,-1.9405,-1.9091,-1.8717,-1.8149,-1.7166,0.0,0.0,0.0,0.0,0.0,0.0,0.0,0.0,0.0,0.0,0.0,0.0,0.0,0.0,0.0,0.0,0.0,0.0,0.0,0.0,0.0,0.0,0.0,0.0,0.0,0.0,0.0,0.0,-0.6637,-0.7523,-0.8146,-0.8514,-0.8651,0.0,0.0,0.0,0.0,0.0,0.0,-0.9683,-0.9021,-1.0808,-1.5566,-1.6746,-1.752,-1.7998,-1.7851,-1.7856,-1.7951,-1.6661,-1.6725,-1.8025,-1.8012,-1.7299,-1.6079,-1.6263,-1.5894,-1.5064,-1.4609,-1.3975,-1.3332,-1.3143,-1.311,-1.3239,-1.3704,-1.4609,-1.5612,-1.6098,-1.6569,-1.6861,-1.6308,0.0,-1.5867,-1.5551,0.0,0.0,0.0,0.0,-1.9985,-2.0959,-2.1934,-2.2753,-2.2877,-2.3266,-2.3475,-2.3011,-2.2787,-2.2229,0.0,-1.9809,-1.9166,-1.8145,0.0,0.0,0.0,0.0,-1.8583,-1.9555,-1.969,-1.969,-1.969,-1.969,-1.969,-1.969,-1.969,-1.969,-1.969,-1.969,-1.9465,-1.8972,-1.8957,-1.8296,-1.6918,0.0,0.0,0.0,0.0,0.0,0.0,0.0,0.0,0.0,0.0,0.0,0.0,0.0,0.0,0.0,0.0,0.0,0.0,0.0,0.0,0.0,0.0,0.0,0.0,0.0,0.0,0.0,0.0,0.0,-0.7871,-0.8875,0.0,0.0,0.0,0.0,-0.9619,-0.9873,-1.0714,-1.2227,-1.1164,-1.238,-1.6481,-1.5841,-1.6252,-1.8006,-1.7419,-1.7429,-1.7981,-1.7891,-1.7939,-1.7981,-1.8019,-1.7941,-1.781,-1.6151,-1.6382,-1.7705,-1.5994,-1.5005,-1.4447,-1.3874,-1.4195,-1.5049,-1.5763,-1.6463,-1.7098,-1.7795,-1.8069,-1.8028,-1.7476,-1.6905,-1.6533,-1.7022,-1.7981,0.0,0.0,-2.0283,-2.1754,-2.2413,-2.2664,-2.2817,-2.3415,-2.358,-2.3595,-2.3565,-2.3086,-2.2499,0.0,-2.156,-2.153,-2.1455,0.0,-2.0528,-2.0557,-2.0004,-1.9615,-1.9675,-1.969,-1.969,-1.969,-1.969,-1.969,-1.969,-1.969,-1.969,-1.969,-1.969,-1.9675,-1.963,-1.963,-1.9461,-1.9054,-1.7968,0.0,0.0,0.0,0.0,0.0,0.0,0.0,0.0,0.0,0.0,0.0,0.0,0.0,0.0,0.0,0.0,0.0,0.0,0.0,0.0,0.0,0.0,0.0,0.0,0.0,0.0,0.0,0.0,-0.9298,-0.9656,0.0,-0.9933,-1.0127,-1.0327,-1.0514,-1.0621,-1.1002,-1.1765,-1.2277,-1.2795,-1.349,-1.4171,-1.4892,-1.5523,-1.6129,-1.7001,-1.7996,-1.7961,-1.6684,-1.4425,-1.6899,-1.8018,-1.7905,-1.6169,-1.576,-1.6393,-1.6837,-1.6305,-1.5074,-1.4859,-1.4817,-1.4894,-1.5727,-1.6493,-1.7206,-1.7941,-1.8204,-1.8213,-1.8369,-1.8574,-1.8837,-1.9322,-2.0076,-2.0783,-2.0783,-2.154,-2.2383,-2.2664,-2.2981,-2.3325,-2.355,-2.3595,-2.3595,-2.3595,-2.343,-2.3206,-2.2966,-2.2263,-2.1695,-2.1695,-2.15,-2.1335,-2.1335,-2.1141,-2.0976,-2.0976,-2.0602,-2.0348,-2.0348,-1.9944,-1.969,-1.969,-1.969,-1.969,-1.969,-1.969,-1.969,-1.969,-1.969,-1.9446,-1.8906,-1.8094,-1.6663,0.0,0.0,0.0,0.0,0.0,0.0,0.0,0.0,0.0,0.0,0.0,0.0,0.0,0.0,0.0,0.0,0.0,0.0,0.0,0.0,0.0,0.0,0.0,0.0,0.0,-0.9143,-0.9836,-0.9926,-1.0312,-1.0601,-1.0766,-1.0866,-1.1048,-1.1269,-1.1289,-1.1546,-1.2116,-1.2815,-1.3083,-1.2909,-1.3615,-1.4315,-1.4814,-1.5497,-1.6555,-1.801,-1.6723,-1.4712,-1.2395,-1.4887,-1.6079,-1.6005,-1.4861,-1.5111,-1.6367,-1.7536,-1.6961,-1.5382,-1.5382,-1.5179,-1.4962,-1.5542,-1.6413,-1.7428,-1.8425,-1.8729,-1.8798,-1.9162,-1.9416,-1.9724,-2.0512,-2.1167,-2.1765,-2.1983,-2.2488,-2.2981,-2.2981,-2.3295,-2.3595,-2.3595,-2.3595,-2.3595,-2.3595,-2.3595,-2.3595,-2.3595,-2.2921,-2.2338,-2.2338,-2.2158,-2.2024,-2.2024,-2.1844,-2.1695,-2.1695,-2.1111,-2.0722,-2.0722,-2.0094,-1.969,-1.969,-1.969,-1.969,-1.969,-1.969,-1.969,-1.969,-1.969,-1.948,-1.9046,-1.8412,-1.7257,-1.5531,0.0,0.0,0.0,0.0,0.0,0.0,0.0,0.0,0.0,0.0,0.0,0.0,0.0,0.0,0.0,0.0,0.0,0.0,0.0,0.0,0.0,0.0,0.0,-0.8284,-0.9472,-0.9963,-0.9788,-1.0706,-1.1336,-1.1149,-1.1458,-1.1756,-1.1884,-1.1897,-1.2449,-1.3608,-1.282,-1.3164,-1.5037,-1.4171,-1.4425,-1.5962,-1.5426,-1.6042,-1.7769,-1.4091,-1.2326,-1.2331,-1.2267,-1.2267,-1.2322,-1.2331,-1.4447,-1.7989,-1.7967,-1.69,-1.5381,-1.542,-1.541,-1.5381,-1.5414,-1.635,-1.7852,-1.9319,-1.9813,-1.9823,-1.9813,-1.9315,-1.897,-2.0343,-2.1243,-2.1903,-2.2545,-2.3146,-2.361,-2.361,-2.3595,-2.3595,-2.3595,-2.3595,-2.3595,-2.3595,-2.3595,-2.3595,-2.3595,-2.3595,-2.3595,-2.3595,-2.3101,-2.2739,-2.2739,-2.2158,0.0,-2.1754,-2.1186,-2.0782,-2.0782,-2.0139,-1.972,-1.972,-1.969,-1.969,-1.969,-1.969,-1.969,-1.969,-1.969,-1.9726,-1.9711,-1.9108,-1.8486,-1.7856,0.0,0.0,0.0,0.0,0.0,0.0,0.0,0.0,0.0,0.0,0.0,0.0,0.0,0.0,0.0,0.0,0.0,0.0,0.0,0.0,0.0,-0.6285,-0.6375,-0.769,-0.9351,-1.0548,-1.0863,-1.1209,-1.1559,-1.1898,-1.2077,-1.2166,-1.2209,-1.2201,-1.2447,-1.3067,-1.2607,-1.2695,-1.3426,-1.2998,-1.2886,-1.3339,-1.3171,-1.3346,-1.385,-1.2799,-1.2304,-1.2337,-1.2304,-1.2337,-1.2294,-1.2331,-1.4477,-1.7881,-1.6615,-1.5845,-1.542,-1.5428,-1.541,-1.5381,-1.5414,-1.6993,-1.9245,-1.9654,-1.9799,-1.98,-1.9773,-1.9636,-1.9571,-1.9982,-2.1472,-2.3129,-2.3274,-2.3467,-2.36,-2.3626,-2.3595,-2.3595,-2.3595,-2.3595,-2.3595,-2.3595,-2.3595,-2.3595,-2.3595,-2.3595,-2.3595,-2.3595,-2.346,-2.334,-2.334,-2.3191,0.0,-2.3071,-2.2517,-2.2143,-2.2143,-2.1126,-2.0438,-2.0438,-1.9974,-1.969,-1.969,-1.969,-1.969,-1.969,-1.969,-1.9839,-2.0124,-1.9249,-1.8845,0.0,0.0,0.0,0.0,0.0,0.0,0.0,0.0,0.0,0.0,0.0,0.0,0.0,0.0,0.0,0.0,0.0,0.0,0.0,0.0,0.0,0.0,-0.7958,-0.8924,-0.9466,-1.033,-1.1141,-1.172,-1.1807,-1.1978,-1.252,-1.2566,-1.2524,-1.2561,-1.2518,-1.2577,-1.2666,-1.2698,-1.2616,-1.2566,-1.2401,-1.2337,-1.2305,-1.2305,-1.2305,-1.2305,-1.2305,-1.2305,-1.2305,-1.2305,-1.2305,-1.2285,-1.2291,-1.4473,-1.7935,-1.6889,-1.6046,0.0,0.0,0.0,0.0,0.0,-1.728,-1.978,-1.9768,-1.9798,-1.9798,-1.9798,-1.9788,-1.9775,-1.9797,-2.0824,-2.209,-2.247,-2.3088,-2.3523,-2.329,-2.3421,-2.3595,-2.3595,-2.3595,-2.3595,-2.3595,-2.3595,-2.3595,-2.3595,-2.3595,0.0,-2.3595,-2.3595,-2.3595,-2.3595,-2.3595,-2.3595,-2.3595,-2.3056,-2.2724,-2.2724,-2.1739,-2.1021,-2.0737,-2.0348,0.0,0.0,0.0,-1.969,-1.969,-1.969,0.0,0.0,0.0,0.0,0.0,0.0,0.0,0.0,-1.9283,-1.9401,0.0,0.0,0.0,0.0,0.0,0.0,0.0,0.0,0.0,0.0,0.0,0.0,0.0,0.0,0.0,0.0,-0.877,-1.133,-1.2152,-1.1794,-1.1676,-1.2244,-1.2344,-1.2546,-1.2932,-1.3,-1.3057,-1.3021,-1.3008,-1.2823,-1.2504,0.0,0.0,0.0,0.0,-1.2405,-1.2405,-1.2405,-1.2392,-1.2358,-1.2351,-1.2338,-1.2305,-1.2305,-1.2305,-1.2285,-1.2291,-1.4221,-1.7394,-1.7835,-1.6947,-1.539,-1.541,-1.541,-1.5419,-1.5523,-1.739,-1.9825,-1.9778,0.0,0.0,-1.9798,-1.9798,-1.9799,-1.9787,-1.981,-1.9959,-2.0716,-2.2156,-2.3327,-2.2826,-2.3143,-2.3595,-2.3595,-2.3595,-2.3595,-2.3595,-2.3595,-2.3595,-2.3595,-2.3595,-2.3595,-2.3595,-2.3595,-2.3595,-2.3595,-2.3595,-2.3595,-2.3595,-2.3116,-2.2787,-2.2787,0.0,0.0,-2.0887,-2.0752,-2.0423,-1.9735,-1.969,-1.969,-1.969,-1.969,-2.012,-2.0991,-2.0991,-2.1432,-2.231,-2.231,-2.2682,-2.3325,-2.0653,-2.0534,0.0,0.0,0.0,0.0,0.0,0.0,0.0,0.0,0.0,0.0,0.0,0.0,0.0,0.0,0.0,-0.6584,-0.7794,-0.9389,-1.1513,-1.1972,-1.2138,-1.2298,-1.273,-1.3042,-1.31,-1.3607,-1.3872,-1.3888,-1.3599,-1.3484,-1.3721,-1.338,-1.3287,-1.3373,-1.2975,-1.2739,-1.2772,-1.3124,-1.3088,-1.2748,0.0,0.0,-1.2305,-1.2305,-1.2305,-1.2285,-1.2291,-1.2692,-1.3637,-1.6749,-1.694,-1.5381,-1.5381,-1.541,-1.5497,-1.6297,-1.7965,-1.9825,-1.9778,-1.9798,-1.9798,-1.9798,-1.9798,-1.9786,-1.9787,-1.9825,0.0,-1.9984,-2.1287,-2.2644,-2.2661,-2.3143,-2.3595,-2.3595,-2.3595,-2.3595,-2.3595,-2.3595,-2.3595,-2.3595,-2.3595,-2.3595,-2.3595,-2.3595,-2.3595,-2.3595,-2.3595,-2.3595,-2.3595,-2.349,-2.343,-2.343,-2.2862,-2.2218,-2.156,-2.1021,-2.0423,-1.9735,-1.969,-1.969,-1.969,-1.969,-2.012,-2.0991,-2.0991,-2.1432,-2.231,-2.231,-2.2682,-2.3376,-2.2801,-2.3071,0.0,0.0,0.0,0.0,0.0,0.0,0.0,0.0,0.0,0.0,0.0,-0.5109,-0.5413,0.0,-0.5823,-0.6332,-0.7645,-0.8983,-1.0336,-1.1683,-1.2525,-1.2607,-1.2824,-1.3101,-1.3387,-1.3655,-1.3953,-1.4068,-1.3948,-1.3928,-1.4082,-1.3808,-1.3736,-1.3838,-1.3419,-1.318,-1.3213,-1.3299,-1.3144,-1.2829,-1.2822,-1.2592,-1.2305,-1.2305,-1.2305,-1.2285,-1.2291,-1.231,-1.2565,-1.551,-1.6211,-1.541,-1.541,-1.541,-1.5507,-1.6528,-1.7822,-1.9147,-1.9664,-1.9798,-1.9798,-1.9798,-1.9798,-1.9798,-1.9798,-1.9798,-1.9825,-1.9775,-2.072,-2.1835,-2.2109,-2.268,-2.3246,-2.3508,-2.3595,-2.3595,-2.3595,-2.3595,-2.3595,-2.3595,-2.3595,-2.3595,-2.3595,-2.3595,-2.3595,-2.3595,-2.3595,-2.3595,-2.3595,-2.3595,-2.3595,-2.3595,-2.3325,-2.2877,-2.2233,-2.1276,-2.0423,-1.9735,-1.969,-1.969,-1.969,-1.969,-2.0015,-2.0616,-2.0649,-2.1118,-2.2158,-2.2158,-2.2811,-2.4096,-2.4096,-2.4441,0.0,0.0,0.0,0.0,0.0,0.0,0.0,-0.3683,-0.4436,-0.4697,-0.4991,-0.5311,-0.562,-0.5677,-0.5772,-0.6067,-0.7676,-0.9015,-0.9392,-1.1159,-1.2612,-1.2916,-1.297,-1.3113,-1.3594,-1.3694,-1.3828,-1.4068,-1.4088,-1.4088,-1.4088,-1.4088,-1.4072,-1.4111,-1.3823,-1.3621,-1.3654,-1.3474,-1.32,-1.2916,-1.2916,-1.2645,-1.2305,-1.2305,-1.2291,-1.2325,-1.3071,-1.3434,-1.3531,-1.4863,-1.5377,-1.5381,-1.5381,-1.5527,-1.5806,-1.6671,-1.7665,-1.8592,-1.9485,-1.9886,-2.0013,-1.9836,-1.9797,-1.9783,-1.9823,-1.9798,-1.9798,-1.9798,-2.0321,-2.0957,-2.139,-2.2114,-2.283,-2.3334,-2.3508,-2.3595,-2.3595,-2.3595,-2.3595,-2.3595,-2.3595,-2.3595,-2.3595,-2.3595,-2.3595,-2.3595,-2.3595,-2.3595,-2.3595,-2.3595,-2.3595,-2.3595,-2.3595,-2.3295,-2.2547,-2.1276,-2.0288,-1.972,-1.969,-1.969,-1.969,-1.969,-1.9874,-2.028,-2.0438,-2.0986,-2.2013,-2.2123,-2.305,-2.4666,-2.4666,-2.5077,-0.1793,-0.1082,-0.0254,-0.0942,-0.1134,-0.1394,0.0,-0.3092,-0.3951,-0.4085,-0.4886,-0.563,-0.5925,-0.5979,-0.6078,-0.6376,-0.7359,-0.8519,-0.9677,-1.0589,-1.166,-1.3048,-1.3387,-1.3567,-1.3552,-1.3881,-1.4048,-1.4082,-1.4088,-1.4088,-1.4088,-1.4088,-1.4075,-1.4132,-1.4041,-1.4021,-1.3995,-1.3988,-1.3714,-1.316,-1.316,-1.2859,-1.2305,-1.2305,-1.2311,-1.2501,-1.5912,-1.7357,-1.7263,-1.5917,-1.5378,-1.5419,-1.5419,-1.592,-1.6804,-1.7313,-1.8004,-1.8792,-1.954,-2.0227,-2.0658,-2.0039,-1.979,-1.9818,-1.9783,-1.9798,-1.9798,-1.9798,-1.9876,-2.0073,-2.0729,-2.1799,-2.2694,-2.2785,-2.3187,-2.3595,-2.3595,-2.3595,-2.3595,-2.3595,-2.3595,-2.3595,-2.3595,-2.3595,-2.3595,-2.3595,-2.3595,-2.3595,-2.3595,-2.3595,-2.3595,-2.3595,-2.3595,-2.3116,-2.1904,-2.0572,-1.9765,-1.969,-1.969,-1.969,-1.969,-1.969,-1.9874,-2.028,-2.0868,-2.1471,-2.2013,-2.2598,-2.3335,-2.4195,-2.4195,-2.5026,-0.2118,-0.1137,-0.0054,-0.0392,-0.0798,-0.134,-0.2262,-0.3149,-0.4024,-0.476,-0.5329,-0.5779,-0.5989,-0.6101,-0.623,-0.6437,-0.7338,-0.8192,-0.8864,-0.9782,-1.08,-1.2043,-1.2407,-1.2794,-1.3546,-1.3754,-1.3901,-1.4075,-1.4088,-1.4088,-1.4088,-1.4088,-1.4088,-1.4088,-1.4088,-1.4088,-1.4088,-1.3915,-1.3621,-1.3206,-1.3026,-1.2712,-1.2305,-1.2305,-1.3506,-1.572,-1.7309,-1.8037,-1.7915,-1.7203,-1.6606,-1.6135,-1.5974,-1.6335,-1.7006,-1.7779,-1.8313,-1.8869,-1.9964,-2.0315,-2.0265,-2.0341,-2.007,-1.9778,-1.9784,-1.9798,-1.9798,-1.9798,-1.9813,-1.9851,-2.0163,-2.1172,-2.2296,-2.3062,-2.3437,-2.3595,-2.3595,-2.3595,-2.3595,-2.3595,-2.3595,-2.3595,-2.3595,-2.3595,-2.3595,-2.3595,-2.3595,-2.3595,-2.3595,-2.3595,-2.3595,-2.3595,-2.3281,-2.2697,-2.1769,-2.0827,-2.0109,-1.9705,-1.969,-1.969,-1.969,-1.969,-1.9978,-2.0537,-2.0825,-2.1416,-2.2424,-2.2678,-2.3297,-2.4288,-2.4288,-2.5041,-0.2548,-0.1462,-0.0286,-0.0293,-0.0715,-0.1341,-0.2161,-0.3097,-0.4145,-0.5049,-0.5527,-0.58,-0.5993,-0.6122,-0.6271,-0.6498,-0.7174,-0.7805,-0.8284,-0.8959,-0.9862,-1.0911,-1.105,-1.1391,-1.2463,-1.3144,-1.3647,-1.3941,-1.3968,-1.4001,-1.4082,-1.4088,-1.4088,-1.4088,-1.4088,-1.4088,-1.4088,-1.3794,-1.35,-1.3206,-1.2899,-1.2592,-1.2298,-1.2631,-1.4736,-1.801,-1.7976,-1.7997,-1.7999,-1.7999,-1.7626,-1.6989,-1.6299,-1.6527,-1.7266,-1.8091,-1.8557,-1.8905,-2.0238,-2.0388,-2.0112,-2.058,-2.0376,-2.0012,-1.9849,-1.9798,-1.9798,-1.9798,-1.9798,-1.9799,-1.9787,-2.0483,-2.1513,-2.2755,-2.3333,-2.3584,-2.3625,-2.3595,-2.3595,-2.3595,-2.3595,-2.3595,-2.3595,-2.3595,-2.3595,-2.3595,-2.3595,-2.3595,-2.3595,-2.3595,-2.3535,-2.337,-2.2787,-2.2143,-2.1485,-2.0991,-2.0498,-2.0004,-2.0139,-2.0243,-2.0243,-2.0243,-2.0468,-2.0976,-2.1171,-2.1724,-2.2724,-2.2847,-2.3356,-2.4184,-2.4184,-2.4735,-0.3345,-0.2227,-0.1056,-0.1057,-0.1169,-0.1285,-0.1352,-0.269,-0.4043,-0.4232,-0.496,-0.5684,-0.5976,-0.6034,-0.6183,-0.6624,-0.6692,-0.721,-0.8649,-0.8476,-0.8651,-0.9776,-0.9569,-0.9479,-0.9781,-1.1848,-1.3347,-1.3552,-1.3661,-1.3781,-1.4075,-1.4088,-1.4088,-1.4088,-1.4088,-1.4088,-1.4088,-1.3794,-1.35,-1.3206,-1.2899,-1.2592,-1.2372,-1.3554,-1.5522,-1.7991,-1.7977,-1.8018,-1.7998,-1.7998,-1.7994,-1.7815,-1.6119,-1.637,-1.7809,-1.8227,-1.8557,-1.8905,-2.0238,-2.0706,-2.0693,-2.0706,-2.0706,-2.0539,-1.9974,-1.9798,-1.9798,-1.9798,-1.9798,-1.9798,-1.9786,-1.9838,-2.0169,-2.1452,-2.2726,-2.3599,-2.3583,-2.3595,-2.3595,-2.3595,-2.3595,-2.3595,-2.3595,-2.3595,-2.3595,-2.3595,-2.3595,-2.3595,-2.3595,-2.3595,-2.337,-2.2813,-2.2113,-2.1455,-2.0797,-2.0722,-2.0707,-2.0677,-2.1276,-2.1635,-2.1635,-2.1635,-2.165,-2.1665,-2.2293,-2.2679,-2.2724,-2.3281,-2.358,-2.3638,-2.3638,-2.4013,-0.34,-0.2834,-0.219,-0.2169,-0.2213,-0.2388,-0.2958,-0.359,-0.4161,-0.4879,-0.531,-0.562,-0.5722,-0.5898,-0.6142,-0.6491,-0.6634,-0.6968,-0.7621,-0.7483,-0.7727,-0.8669,-0.8582,-0.8709,-0.9341,-1.0939,0.0,-1.2599,-1.3225,-1.3774,-1.4075,-1.4088,-1.4088,-1.4088,-1.4088,-1.4088,-1.4088,-1.3601,-1.3307,-1.32,-1.2699,-1.2398,-1.2372,-1.3593,-1.556,-1.8,-1.8023,-1.7978,-1.8008,-1.8008,-1.785,-1.7543,-1.6963,-1.6723,-1.6748,-1.736,-1.7744,-1.8247,-2.0077,-2.0413,-2.0162,-2.0592,-2.0401,-2.0049,-1.9861,-1.9798,-1.9798,-1.9798,-1.9798,-1.9798,-1.9798,-2.013,-2.065,-2.1493,-2.2282,-2.2933,-2.3465,-2.3595,-2.3595,-2.3595,-2.3595,-2.3595,-2.3595,-2.3595,-2.3595,-2.3595,-2.3595,-2.3595,-2.3595,-2.3595,-2.3355,-2.2742,-2.2488,-2.2084,-2.1425,-2.0961,-2.0902,-2.1335,-2.1171,-2.1246,-2.168,-2.1695,-2.1904,-2.2338,-2.2604,-2.2877,-2.3295,-2.349,-2.3595,-2.3595,-2.3595,-2.4208,-0.3809,-0.3568,-0.3072,-0.3062,-0.3101,-0.3335,-0.3865,-0.4183,-0.4549,-0.5147,-0.5318,-0.5365,-0.5416,-0.5579,-0.5696,-0.5774,-0.6198,-0.6582,-0.6486,-0.6724,-0.7144,-0.77,-0.7616,-0.7789,-0.8299,-0.9419,-1.0663,-1.1881,-1.2996,-1.3774,-1.4075,-1.4088,-1.4088,-1.4088,-1.4088,-1.4088,-1.4088,-1.35,-1.31,-1.2879,-1.2485,-1.2305,-1.2378,-1.3848,-1.556,-1.7355,-1.7827,-1.7978,-1.8008,-1.8008,-1.7764,-1.7363,-1.7217,-1.6709,-1.6166,-1.677,-1.7077,-1.749,-1.9564,-2.0064,-1.9899,-2.0476,-2.0275,-1.9798,-1.9798,-1.9798,-1.9798,-1.9798,-1.9798,-1.9798,-1.9798,-2.0105,-2.0557,-2.0917,-2.1749,-2.2483,-2.2849,-2.3274,-2.3595,-2.3595,-2.3595,-2.3595,-2.3595,-2.3595,-2.3595,-2.3595,-2.3595,-2.3595,-2.3595,-2.3595,-2.3355,-2.2742,-2.2724,-2.2323,-2.1425,-2.1395,-2.15,-2.168,-2.1724,-2.1934,-2.2353,-2.2383,-2.2577,-2.2996,-2.3011,-2.3206,-2.3595,-2.3595,-2.3595,-2.3595,-2.3595,-2.4328,-0.4536,-0.4305,-0.3852,-0.3852,-0.3999,-0.4082,-0.4082,-0.4582,-0.5131,-0.5131,-0.5016,-0.4897,-0.5031,-0.5068,-0.4932,-0.4509,-0.5463,-0.6019,-0.5485,-0.6239,-0.6939,-0.6929,-0.68,-0.6709,-0.6702,-0.7604,-0.9159,-1.1439,0.0,-1.3692,-1.4075,-1.4088,-1.4088,-1.4088,-1.4088,-1.4088,-1.4088,-1.35,-1.2913,-1.2325,-1.2311,-1.2305,-1.2372,-1.4235,-1.5434,-1.6095,-1.7342,-1.794,-1.8008,-1.8008,-1.7764,-1.7344,-1.6924,-1.6475,-1.6127,-1.6403,-1.6513,-1.6772,-1.8744,-1.9534,-1.9783,-2.0385,-2.0198,-1.9747,-1.9798,-1.9798,-1.9798,-1.9798,-1.9798,-1.9798,-1.9798,-1.9798,-1.9825,-1.9835,-2.1129,-2.2208,-2.1886,-2.2761,-2.3595,-2.3595,-2.3595,-2.3595,-2.3595,-2.3595,-2.3595,-2.3595,-2.3595,-2.3595,-2.3595,-2.3595,-2.3355,-2.2742,-2.2739,-2.2203,-2.0917,-2.1964,-2.2428,-2.1829,-2.2892,-2.3565,-2.3595,-2.3595,-2.3595,-2.3595,-2.3595,-2.3595,-2.3595,-2.3595,-2.3595,-2.3595,-2.3595,-2.4328,-0.464,-0.5028,-0.497,-0.497,-0.4995,-0.5024,-0.5024,-0.5045,-0.5131,-0.5131,-0.5016,-0.4745,-0.4218,-0.4185,-0.4134,-0.3553,-0.455,-0.5387,-0.5411,-0.6315,-0.7048,-0.6943,-0.6895,-0.6824,-0.6712,-0.7879,-0.9201,-1.0605,-1.1746,-1.2831,-1.4068,-1.4088,-1.4088,-1.4088,-1.4088,-1.4088,-1.4088,-1.35,-1.3013,-1.2708,-1.2412,-1.2305,-1.2372,-1.3528,-1.4609,-1.5488,-1.6515,-1.7354,-1.8008,-1.8008,-1.7764,-1.7373,-1.7256,-1.6738,-1.6105,-1.6168,-1.6331,-1.656,-1.7119,-1.7678,-1.8298,-1.8988,-1.91,-1.9097,-1.9631,-1.9798,-1.9798,-1.9798,-1.9798,-1.9798,-1.9798,-1.9798,-1.994,-2.0625,-2.1084,-2.176,-2.2849,-2.3347,-2.3595,-2.3595,-2.3595,-2.3595,-2.3595,-2.3595,-2.3595,-2.3595,-2.3595,-2.3595,-2.3595,-2.3595,-2.3355,-2.2742,-2.3086,-2.3041,-2.2248,-2.2488,-2.2802,-2.3101,-2.2981,-2.3116,-2.358,-2.3595,-2.3595,-2.3595,-2.3595,-2.3595,-2.3595,-2.3595,-2.3595,-2.3595,-2.3595,-2.4328,-0.4165,-0.498,-0.5428,-0.5428,-0.5428,-0.5411,-0.5277,-0.5145,-0.5016,-0.4952,-0.4819,-0.4601,-0.4185,-0.3861,-0.3625,-0.3468,-0.4261,-0.5039,-0.5244,-0.6303,-0.7109,-0.7031,-0.7021,-0.6987,-0.6902,-0.7565,-0.8472,-0.9662,-1.1185,-1.2698,-1.399,-1.4088,-1.4088,-1.4088,-1.4088,-1.3961,-1.3707,-1.324,-1.2852,-1.2552,-1.2385,-1.2305,-1.2305,-1.3237,-1.4243,-1.5234,0.0,-1.7139,-1.8008,-1.8008,-1.7764,-1.7363,-1.7168,-1.667,-1.6105,-1.585,-1.5909,-1.6036,-1.6036,-1.6312,-1.6856,-1.8221,-1.8715,-1.8821,-1.9579,-1.9798,-1.9798,-1.9798,-1.9798,-1.9798,-1.9798,-1.9798,-1.9914,-2.0427,-2.0973,-2.168,-2.2812,-2.3334,-2.3595,-2.3595,-2.3595,-2.3595,-2.3595,-2.3595,-2.3595,-2.3595,-2.3595,-2.3595,-2.3595,-2.3595,-2.346,-2.3116,-2.3385,-2.3355,-2.2727,-2.2921,-2.3116,-2.3191,-2.3131,-2.3236,-2.3595,-2.3595,-2.3595,-2.3595,-2.3595,-2.3595,-2.3595,-2.3595,-2.3595,-2.3595,-2.3595,-2.4163,-0.3803,-0.4665,-0.5428,-0.5428,-0.5411,-0.5294,-0.5162,-0.5006,-0.485,-0.4718,-0.4568,-0.446,-0.4349,-0.3781,-0.3382,-0.3629,-0.4214,-0.4772,-0.5051,-0.6239,-0.7119,-0.7139,-0.7139,-0.7139,-0.7139,-0.7139,-0.7577,-0.8803,-1.0697,-1.2419,-1.3822,-1.3997,-1.4088,-1.4088,-1.4048,-1.3781,-1.3273,-1.2919,-1.2619,-1.2365,-1.2318,-1.2305,-1.2305,-1.3171,-1.4027,-1.5021,-1.6,0.0,-1.7794,-1.794,-1.7734,-1.7256,-1.6885,-1.6426,-1.5928,-1.5557,-1.541,-1.541,-1.541,-1.541,-1.5748,-1.7895,-1.8555,-1.8715,-1.9527,-1.9798,-1.9798,-1.9798,-1.9798,-1.9798,-1.9798,-1.9798,-1.985,-1.9991,-2.089,-2.1846,-2.2433,-2.3126,-2.3595,-2.3595,-2.3595,-2.3595,-2.3595,-2.3595,-2.3595,-2.3595,-2.3595,-2.3595,-2.3595,-2.3595,-2.3595,-2.3595,-2.3595,-2.3385,-2.2847,-2.3295,-2.337,-2.2832,-2.3295,-2.3595,-2.3595,-2.3595,-2.3595,-2.3595,-2.3595,-2.3595,-2.3595,-2.3595,-2.3595,-2.3595,-2.3595,-2.3999,-0.4653,-0.5272,-0.5428,-0.5428,-0.5267,-0.5165,-0.5135,-0.4921,-0.4721,-0.4697,-0.4568,-0.4294,-0.3622,-0.338,-0.32,-0.2903,-0.3797,-0.4678,-0.5038,-0.6163,-0.7007,-0.7126,-0.7139,-0.7139,-0.7139,-0.7139,-0.7577,-0.8803,-0.9235,-1.0438,-1.2504,-1.3555,-1.4088,-1.4088,-1.3848,-1.3667,-1.3567,-1.3019,-1.2795,-1.2741,-1.2418,-1.2305,-1.2305,-1.2445,-1.3098,-1.4027,-1.5021,0.0,-1.6922,-1.7647,-1.7549,-1.6836,-1.6758,-1.624,-1.5518,-1.5439,-1.541,-1.541,-1.541,-1.541,-1.5633,-1.7291,-1.7797,-1.8058,-1.9371,-1.9798,-1.9798,-1.9798,-1.9798,-1.9798,-1.9798,-1.9798,-2.0093,-2.1135,-2.1554,-2.1993,-2.3127,-2.3494,-2.3595,-2.3595,-2.3595,-2.3595,-2.3595,-2.3595,-2.3595,-2.3595,-2.3595,-2.3595,-2.3595,-2.3595,-2.3595,-2.3595,-2.3595,-2.355,-2.3445,-2.3535,-2.355,-2.3445,-2.3535,-2.3595,-2.3595,-2.3595,-2.3595,-2.3595,-2.3595,-2.3595,-2.3595,-2.3595,-2.3595,-2.3595,-2.3595,-2.4075,-0.3747,-0.4686,-0.5428,-0.5428,-0.5243,-0.5111,-0.5036,-0.485,-0.4667,-0.4589,-0.457,-0.4405,-0.4012,-0.3607,-0.3406,-0.3806,-0.4095,-0.4525,-0.541,-0.6218,-0.6776,-0.7004,-0.7095,-0.7139,-0.7139,-0.7139,-0.7316,-0.7929,-0.854,-0.9923,-1.2157,-1.347,-1.4015,-1.3861,-1.3574,-1.334,-1.318,-1.2739,-1.2518,-1.2512,-1.2371,-1.2305,-1.2305,-1.2305,-1.3091,-1.4522,-1.5021,0.0,-1.7345,-1.7562,-1.7441,-1.7021,-1.6562,-1.6123,-1.5723,-1.5498,-1.541,-1.541,-1.541,-1.541,-1.5575,-1.6698,-1.7302,-1.7907,-1.9371,-1.9798,-1.9798,-1.9798,-1.9798,-1.9798,-1.9798,-1.9798,-1.994,-2.0557,-2.1232,-2.2025,-2.3319,-2.3595,-2.3595,-2.3595,-2.3595,-2.3595,-2.3595,-2.3595,-2.3595,-2.3595,-2.3595,-2.3595,-2.3595,-2.3595,-2.3595,-2.3595,-2.3595,-2.3595,-2.3595,-2.3595,-2.3595,-2.3595,-2.3595,-2.3595,-2.3595,-2.3595,-2.3595,-2.3595,-2.3595,-2.3595,-2.3595,-2.3595,-2.3595,-2.3595,-2.3595,-2.401,-0.2939,-0.4151,-0.5428,-0.5428,-0.5223,-0.5057,-0.4945,-0.4775,-0.4609,-0.4543,-0.4519,-0.4519,-0.4519,-0.3987,-0.3876,-0.4766,-0.4472,-0.4625,-0.5808,-0.623,-0.6515,-0.6885,-0.7027,-0.7105,-0.7136,-0.7139,-0.7139,-0.7139,-0.8189,-0.9923,-1.2157,-1.3146,-1.3625,-1.3566,-1.33,-1.2993,-1.2829,-1.2452,-1.2305,-1.2305,-1.2305,-1.2305,-1.2305,-1.2305,-1.3164,-1.4585,-1.4939,0.0,0.0,-1.728,-1.7187,-1.7031,-1.64,-1.6066,-1.5879,-1.5537,-1.541,-1.541,-1.541,-1.541,-1.5526,-1.6425,-1.7146,-1.7852,-1.915,-1.9695,-1.9798,-1.9798,-1.9798,-1.9798,-1.9798,-1.9798,-1.985,-2.0131,-2.1086,-2.2225,-2.3363,-2.3595,-2.3595,-2.3595,-2.3595,-2.3595,-2.3595,-2.3595,-2.3595,-2.3595,-2.3595,-2.3595,-2.3595,-2.3595,-2.3595,-2.3595,-2.3595,-2.3595,-2.3595,-2.3595,-2.3595,-2.3595,-2.3595,-2.3595,-2.3595,-2.3595,-2.3595,-2.3595,-2.3595,-2.3595,-2.3595,-2.3595,-2.3595,-2.3595,-2.3739,-2.417,-0.3654,-0.4619,-0.5428,-0.5428,-0.5148,-0.4935,-0.4921,-0.4694,-0.4536,-0.4522,-0.4519,-0.4519,-0.4519,-0.4418,-0.4519,-0.487,-0.4877,-0.508,-0.5855,-0.6054,-0.6285,-0.6861,-0.6943,-0.7,-0.7129,-0.7139,-0.7139,-0.7139,-0.8189,-0.9923,-1.2157,-1.2188,-1.2566,-1.3559,-1.3086,-1.2849,-1.2822,-1.2452,-1.2305,-1.2305,-1.2305,-1.2305,-1.2305,-1.2305,-1.2372,-1.2645,-1.3972,0.0,0.0,-1.6225,-1.6553,-1.6243,-1.6154,-1.582,-1.5469,-1.543,-1.541,-1.541,-1.541,-1.541,-1.5633,-1.7024,-1.7523,-1.7743,-1.8555,-1.9254,-1.9798,-1.9798,-1.9798,-1.9798,-1.9798,-1.9798,-2.0093,-2.1232,-2.2053,-2.2785,-2.3465,-2.3595,-2.3595,-2.3595,-2.3595,-2.3595,-2.3595,-2.3595,-2.3595,-2.3595,-2.3595,-2.3595,-2.3595,-2.3595,-2.3595,-2.3595,-2.3595,-2.3595,-2.3595,-2.3595,-2.3595,-2.3595,-2.3595,-2.3595,-2.3595,-2.3595,-2.3595,-2.3595,-2.3595,-2.3595,-2.3595,-2.3595,-2.3595,-2.3595,-2.4265,-2.5062,-0.2992,-0.3896,-0.4686,-0.5226,-0.5138,-0.4918,-0.4918,-0.468,-0.4519,-0.4519,-0.4519,-0.4519,-0.4519,-0.4519,-0.456,-0.4623,-0.4646,-0.4813,-0.5294,-0.5515,-0.585,-0.6454,-0.6681,-0.6885,-0.7115,-0.7139,-0.7105,-0.7017,-0.7444,-0.8585,-1.0709,-1.1498,-1.23,-1.3113,-1.2872,-1.2735,-1.2478,-1.2365,-1.2305,-1.2305,-1.2305,-1.2305,-1.2305,-1.2305,-1.249,-1.2956,-1.4063,0.0,0.0,-1.5984,-1.6221,-1.6096,-1.5771,-1.5566,-1.541,-1.541,-1.541,-1.541,-1.541,-1.541,-1.5584,-1.6585,-1.7246,-1.7852,-1.898,-1.9579,-1.9798,-1.9798,-1.9798,-1.9798,-1.9798,-1.9798,-2.0131,-2.1411,-2.1899,-2.2377,-2.3363,-2.3595,-2.3595,-2.3595,-2.3595,-2.3595,-2.3595,-2.3595,-2.3595,-2.3595,-2.3595,-2.3595,-2.3595,-2.3595,-2.3595,-2.3595,-2.3595,-2.3595,-2.3595,-2.3595,-2.3595,-2.3595,-2.3595,-2.3595,-2.3595,-2.3595,-2.3595,-2.3595,-2.3595,-2.3595,-2.3595,-2.3906,-2.3921,-2.3638,-2.4353,-2.4997,-0.2426,-0.3318,-0.423,-0.5091,-0.5104,-0.4908,-0.486,-0.465,-0.4519,-0.4519,-0.4294,-0.4236,-0.446,-0.4294,-0.4236,-0.446,-0.4519,-0.4582,-0.4935,-0.5162,-0.5515,-0.6122,-0.6376,-0.6617,-0.6912,-0.6983,-0.697,-0.6868,-0.6861,-0.7533,-0.9214,-1.0481,-1.1712,-1.2759,-1.2735,-1.2512,-1.2305,-1.2305,-1.2305,-1.2305,-1.2305,-1.2305,-1.2298,-1.2211,-1.2418,-1.2902,-1.3787,0.0,0.0,-1.56,-1.5869,-1.584,-1.5527,-1.541,-1.541,-1.541,-1.541,-1.541,-1.541,-1.541,-1.5526,-1.6265,-1.6978,-1.7841,-1.9097,-1.9643,-1.9798,-1.9798,-1.9798,-1.9798,-1.9798,-1.9798,-2.0093,-2.1183,-2.1568,-2.1993,-2.3098,-2.3465,-2.3595,-2.3595,-2.3595,-2.3595,-2.3595,-2.3595,-2.3595,-2.3595,-2.3595,-2.3595,-2.3595,-2.343,-2.3413,-2.3603,-2.3366,-2.3308,-2.3565,-2.3595,-2.3595,-2.3595,-2.3595,-2.3595,-2.3595,-2.3595,-2.3595,-2.3595,-2.3595,-2.3681,-2.3837,-2.4241,-2.4266,-2.4074,-2.4791,-2.5303,-0.2461,-0.3334,-0.4168,-0.4941,-0.5023,-0.4877,-0.4728,-0.4572,-0.4519,-0.4519,-0.3846,-0.3566,-0.4349,-0.3846,-0.3566,-0.4349,-0.4519,-0.4619,-0.5064,-0.5131,-0.5355,-0.5962,-0.6034,-0.6152,-0.6451,-0.6617,-0.6705,-0.6702,-0.6702,0.0,-0.7978,-0.8992,-1.0556,-1.2746,-1.2458,-1.2305,-1.2305,-1.2305,-1.2305,-1.2305,-1.2305,-1.2305,-1.2291,-1.2004,-1.1948,-1.1972,0.0,0.0,0.0,-1.4865,-1.542,-1.542,-1.541,-1.541,-1.541,-1.541,-1.541,-1.541,-1.541,-1.541,-1.5526,-1.6265,-1.6978,-1.7743,-1.8501,-1.9202,-1.9798,-1.9798,-1.9798,-1.9798,-1.9798,-1.9798,-1.9952,-2.0646,-2.1245,-2.1899,-2.2543,-2.3201,-2.3595,-2.3595,-2.3595,-2.3595,-2.3595,-2.3595,-2.3595,-2.3595,-2.3595,-2.3595,-2.3595,-2.3071,-2.2942,-2.3553,-2.2803,-2.2651,-2.352,-2.3595,-2.3595,-2.3595,-2.3595,-2.3595,-2.3595,-2.3595,-2.3595,-2.3595,-2.3595,-2.3879,-2.4389,-2.4389,-2.4672,-2.5221,-2.5726,-2.6227,-0.1382,-0.1963,-0.2368,-0.3239,-0.335,-0.3264,-0.3231,-0.3083,-0.2954,-0.2954,-0.273,-0.2788,-0.3622,-0.3511,-0.3593,-0.4485,-0.4619,-0.4704,-0.4952,-0.5162,-0.5433,-0.5827,-0.6237,-0.6525,-0.662,-0.6671,-0.6658,-0.6552,-0.6546,-0.6955,-0.7798,-0.8172,-0.9316,-1.1364,-1.1968,-1.2305,-1.2305,-1.2305,-1.2305,-1.2298,-1.2098,-1.2004,-1.1997,-1.1703,-1.1456,0.0,0.0,0.0,0.0,-1.4198,-1.4874,-1.541,-1.541,-1.541,-1.541,-1.541,-1.541,-1.541,-1.541,-1.541,-1.5575,-1.6856,-1.7413,-1.7841,-1.9097,-1.9631,-1.9798,-1.9798,-1.9798,-1.9798,-1.9798,-1.9798,-2.0093,-2.1148,-2.1568,-2.1993,-2.3084,-2.3465,-2.3595,-2.3595,-2.3595,-2.3595,-2.3595,-2.3595,-2.3595,-2.3595,-2.3595,-2.3445,-2.3026,-2.2802,-2.269,-2.2712,-2.247,-2.243,-2.2681,-2.2712,-2.2596,-2.2308,-2.2293,-2.2503,-2.2951,-2.2966,-2.3176,-2.3595,-2.3948,-2.4032,-2.3879,-2.495,-2.5762,-2.6229,-2.6068,-2.6262,-0.0467,-0.1072,-0.1512,-0.2417,-0.256,-0.2454,-0.2423,-0.2266,-0.2174,-0.2174,-0.2174,-0.2454,-0.3231,-0.3345,-0.3593,-0.4472,-0.4606,-0.4561,-0.446,-0.4931,-0.5406,-0.5759,-0.6183,-0.6447,-0.6447,-0.6498,-0.6495,-0.64,-0.6393,-0.6663,-0.718,-0.7629,-0.8385,-0.9658,-1.0645,-1.1174,-1.1174,-1.1174,-1.1347,-1.1608,-1.1435,-1.1449,-1.169,-1.1396,-1.1162,0.0,0.0,0.0,0.0,-1.3855,-1.4688,-1.541,-1.541,-1.541,-1.541,-1.541,-1.541,-1.541,-1.541,-1.541,-1.5584,-1.681,-1.74,-1.7943,-1.914,-1.9648,-1.9798,-1.9798,-1.9798,-1.9798,-1.9798,-1.9798,-2.0042,-2.1099,-2.152,-2.1993,-2.3039,-2.3421,-2.3595,-2.3595,-2.3595,-2.3595,-2.3595,-2.3313,-2.3133,-2.3251,-2.3041,-2.2742,-2.2353,-2.2084,-2.1899,-2.1831,-2.1529,-2.131,-2.131,-2.1609,-2.1779,-2.1695,-2.1695,-2.1994,-2.2694,-2.2724,-2.2966,-2.3595,-2.4116,-2.4348,-2.4199,-2.5411,-2.6227,-2.6691,-2.6227,-2.6262,0.0,-0.0643,-0.1404,-0.2162,-0.2337,-0.2261,-0.2079,-0.2063,0.0,-0.2063,-0.2063,-0.2286,-0.3065,-0.3231,-0.3514,-0.4363,-0.4543,-0.4308,-0.3787,-0.4565,-0.5276,-0.5708,-0.5885,-0.6047,-0.6047,-0.6176,-0.6338,-0.6338,-0.6338,-0.6254,-0.6244,-0.7157,-0.7681,-0.7668,-0.8571,-0.9105,-0.9276,-0.9261,-0.9585,-1.0306,-1.036,-1.0655,-1.1246,-1.1096,-1.0962,0.0,0.0,0.0,0.0,-1.3795,-1.4628,-1.541,-1.541,-1.541,-1.541,-1.541,-1.5391,-1.5371,-1.5371,-1.5352,-1.5496,-1.6275,-1.7187,-1.8094,-1.8772,-1.9334,-1.9748,-1.9798,-1.9773,-1.9761,-1.9798,-1.9748,-1.9889,-2.0631,-2.1199,-2.1774,-2.2503,-2.3113,-2.3535,-2.3595,-2.355,-2.352,-2.352,-2.2807,-2.236,-2.2577,-2.2084,-2.168,-2.1635,-2.1096,-2.0737,-2.0873,-2.016,-1.969,-1.969,-2.0451,-2.108,-2.153,-2.1605,-2.1919,-2.2619,-2.2694,-2.3008,-2.3623,-2.4158,-2.4712,-2.5297,-2.5726,-2.621,-2.6691,-2.6262,-2.6297,0.1071,0.0,-0.034,-0.0566,-0.0566,-0.0565,0.0,-0.0504,-0.0504,-0.0504,-0.0504,-0.0895,-0.2232,-0.2454,-0.2923,-0.4387,-0.4735,-0.4813,-0.4737,-0.5269,-0.5477,-0.5036,-0.5717,-0.6207,-0.6207,-0.624,-0.6338,-0.6338,-0.6338,-0.621,-0.6091,-0.6307,-0.6399,-0.6273,-0.6485,-0.7415,-0.9112,-0.9006,-0.9035,-0.9184,-0.9639,-0.9932,-1.0135,-1.0529,-1.0661,0.0,0.0,0.0,-1.3009,-1.3191,-1.4145,-1.541,-1.541,-1.541,-1.541,-1.541,-1.5205,-1.4932,-1.4932,-1.5049,-1.5393,-1.6553,-1.7778,-1.8685,-1.847,-1.8781,-1.9296,-1.9685,-1.951,-1.9296,-1.9698,-1.9196,-1.8958,-2.0442,-2.0553,-2.0692,-2.2088,-2.2503,-2.2807,-2.349,-2.3074,-2.2587,-2.2587,-2.2166,-2.1849,-2.1919,-2.1799,-2.1515,-2.1006,-2.0812,-2.0528,-2.0055,-1.9831,-1.969,-1.969,-1.9878,-2.0057,-2.0154,-2.0647,-2.1246,-2.1904,-2.2413,-2.316,-2.4184,-2.4348,-2.5035,-2.635,-2.5709,-2.5819,-2.6691,-2.659,-2.659,0.1284,0.056,0.0,0.0,0.0,0.0,0.0,0.0,-0.0112,-0.0448,-0.0504,-0.0838,-0.2009,-0.2508,-0.2916,-0.3483,-0.4241,-0.4938,-0.5291,-0.5253,-0.5246,-0.544,-0.5944,-0.6234,0.0,-0.6156,-0.6125,-0.6057,-0.6051,-0.6013,-0.5928,-0.5925,-0.5888,-0.5803,-0.5739,-0.6339,-0.7581,-0.7472,-0.7588,-0.7914,-0.869,-0.9186,-0.9539,-1.0245,-1.0551,0.0,0.0,0.0,-1.2035,-1.238,-1.3252,-1.4364,-1.4656,-1.4824,-1.4824,-1.4824,-1.4687,-1.4492,-1.4492,-1.4961,-1.5749,-1.6509,-1.7423,-1.8216,-1.7915,-1.8041,-1.838,-1.892,-1.8869,-1.8719,-1.8995,-1.8811,-1.8897,-2.0134,-2.0424,-2.0684,-2.151,-2.1887,-2.2137,-2.2652,-2.2155,-2.1787,-2.2003,-2.158,-2.1246,-2.1246,-2.0976,-2.0647,-2.0288,-2.0243,-2.0094,-1.972,-1.969,-1.969,-1.969,-1.969,-1.969,-1.969,-2.043,-2.1188,-2.1949,-2.2424,-2.3351,-2.4736,-2.5012,-2.5672,-2.6691,-2.5944,-2.5944,-2.6691,-2.647,-2.6505,0.1118,0.056,0.0168,0.0056,0.0,0.0,0.0,0.0,-0.0168,-0.0783,-0.0951,-0.1174,-0.2063,-0.2676,-0.2905,-0.2471,-0.3482,-0.4581,-0.5095,-0.4765,-0.484,-0.5848,-0.6113,0.0,-0.6006,-0.5993,-0.5942,-0.5813,-0.58,-0.5793,-0.5769,-0.5769,-0.5759,-0.5735,-0.5616,-0.5613,-0.5732,-0.5735,-0.6084,-0.6695,-0.7572,-0.8348,-0.9139,-0.9933,-1.0223,-1.0114,0.0,0.0,-1.0956,-1.1615,-1.2346,-1.3141,-1.3863,-1.4077,-1.4077,-1.4077,-1.4038,-1.4033,-1.4165,-1.5047,-1.6135,-1.628,-1.6834,-1.7363,-1.7275,-1.725,-1.735,-1.7815,-1.8016,-1.8103,-1.8179,-1.84,-1.8821,-1.9633,-2.026,-2.0741,-2.0803,-2.1094,-2.1446,-2.1565,-2.1154,-2.0966,-2.1461,-2.0991,-2.0557,-2.0557,-2.0064,-1.969,-1.969,-1.969,-1.969,-1.969,-1.969,-1.969,-1.969,-1.969,-1.969,-1.969,-2.0408,-2.1353,-2.2626,-2.295,-2.3807,-2.5281,-2.5779,-2.6227,-2.6691,-2.6227,-2.6227,-2.6691,-2.6297,-2.6332,0.0392,0.056,0.0783,0.0168,0.0,0.0,0.0,0.0,-0.0056,-0.0168,-0.0168,-0.056,-0.1952,-0.1786,-0.1859,-0.3009,-0.2995,-0.2919,-0.3113,-0.3781,-0.4331,-0.4465,0.0,-0.5864,-0.5837,-0.5837,-0.5827,-0.5803,-0.58,-0.5749,-0.563,-0.5623,-0.5562,-0.5433,-0.5473,-0.5473,-0.543,-0.543,-0.555,-0.5659,-0.6506,-0.7405,-0.8215,-0.8834,-0.9463,-1.01,0.0,-1.017,-1.0956,-1.1615,-1.2346,-1.3141,-1.3863,-1.4077,-1.4077,-1.4077,-1.3906,-1.3698,-1.4366,-1.506,-1.5711,-1.6268,-1.6885,-1.7287,-1.6798,-1.6647,-1.6672,-1.676,-1.7137,-1.7614,-1.8078,-1.7549,-1.7222,-1.8574,-1.8941,-1.9166,-1.9753,-1.9971,-2.023,-2.0941,-2.0436,-2.0082,-2.0721,-2.0303,-1.9839,-1.9839,-1.975,-1.969,-1.969,-1.969,-1.969,-1.969,-1.969,-1.969,-1.969,-1.969,-1.969,-1.969,-1.9845,-2.1243,-2.4219,-2.465,-2.5147,-2.5852,-2.5977,-2.6227,-2.6691,-2.6227,-2.6227,-2.6691,-2.6624,-2.6624,0.0798,0.0752,0.0817,0.0164,0.0276,0.0504,0.0112,0.0,-0.0112,-0.0504,-0.0616,-0.0951,-0.2009,-0.2287,-0.2608,-0.3399,-0.2995,-0.2685,-0.277,-0.3628,-0.4227,0.0,0.0,-0.5772,-0.5694,-0.5688,-0.5654,-0.5569,-0.5562,-0.5535,-0.5471,-0.5467,-0.5433,-0.5428,-0.5428,-0.5428,-0.5428,-0.5428,-0.5428,-0.5425,-0.6177,-0.6953,-0.7775,-0.8409,-0.9008,-0.9633,0.0,-0.9569,-0.9843,-1.0478,-1.1006,-1.1431,-1.2425,-1.2847,-1.2898,-1.3285,-1.334,-1.3323,-1.437,-1.4855,-1.5233,-1.6193,-1.6697,-1.6861,-1.6597,-1.6522,-1.6522,-1.6522,-1.671,-1.6974,-1.7225,-1.7209,-1.7156,-1.7437,-1.8387,-1.9266,-1.9634,-1.9701,-1.982,-2.0236,-1.9975,-1.9797,-2.0124,-1.9884,-1.969,-1.969,-1.969,-1.969,-1.969,-1.969,-1.969,-1.969,-1.969,-1.969,-1.969,-1.969,-1.9713,-1.9694,-2.1046,-2.2432,-2.3819,-2.4377,-2.4699,-2.4775,-2.5428,-2.59,-2.6116,-2.6286,-2.647,-2.6691,-2.6691,-2.6691,0.1233,0.0938,0.0796,0.0158,0.0542,0.0896,0.017,0.0113,0.0057,-0.0686,-0.0853,-0.1075,-0.1807,-0.2442,-0.29,-0.2986,-0.247,-0.2173,-0.2475,-0.3109,-0.3758,-0.4331,-0.4983,-0.544,-0.5549,-0.5538,-0.5488,-0.5435,-0.5428,-0.5428,-0.5428,-0.5428,-0.5428,-0.5428,-0.5428,-0.5411,-0.5308,-0.5308,-0.5325,-0.5425,-0.5841,-0.6509,-0.7245,-0.7882,-0.8465,-0.8955,-0.9055,-0.9011,-0.8857,-0.951,-0.9814,-0.9909,-1.1266,-1.1922,-1.2129,-1.2666,-1.2881,-1.3065,-1.4294,-1.4698,-1.4892,-1.6107,-1.6522,-1.6522,-1.6522,-1.6522,-1.6522,-1.6522,-1.6522,-1.6522,-1.6522,-1.6935,-1.7182,-1.6639,-1.8139,-1.969,-1.969,-1.969,-1.969,-1.969,-1.969,-1.969,-1.969,-1.969,-1.969,-1.969,-1.969,-1.969,-1.969,-1.969,-1.969,-1.969,-1.969,-1.969,-1.969,-1.969,-1.9713,-1.9694,-2.1568,-2.2771,-2.2985,-2.3538,-2.3868,-2.3901,-2.501,-2.5609,-2.5609,-2.6336,-2.6691,-2.6691,-2.6691,-2.6691,0.1111,0.1112,0.0895,0.0204,0.0533,0.0902,0.0175,0.0527,0.0827,0.0061,-0.006,-0.0293,-0.1054,-0.1199,-0.1285,-0.1292,-0.0647,-0.047,-0.1277,0.0,-0.215,-0.3837,-0.4108,-0.4442,-0.5312,-0.5446,-0.5439,-0.5428,-0.5428,-0.5428,-0.5428,-0.5428,-0.5428,-0.5428,-0.5428,-0.5291,-0.5148,-0.5145,-0.522,-0.5425,-0.5267,-0.5631,-0.65,-0.6832,-0.7491,-0.8267,-0.8682,-0.8824,-0.8857,-0.951,-0.9814,-0.9909,-1.1266,-1.2236,-1.2832,-1.2881,-1.2881,-1.3065,-1.4294,-1.4698,-1.4892,-1.6107,-1.6522,-1.6522,-1.6522,-1.6522,-1.6522,-1.6522,-1.6522,-1.6522,-1.6522,-1.6561,-1.6573,-1.6507,-1.8139,-1.969,-1.969,-1.969,-1.969,-1.969,-1.969,-1.969,-1.969,-1.969,-1.969,-1.969,-1.969,-1.969,-1.969,-1.969,-1.969,-1.969,-1.969,-1.969,-1.969,-1.969,-1.9677,-1.9714,-1.9878,-2.0714,-2.2323,-2.2658,-2.3321,-2.4428,-2.5188,-2.5609,-2.5609,-2.6336,-2.6691,-2.6691,-2.6691,-2.6691,0.2341,0.1865,0.1382,0.0708,0.0851,0.0898,0.0171,0.0232,0.0356,0.0061,-0.0367,-0.0902,-0.1648,-0.1866,-0.1783,-0.117,-0.0906,-0.0739,-0.0538,-0.0939,-0.1742,-0.3011,-0.368,-0.435,-0.5296,-0.5428,-0.5428,-0.5428,-0.5428,-0.5318,-0.5223,-0.5216,-0.5176,-0.5087,-0.5087,-0.506,-0.4999,-0.4999,-0.503,-0.5084,-0.4931,-0.5273,-0.6032,-0.6506,-0.7148,-0.7919,-0.8526,-0.8804,-0.8804,-0.9061,-0.9159,-0.9309,-1.0661,-1.1891,-1.2881,-1.2881,-1.2881,-1.3017,-1.3826,-1.4376,-1.4835,-1.5688,-1.6182,-1.6522,-1.6522,-1.6522,-1.6522,-1.6522,-1.6522,-1.6527,-1.649,-1.6501,-1.6823,-1.8159,-1.9103,-1.969,-1.969,-1.969,-1.969,-1.969,-1.969,-1.969,-1.969,-1.969,-1.969,-1.969,-1.969,-1.969,-1.969,-1.969,-1.969,-1.969,-1.969,-1.969,-1.969,-2.0041,-2.01,-1.9703,-2.0717,-2.1349,-2.1472,-2.2113,-2.2682,-2.3122,-2.3849,-2.4239,-2.4239,-2.4966,-2.5321,-2.5321,-2.5321,-2.5321,0.3123,0.2434,0.1836,0.1414,0.1223,0.0953,0.0454,0.035,0.0301,0.0062,-0.0372,-0.0975,-0.171,-0.1792,-0.1581,-0.1168,-0.0955,-0.0656,-0.0066,-0.0527,-0.1245,-0.218,-0.3039,-0.3974,-0.4885,-0.5226,-0.5342,-0.5291,-0.5287,-0.5223,-0.5074,-0.5064,-0.502,-0.4921,-0.4918,-0.4897,-0.4847,-0.4847,-0.4823,-0.4772,-0.4667,-0.4926,-0.5481,-0.6248,-0.6745,-0.7069,-0.8262,-0.8646,-0.848,-0.8699,-0.891,-0.9211,-1.0364,-1.1534,-1.2559,-1.2822,-1.2881,-1.2968,-1.36,-1.419,-1.4789,-1.541,-1.6008,-1.6522,-1.6522,-1.6522,-1.6522,-1.6522,-1.6522,-1.6476,-1.6509,-1.6996,-1.7887,-1.9348,-1.9701,-1.969,-1.969,-1.969,-1.969,-1.969,-1.969,-1.969,-1.969,-1.969,-1.969,-1.969,-1.969,-1.969,-1.969,-1.969,-1.969,-1.969,-1.969,-1.969,-1.969,-2.0246,-2.0519,-2.0266,-2.1519,-2.1951,-2.1175,-2.1886,-2.231,-2.231,-2.3021,-2.3393,-2.3393,-2.415,-2.4506,-2.4506,-2.4506,-2.4506,0.3145,0.268,0.2205,0.2183,0.1647,0.1128,0.1107,0.1083,0.087,0.0128,0.0,-0.0245,-0.0946,-0.0471,-0.0238,-0.098,-0.0493,0.0,0.0,0.0,-0.0312,-0.1219,-0.2119,-0.3045,-0.3934,-0.4818,-0.5294,-0.5138,-0.5128,-0.5067,0.0,-0.4918,-0.4914,-0.4914,-0.4914,-0.4843,-0.4691,-0.4687,-0.4613,-0.4519,-0.4519,-0.4597,-0.4742,-0.6027,-0.6199,-0.5647,-0.7824,-0.8374,-0.7777,-0.848,-0.9211,-0.9865,-1.0517,-1.1216,-1.1873,-1.2618,-1.2881,-1.2968,-1.36,-1.419,-1.4789,-1.541,-1.6008,-1.6522,-1.6522,-1.6522,-1.6522,-1.6522,-1.6522,-1.6481,-1.6492,-1.8092,-1.9695,-1.9689,-1.9701,-1.969,-1.969,-1.969,-1.969,-1.969,-1.969,-1.969,-1.969,-1.969,-1.969,-1.969,-1.969,-1.969,-1.969,-1.969,-1.969,-1.969,-1.969,-1.969,-1.969,-2.0246,-2.0821,-2.136,-2.1962,-2.2009,-2.1424,-2.1962,-2.2291,-2.2282,-2.3021,-2.3376,-2.3393,-2.4133,-2.4489,-2.4489,-2.4489,-2.4489,0.3656,0.3175,0.2697,0.267,0.1892,0.1102,0.1113,0.0723,0.0251,0.0066,0.0,-0.0063,-0.0306,-0.0122,-0.0061,-0.0299,-0.0122,0.0,0.0,0.0,-0.031,-0.1185,-0.1559,-0.225,-0.3718,-0.4099,-0.4466,-0.4924,-0.4982,0.0,0.0,-0.4758,-0.4707,-0.4602,-0.4599,-0.4575,-0.4587,-0.4587,-0.4563,-0.4519,-0.4519,-0.4543,-0.4584,-0.5462,-0.5706,-0.5597,-0.7283,-0.7883,-0.7777,-0.848,-0.9211,-0.9865,-1.0517,-1.1216,-1.1873,-1.2618,-1.3152,-1.3505,-1.3238,-1.4107,-1.5276,-1.5062,-1.5656,-1.6522,-1.6522,-1.6522,-1.6522,-1.6522,-1.6511,-1.6504,-1.652,-1.8071,-1.9689,-1.9723,-1.9713,-1.969,-1.969,-1.969,-1.969,-1.969,-1.969,-1.969,-1.969,-1.969,-1.969,-1.969,-1.969,-1.969,-1.969,-1.969,-1.969,-1.969,-1.969,-1.969,-1.969,-2.0135,-2.0478,-2.0628,-2.1389,-2.188,-2.2028,-2.2195,-2.231,-2.231,-2.2513,-2.2632,-2.2632,-2.2852,-2.2953,-2.2953,-2.2953,-2.2953,0.3999,0.3774,0.351,0.351,0.2747,0.1847,0.1229,0.0543,0.0,0.0,0.0,0.0,0.0,0.0,0.0,0.0,0.0,0.0,0.0,0.0,-0.0179,-0.0725,-0.1088,-0.1699,-0.2701,-0.3136,-0.3668,-0.4348,-0.4405,0.0,0.0,-0.4599,-0.4558,-0.4522,-0.4519,-0.4519,-0.4519,-0.4519,-0.4519,-0.4519,-0.4519,-0.4519,-0.4515,-0.5218,-0.5378,-0.5164,-0.6632,-0.7616,-0.8156,-0.8593,-0.9061,-0.951,-1.0415,-1.1065,-1.1516,-1.251,-1.3152,-1.342,-1.3286,-1.4154,-1.5231,-1.5096,-1.57,-1.6522,-1.6522,-1.6522,-1.6497,-1.6524,-1.6497,-1.6712,-1.7526,-1.8731,-1.9723,-1.9713,-1.969,-1.969,-1.969,-1.969,-1.969,-1.969,-1.969,-1.969,-1.969,-1.969,-1.969,-1.969,-1.969,-1.969,-1.969,-1.969,-1.969,-1.969,-1.969,-1.969,-1.969,-2.007,-2.0382,-2.055,-2.1228,-2.1794,-2.2282,-2.231,-2.231,-2.231,-2.231,-2.231,-2.231,-2.231,-2.231,-2.231,-2.231,-2.231,0.4157,0.4321,0.4498,0.4498,0.3904,0.288,0.1341,0.0481,0.0,0.0,0.0,0.0,0.0,0.0,0.0,0.0,0.0,0.0,0.0,0.0,0.0,0.0,-0.0702,-0.1183,-0.1278,-0.2074,-0.2831,-0.345,0.0,0.0,0.0,-0.4294,-0.4294,-0.4405,-0.4405,-0.4408,-0.4519,-0.4519,-0.4519,-0.4519,-0.4519,-0.4519,-0.4515,-0.5109,-0.5109,-0.468,-0.5991,-0.7396,-0.8699,-0.8752,-0.8857,-0.9008,-1.0312,-1.0864,-1.1074,-1.2412,-1.2978,-1.3104,-1.3647,-1.4283,-1.4926,-1.5454,-1.6008,-1.6522,-1.6522,-1.6522,-1.6502,-1.6488,-1.6628,-1.7249,-1.9181,-1.9692,-1.9693,-1.9713,-1.969,-1.969,-1.969,-1.969,-1.969,-1.969,-1.969,-1.969,-1.969,-1.969,-1.969,-1.969,-1.969,-1.969,-1.969,-1.969,-1.969,-1.969,-1.969,-1.9726,-1.9762,-2.012,-2.0532,-2.1023,-2.1399,-2.1794,-2.2282,-2.231,-2.231,-2.231,-2.231,-2.231,-2.231,-2.231,-2.231,-2.231,-2.231,-2.2293,0.3924,0.4087,0.4241,0.4241,0.335,0.2092,0.0587,0.0118,0.0,0.0,0.0,0.0,0.0,0.0,0.0,0.0,0.0,0.0,0.0,0.0,0.0,0.0,-0.017,-0.0511,-0.1085,-0.1314,-0.1763,0.0,0.0,0.0,-0.2676,-0.2676,-0.2954,-0.3566,-0.3624,-0.3901,-0.4519,-0.4519,-0.4519,0.0,-0.4519,-0.4519,-0.4519,-0.4625,-0.4948,-0.5324,-0.6204,-0.7128,-0.799,-0.854,-0.9106,-0.9666,-1.0466,-1.1116,-1.1665,-1.2559,-1.3478,-1.4247,-1.392,-1.4824,-1.6064,-1.572,-1.6008,-1.6522,-1.6522,-1.6522,-1.6502,-1.6488,-1.772,-1.9112,-1.9584,-1.9708,-1.9713,-1.9705,-1.969,-1.969,-1.969,-1.969,-1.969,-1.969,-1.969,-1.969,-1.969,-1.969,-1.969,-1.969,-1.969,-1.969,-1.969,-1.969,-1.969,-1.969,-1.969,-1.9884,-2.0366,-2.0503,-2.081,-2.143,-2.1552,-2.1794,-2.2282,-2.231,-2.231,-2.231,-2.231,-2.231,-2.231,-2.231,-2.231,-2.231,-2.231,-2.2286,0.3804,0.402,0.4105,0.3845,0.2956,0.189,0.0804,0.023,0.0,0.0,0.0,0.0,0.0,0.0,0.0,0.0,0.0,0.0,0.0,0.0,0.0,0.0,0.0,-0.0168,-0.056,-0.056,-0.0895,0.0,0.0,-0.184,-0.2174,-0.2174,-0.2397,-0.2788,-0.2788,-0.301,-0.34,-0.34,-0.34,-0.34,-0.379,-0.4181,-0.4519,-0.4519,-0.4842,-0.5542,-0.6258,-0.702,-0.7777,-0.848,-0.9211,-0.9865,-1.0517,-1.1216,-1.1913,-1.2977,-1.3742,-1.4329,-1.4595,-1.5276,-1.6051,-1.6051,-1.6238,-1.6522,-1.6522,-1.6519,-1.6494,-1.6514,-1.8052,-1.9701,-1.9701,-1.9722,-1.969,-1.969,-1.969,-1.969,-1.969,-1.969,-1.969,-1.969,-1.969,-1.969,-1.969,-1.969,-1.969,-1.969,-1.969,-1.969,-1.969,-1.969,-1.9702,-1.9708,-1.9693,-1.9821,-2.0135,-2.0569,-2.0926,-2.128,-2.1324,-2.1615,-2.2265,-2.231,-2.231,-2.231,-2.231,-2.231,-2.231,-2.2426,-2.2422,-2.231,-2.2513,-2.247,0.3579,0.3953,0.3983,0.3312,0.2732,0.2174,0.1284,0.0615,0.0168,0.0168,0.0112,0.0,0.0,0.0,0.0,0.0,0.0,0.0,0.0,0.0,0.0,0.0,0.0,0.0,0.0,0.0,-0.028,0.0,0.0,-0.1174,-0.1786,-0.184,-0.1898,-0.2009,-0.2009,-0.2063,-0.2174,-0.2174,-0.2174,-0.223,-0.2899,-0.3566,-0.4294,-0.4294,-0.4673,-0.5378,-0.6258,-0.6966,-0.7557,-0.8427,-0.9263,-1.0012,-1.0568,-1.1266,-1.212,-1.3246,-1.3779,-1.4097,-1.5096,-1.5588,-1.582,-1.6337,-1.6522,-1.6509,-1.6502,-1.6507,-1.6591,-1.693,-1.8331,-1.9685,-1.9713,-1.969,-1.969,-1.969,-1.969,-1.969,-1.969,-1.969,-1.969,-1.969,-1.969,-1.969,-1.969,-1.969,-1.969,-1.969,-1.969,-1.9696,-1.9687,-1.9707,-1.9708,-1.9694,-1.9953,-2.0153,-2.0162,-2.0799,-2.1212,-2.1239,-2.1223,-2.1562,-2.2265,-2.231,-2.231,-2.231,-2.231,-2.231,-2.231,-2.2607,-2.2565,-2.2306,-2.2751,-2.2735,0.2748,0.346,0.3754,0.2636,0.2732,0.2788,0.1396,0.1006,0.095,0.095,0.0448,0.0,0.0,0.0,0.0,0.0,0.0,0.0,0.0,0.0,0.0,0.0,0.0,0.0,0.0,0.0,0.0,0.0,-0.0168,-0.0168,-0.028,-0.028,-0.056,-0.1229,-0.1229,-0.1563,-0.2174,-0.2174,-0.2174,-0.2174,-0.2286,-0.2732,-0.3456,-0.3456,-0.3901,-0.4736,-0.6041,-0.6642,-0.6858,-0.8209,-0.951,-1.0661,-1.0771,-1.1584,-1.2764,-1.2968,-1.3705,-1.4606,-1.4744,-1.5511,-1.638,-1.6466,-1.6522,-1.6514,-1.6497,-1.6491,-1.69,-1.874,-1.9467,-1.9685,-1.9713,-1.969,-1.969,-1.969,-1.969,-1.969,-1.969,-1.969,-1.969,-1.969,-1.969,-1.969,-1.969,-1.969,-1.969,-1.969,-1.969,-1.9692,-1.9695,-1.9684,-1.9713,-1.9684,-2.1054,-2.1939,-2.1941,-2.2068,-2.2152,-2.2147,-2.213,-2.2175,-2.231,-2.231,-2.231,-2.231,-2.231,-2.231,-2.231,-2.2676,-2.2678,-2.2306,-2.2898,-2.2851,0.2119,0.2666,0.2762,0.1811,0.212,0.2397,0.134,0.1118,0.1118,0.1118,0.0504,0.0,0.0,0.0,0.0,0.0,0.0,0.0,0.0,0.0,0.0,0.0,0.0,0.0,0.0,0.0,0.0,0.0,0.0,0.0,0.0,0.0,-0.0168,-0.0448,-0.0504,-0.0615,-0.095,-0.095,-0.1174,-0.1563,-0.1563,-0.1953,-0.2674,-0.3176,-0.379,-0.457,-0.5991,-0.6588,-0.6696,-0.8209,-0.9614,-1.0813,-1.0813,-1.1642,-1.2968,-1.3658,-1.4247,-1.4789,-1.5466,-1.6064,-1.6522,-1.6522,-1.6506,-1.6494,-1.6491,-1.7317,-1.8478,-1.9429,-1.9716,-1.9693,-1.972,-1.969,-1.969,-1.969,-1.969,-1.969,-1.969,-1.969,-1.969,-1.969,-1.969,-1.969,-1.969,-1.969,-1.969,-1.969,-1.969,-1.9702,-1.9688,-2.0142,-2.0612,-2.1119,-2.1827,-2.2291,-2.23,-2.2308,-2.2286,-2.2299,-2.231,-2.2456,-2.2787,-2.2483,-2.2422,-2.2623,-2.2398,-2.2398,-2.264,-2.259,-2.2647,-2.2835,-2.3458,-2.3614,0.1581,0.1916,0.1963,0.1268,0.1633,0.1983,0.1268,0.1111,0.1118,0.1118,0.0504,0.0,0.0,0.0,0.0,0.0,0.0,0.0,0.0,0.0,0.0,0.0,0.0,0.0056,0.028,0.0112,0.0,0.0,0.0112,0.0,0.0,0.0,0.0,0.0,0.0,0.0,0.0,0.0,-0.028,-0.0838,-0.0831,-0.1214,-0.1928,-0.2728,-0.3423,-0.4244,-0.5892,-0.6588,-0.675,-0.8362,-0.9666,-1.0681,-1.0831,-1.1576,-1.2691,-1.3882,-1.4383,-1.4722,-1.5872,-1.638,-1.6522,-1.6522,-1.6511,-1.6542,-1.6834,-1.8198,-1.9689,-1.9723,-1.9707,-1.963,-1.9289,-1.9179,-1.92,-1.9211,-1.9461,-1.9707,-1.9711,-1.969,-1.969,-1.969,-1.969,-1.969,-1.969,-1.969,-1.9711,-1.9839,-1.9782,-1.9737,-1.9932,-2.0505,-2.1167,-2.1903,-2.2159,-2.2308,-2.2288,-2.231,-2.231,-2.231,-2.231,-2.25,-2.2954,-2.2863,-2.2856,-2.2955,-2.2666,-2.2631,-2.2868,-2.2797,-2.2937,-2.3214,-2.3888,-2.419,0.1078,0.1471,0.1683,0.1224,0.1669,0.2018,0.1276,0.1092,0.1118,0.1118,0.0504,0.0,0.0,0.0,0.0,0.0,0.0,0.0,0.0,0.0,0.0,0.0,0.0,0.028,0.095,0.0392,0.0,0.0,0.0392,0.0,0.0,0.0,0.0,0.0,0.0,0.0,0.0,0.0,0.0,-0.0056,-0.0054,-0.0426,-0.1169,-0.1798,-0.2478,-0.3296,-0.5606,-0.6588,-0.6745,-0.8862,-0.993,-1.027,-1.0932,-1.137,-1.1802,-1.2827,-1.3608,-1.4268,-1.5289,-1.6008,-1.6522,-1.6522,-1.6509,-1.6689,-1.7697,-1.8807,-1.9696,-1.9682,-1.9723,-1.9415,-1.812,-1.7802,-1.7797,-1.7814,-1.88,-1.9706,-1.9702,-1.969,-1.969,-1.969,-1.969,-1.969,-1.969,-1.969,-1.9854,-2.0212,-1.9929,-1.9897,-2.0492,-2.0607,-2.0749,-2.1036,-2.1821,-2.2316,-2.2282,-2.231,-2.231,-2.231,-2.231,-2.231,-2.2355,-2.3475,-2.3789,-2.3197,-2.3158,-2.301,-2.2695,-2.3647,-2.3786,-2.3214,-2.3888,-2.419,-0.0076,0.0079,0.0082,-0.0313,0.0285,0.0987,0.0691,0.0881,0.1081,0.1081,0.0496,0.0,0.0,0.0,0.0,0.0,0.0,0.0,0.0,0.0392,0.0727,0.0727,0.1118,0.1507,0.1786,0.1563,0.0,0.0,0.0,0.0895,0.1396,0.095,0.0886,0.1246,0.1299,0.1232,0.1152,0.0786,0.0577,0.0577,0.0207,-0.0154,-0.041,-0.1518,-0.2163,-0.2515,-0.5128,-0.6218,-0.6364,-0.8295,-0.9398,-0.993,-1.0584,-1.1146,-1.1747,-1.2786,-1.3319,-1.3766,-1.5558,-1.6331,-1.6426,-1.5951,-1.61,-1.6557,-1.6969,-1.714,-1.7206,-1.7204,-1.7785,-1.831,-1.7837,-1.7096,-1.6469,-1.6467,-1.8145,-1.9699,-1.9702,-1.9713,-1.969,-1.969,-1.969,-1.969,-1.969,-1.969,-1.9747,-1.9909,-2.0,-2.0165,-2.0396,-2.067,-2.1005,-2.1332,-2.1661,-2.1957,-2.2265,-2.231,-2.231,-2.231,-2.2463,-2.2652,-2.2857,-2.332,-2.3543,-2.3512,-2.3512,-2.3566,-2.3659,-2.4018,-2.4071,-2.385,-2.4096,-2.419,-0.0912,-0.0904,-0.0972,-0.1304,-0.0796,-0.0138,-0.0047,0.0247,0.0462,0.0416,0.0053,-0.0379,-0.0541,-0.0433,-0.0218,-0.0056,0.0,0.0111,0.0335,0.0783,0.1174,0.1452,0.1898,0.2286,0.2565,0.2343,0.0,0.0,0.0,0.0,0.2086,0.163,0.1496,0.1932,0.1931,0.1909,0.1811,0.1409,0.1109,0.0908,0.0499,0.0198,-0.0049,-0.1364,-0.1935,-0.2078,-0.4502,-0.5734,-0.6121,-0.7977,-0.899,-0.9444,-1.0136,-1.0742,-1.1283,-1.2229,-1.2689,-1.3168,-1.5247,-1.6022,-1.6061,-1.5582,-1.5658,-1.6032,-1.6407,-1.6222,-1.5909,-1.5825,-1.6608,-1.7483,-1.7399,-1.6581,-1.5845,-1.6048,-1.7282,-1.854,-1.9147,-1.9491,-1.9439,-1.8561,-1.9093,-1.96,-1.9295,-1.951,-1.9782,-2.0085,-2.0227,-2.0483,-2.091,-2.1118,-2.1368,-2.1794,-2.1823,-2.1974,-2.2265,-2.2388,-2.2409,-2.2409,-2.2704,-2.2972,-2.3189,-2.3323,-2.3459,-2.3692,-2.3816,-2.3987,-2.419,-2.4205,-2.419,-2.419,-2.419,-2.419,0.0,0.0,0.0,-0.1579,-0.1495,-0.124,-0.1021,-0.0852,-0.0768,-0.0897,-0.0955,-0.1107,-0.1709,-0.1358,-0.0773,-0.0166,0.0,0.0269,0.1,0.1116,0.1395,0.2174,0.2232,0.2565,0.3287,0.0,0.0,0.0,0.2539,0.2015,0.207,0.1947,0.1857,0.1857,0.1855,0.1854,0.1854,0.1854,0.1505,0.0904,0.0919,0.0571,-0.0048,-0.1229,-0.1786,-0.1917,-0.3836,-0.5169,-0.6095,-0.8037,-0.8769,-0.8735,-0.9724,-1.0177,-1.0421,-1.1082,-1.1681,-1.2461,-1.4221,-1.5069,-1.5338,-1.5338,-1.512,-1.5031,-1.6099,-1.6235,-1.602,-1.5844,-1.6401,-1.7013,-1.6724,-1.6248,-1.5963,-1.6532,-1.6229,-1.6301,-1.7966,-1.9,-1.8895,-1.6416,-1.7925,-1.9385,-1.8584,-1.9146,-2.0015,-2.0862,-2.0616,-2.0813,-2.2106,-2.1899,-2.1794,-2.2237,-2.231,-2.231,-2.231,-2.2563,-2.2695,-2.2721,-2.3021,-2.3212,-2.3212,-2.3544,-2.3714,-2.3714,-2.4036,-2.419,-2.4209,-2.419,-2.419,-2.419,-2.419,-2.419,-0.183,0.0,0.0,0.0,0.0,0.0,-0.2146,-0.1656,-0.1276,-0.187,-0.1975,-0.2082,-0.2391,-0.2301,-0.2003,-0.1389,-0.0566,0.0259,0.1018,0.156,0.217,0.3,0.3566,0.3959,0.4125,0.0,0.0,0.0,0.3177,0.2909,0.3419,0.3297,0.3226,0.3226,0.3143,0.3098,0.3098,0.2677,0.2169,0.1524,0.1098,0.0593,-0.0046,-0.1258,-0.1786,-0.1917,-0.3836,-0.4819,-0.5187,-0.6864,-0.7503,-0.7672,-0.9529,-1.0556,-1.1067,-1.1496,-1.1904,-1.2352,-1.3323,-1.3709,-1.3818,-1.3818,-1.3758,-1.373,-1.4023,-1.4499,-1.5068,-1.5655,-1.5979,-1.6129,-1.6069,-1.5933,-1.5844,-1.5994,-1.6263,-1.6469,-1.6511,-1.719,-1.7967,-1.8499,-1.8693,-1.8887,-1.9265,-1.9793,-2.0227,-2.0449,-2.0943,-2.1352,-2.1764,-2.1974,-2.2152,-2.2282,-2.231,-2.2388,-2.2573,-2.266,-2.2797,-2.3045,-2.3369,-2.3566,-2.3566,-2.3896,-2.4074,-2.4074,-2.4151,-2.4266,-2.4428,-2.4266,-2.419,-2.419,-2.419,-2.419,-0.2382,-0.2408,-0.2603,-0.3341,0.0,0.0,-0.2947,-0.2566,-0.227,-0.2744,-0.2868,-0.2985,-0.3331,-0.3193,-0.2876,-0.2408,-0.154,-0.0431,0.0923,0.171,0.2507,0.352,0.4273,0.4594,0.0,0.4406,0.4408,0.4151,0.3804,0.3791,0.416,0.4111,0.3971,0.3704,0.3622,0.3581,0.3581,0.3262,0.2765,0.2184,0.1563,0.0939,0.0314,-0.1117,-0.1695,-0.1649,-0.3477,-0.4254,-0.4375,-0.6239,-0.7004,-0.7125,-0.8405,-0.9714,-1.0998,-1.2008,-1.2495,-1.2686,-1.306,-1.3198,-1.3198,-1.3198,-1.3198,-1.3348,-1.408,-1.4387,-1.4683,-1.556,-1.5802,-1.5799,-1.5799,-1.5898,-1.5983,-1.5827,-1.6171,-1.6382,-1.5891,-1.6202,-1.6873,-1.7867,-1.825,-1.8563,-1.9061,-1.979,-2.04,-2.0797,-2.1259,-2.1658,-2.1869,-2.2135,-2.2349,-2.2463,-2.2463,-2.259,-2.2873,-2.3045,-2.3189,-2.3392,-2.3714,-2.3917,-2.3917,-2.4094,-2.419,-2.419,-2.4284,-2.4409,-2.4623,-2.4409,-2.4338,-2.4369,-2.4369,-2.4296,-0.2937,-0.2846,-0.2951,-0.3605,-0.3587,0.0,-0.352,-0.3468,-0.3484,-0.3651,-0.3683,-0.3843,-0.4409,-0.4063,-0.3571,-0.3242,-0.2686,-0.1512,0.0684,0.1495,0.2401,0.3764,0.4412,0.461,0.4069,0.4496,0.4583,0.4094,0.4467,0.4571,0.4312,0.4303,0.4092,0.3622,0.3581,0.3581,0.3581,0.3581,0.3306,0.2672,0.214,0.156,0.0889,-0.0842,-0.1458,-0.1361,-0.2913,-0.3595,-0.3759,-0.6044,-0.7139,-0.7363,-0.7382,-0.8587,-1.0525,-1.2235,-1.3011,-1.3212,-1.3191,-1.3198,-1.3198,-1.3198,-1.3198,-1.3493,-1.5031,-1.5115,-1.4802,-1.5576,-1.5846,-1.5856,-1.5856,-1.6108,-1.6274,-1.5983,-1.6123,-1.6219,-1.5955,-1.5856,-1.5815,-1.5905,-1.7181,-1.826,-1.8346,-1.9434,-2.0523,-2.1376,-2.1592,-2.1823,-2.2254,-2.2338,-2.2453,-2.2669,-2.2746,-2.2898,-2.323,-2.3522,-2.3714,-2.3735,-2.4054,-2.419,-2.419,-2.419,-2.419,-2.419,-2.4428,-2.4623,-2.4814,-2.4623,-2.4567,-2.4601,-2.462,-2.4492,-0.3075,-0.3147,-0.3331,-0.3578,-0.3757,0.0,-0.3903,-0.4044,-0.4287,-0.4722,-0.4798,-0.4865,-0.507,-0.5028,-0.4661,-0.3819,-0.3151,-0.2019,0.0094,0.0908,0.1789,0.3103,0.3817,0.4118,0.4019,0.4004,0.4164,0.4542,0.4509,0.4256,0.3796,0.3751,0.3711,0.3626,0.3581,0.3581,0.3581,0.3581,0.3306,0.2719,0.2583,0.2059,0.1104,0.0085,-0.083,-0.1771,-0.3036,-0.3585,-0.3769,-0.6082,-0.8043,-0.9659,-0.9658,-0.9925,-1.0361,-1.073,-1.1841,-1.3212,-1.3191,-1.3198,-1.3198,-1.3198,-1.3198,-1.3245,-1.3587,-1.4585,-1.5578,-1.5743,-1.6044,-1.6265,-1.6234,-1.6448,-1.6686,-1.6607,-1.6448,-1.6355,-1.6554,-1.6163,-1.597,-1.6499,-1.686,-1.73,-1.8084,-1.9248,-2.0204,-2.0652,-2.1545,-2.2209,-2.2282,-2.2473,-2.2634,-2.2695,-2.2947,-2.3236,-2.3566,-2.3671,-2.3816,-2.4094,-2.417,-2.419,-2.419,-2.419,-2.419,-2.419,-2.4561,-2.4814,-2.4962,-2.4814,-2.4685,-2.4601,-2.4714,-2.4766,-0.3236,-0.3236,-0.3418,-0.4064,-0.4187,0.0,0.0,-0.4861,-0.4964,-0.5336,-0.5295,-0.5211,-0.528,-0.5097,-0.4708,-0.3929,-0.3501,-0.271,-0.1192,-0.0044,0.1085,0.2309,0.2978,0.0,0.3752,0.3721,0.4029,0.4938,0.4886,0.4739,0.4447,0.418,0.388,0.3626,0.3581,0.3581,0.3581,0.3503,0.3334,0.3156,0.2623,0.2406,0.2359,0.0728,-0.0318,-0.1011,-0.2829,-0.4238,-0.5464,-0.7702,-0.9313,-1.0283,-1.0303,-1.0321,-1.0357,-1.0867,-1.1957,-1.3215,-1.3216,-1.3198,-1.3198,-1.3198,-1.3191,-1.3213,-1.3211,-1.441,-1.5816,-1.5801,-1.6083,-1.6344,-1.6301,-1.667,-1.7002,-1.6841,-1.6815,-1.6799,-1.6815,-1.6528,-1.6394,-1.6738,-1.6768,-1.7083,-1.8111,-1.9377,-2.0397,-2.0783,-2.1692,-2.2349,-2.2473,-2.2625,-2.2822,-2.3165,-2.3346,-2.3588,-2.3917,-2.3937,-2.4016,-2.419,-2.419,-2.419,-2.419,-2.419,-2.4284,-2.4495,-2.4752,-2.4981,-2.5152,-2.5072,-2.5018,-2.496,-2.5018,-2.5075,-0.3383,-0.3341,-0.3576,-0.4449,-0.46,-0.4653,0.0,0.0,0.0,-0.5591,-0.5444,-0.5277,-0.5182,0.0,0.0,-0.3758,0.0,0.0,0.0,-0.1014,0.0,0.1508,0.2165,0.0,0.3317,0.3442,0.3948,0.4976,0.5161,0.5193,0.5066,0.4595,0.4101,0.3622,0.3581,0.3565,0.3534,0.3412,0.342,0.3474,0.2552,0.2501,0.319,0.1233,0.0038,-0.0638,-0.294,-0.4983,-0.6804,-0.8606,-0.9732,-1.0281,-1.0311,-1.0409,-1.0679,-1.1237,-1.2207,-1.3204,-1.3188,-1.3216,-1.3198,-1.3198,-1.3276,-1.3409,-1.3618,-1.459,-1.5653,-1.5856,-1.6166,-1.6452,-1.6474,-1.6935,-1.732,-1.7068,-1.715,-1.7248,-1.7043,-1.6892,-1.6841,-1.6968,-1.6942,-1.7171,-1.8045,-1.9256,-2.0251,-2.0746,-2.1606,-2.2258,-2.2538,-2.276,-2.3093,-2.3649,-2.3774,-2.3917,-2.417,-2.419,-2.419,-2.419,-2.419,-2.419,-2.419,-2.4247,-2.4444,-2.4828,-2.4937,-2.5099,-2.5303,-2.5303,-2.5303,-2.5303,-2.5303,-2.5303,-0.3558,-0.3923,-0.4215,0.0,-0.4719,-0.5406,0.0,0.0,-0.5598,-0.5371,0.0,-0.5182,-0.4762,0.0,0.0,0.0,0.0,0.0,-0.2527,-0.1694,-0.0606,0.082,0.1542,0.0,0.0,0.3152,0.3671,0.4123,0.4641,0.4702,0.4172,0.407,0.3895,0.3619,0.3581,0.3514,0.3336,0.3489,0.3408,0.3147,0.2426,0.2064,0.1983,0.1717,0.0141,-0.2478,-0.4322,-0.5254,-0.5517,-0.576,-0.7632,-1.0305,-1.0286,-1.0846,-1.1524,-1.062,-1.1536,-1.32,-1.3203,-1.3195,-1.3198,-1.3198,-1.3573,-1.4197,-1.5213,-1.5281,-1.5182,-1.6095,-1.6664,-1.7036,-1.7158,-1.7455,-1.7726,-1.7698,-1.7502,-1.7368,-1.7635,-1.7216,-1.6968,-1.7566,-1.7455,-1.7264,-1.7395,-1.8087,-1.8843,-1.9436,-2.0759,-2.1774,-2.2042,-2.2963,-2.3628,-2.3692,-2.3976,-2.417,-2.4208,-2.419,-2.419,-2.419,-2.419,-2.419,-2.419,-2.443,-2.4692,-2.4974,-2.4998,-2.5099,-2.5303,-2.5303,-2.5303,-2.5303,-2.5303,-2.5303,-0.4076,0.0,0.0,0.0,0.0,0.0,-0.5277,0.0,-0.5478,0.0,0.0,0.0,0.0,0.0,0.0,0.0,-0.2959,0.0,0.0,0.0,-0.0864,0.0,0.0,0.0,0.0,0.0,0.0,0.0,0.4374,0.4521,0.4368,0.4043,0.3726,0.331,0.3314,0.3283,0.3179,0.3176,0.3142,0.3035,0.2291,0.1237,0.0035,0.0518,-0.0507,-0.278,-0.4526,-0.5313,-0.5376,-0.6297,-0.7509,-0.8779,-0.8774,-0.9601,-1.0791,-1.0598,-1.1062,-1.191,-1.2537,-1.296,-1.327,-1.3802,-1.4484,-1.5179,-1.5654,-1.5786,-1.5853,-1.6277,-1.6801,-1.7216,-1.7199,-1.7476,-1.7811,-1.7811,-1.7681,-1.7635,-1.7766,-1.7589,-1.7455,-1.7743,-1.78,-1.781,-1.781,-1.8299,-1.8829,-1.9228,-2.0616,-2.1779,-2.2228,-2.3213,-2.3905,-2.3978,-2.4229,-2.4339,-2.4209,-2.419,-2.419,-2.419,-2.419,-2.4302,-2.4541,-2.4652,-2.4804,-2.4998,-2.5111,-2.5214,-2.5303,-2.5303,-2.5303,-2.5303,-2.5303,-2.5303,-0.4692,0.0,0.0,0.0,0.0,0.0,0.0,0.0,0.0,0.0,0.0,0.0,0.0,0.0,-0.3831,-0.3189,0.0,-0.2253,0.0,-0.1332,0.0,0.0,0.0,0.0,0.0,0.0,0.0,0.0,0.0,0.422,0.4308,0.4071,0.3649,0.312,0.312,0.3142,0.3063,0.2997,0.2854,0.2669,0.1914,0.0668,-0.0936,-0.0635,-0.1293,-0.2795,-0.4557,-0.5311,-0.5432,-0.7049,-0.7689,-0.7691,-0.7715,-0.8671,-1.0091,-1.0444,-1.0765,-1.1118,-1.1728,-1.2475,-1.3308,-1.4332,-1.5096,-1.5623,-1.5757,-1.5998,-1.625,-1.6367,-1.6725,-1.7093,-1.7245,-1.7545,-1.7811,-1.7811,-1.7811,-1.7811,-1.7811,-1.7811,-1.7811,-1.7811,-1.8014,-1.8187,-1.8187,-1.853,-1.8982,-1.9475,-2.0675,-2.1808,-2.2542,-2.347,-2.408,-2.419,-2.4339,-2.4357,-2.4209,-2.419,-2.4209,-2.4192,-2.4377,-2.4595,-2.4801,-2.4879,-2.4987,-2.5088,-2.5224,-2.5303,-2.5303,-2.5303,-2.5303,-2.5303,-2.5303,-2.5303,0.0,0.0,0.0,-0.5435,0.0,0.0,0.0,0.0,-0.5705,0.0,0.0,0.0,0.0,-0.4371,-0.3839,-0.2713,-0.2362,0.0,0.0,0.0,0.0,0.0,0.0,0.0,0.0,0.0,0.0,0.0,0.0,0.0,0.3624,0.3969,0.384,0.3117,0.324,0.321,0.2992,0.3061,0.266,0.1816,0.1204,0.0601,-0.0067,-0.1238,-0.2095,-0.2795,-0.4557,-0.5284,-0.5408,-0.7024,-0.7694,-0.7711,-0.7713,-0.8607,-0.9927,-0.9995,-1.0677,-1.1512,-1.0944,-1.1728,-1.3249,-1.4633,-1.5104,-1.5209,-1.5668,-1.5799,-1.5896,-1.6297,-1.6406,-1.6642,-1.7539,-1.7789,-1.7811,-1.7811,-1.7811,-1.7811,-1.7811,-1.7811,-1.7811,-1.7811,-1.8014,-1.8187,-1.8187,-1.8428,-1.8962,-2.0011,-2.0878,-2.1787,-2.285,-2.3694,-2.419,-2.419,-2.4227,-2.4209,-2.419,-2.419,-2.4192,-2.4184,-2.4883,-2.5114,-2.4822,-2.5113,-2.5291,-2.5293,-2.5303,-2.5303,-2.5303,-2.5303,-2.5303,-2.5303,-2.5303,-2.5303,0.0,0.0,-0.6181,-0.6186,0.0,0.0,0.0,0.0,0.0,0.0,0.0,0.0,0.0,-0.4317,-0.3822,-0.3029,-0.262,-0.2122,0.0,0.0,0.0,0.0,0.0,-0.0472,0.0,0.0,0.0,0.0,0.2221,0.0,0.0,0.3669,0.3675,0.2874,0.2877,0.2853,0.2805,0.2419,0.2084,0.1778,0.1106,0.0335,-0.0501,-0.18,-0.2692,-0.3302,-0.4698,-0.5311,-0.5431,-0.7041,-0.7715,-0.7786,-0.876,-0.9467,-0.9895,-0.9931,-1.016,-1.0523,-1.0893,-1.1938,-1.3221,-1.3699,-1.4325,-1.4957,-1.5342,-1.5476,-1.567,-1.6586,-1.6451,-1.6285,-1.7473,-1.7811,-1.7811,-1.7811,-1.7811,-1.7811,-1.7811,-1.7811,-1.7811,-1.7811,-1.8146,-1.8469,-1.8469,-1.8807,-1.914,-1.9379,-2.0084,-2.0789,-2.1274,-2.2161,-2.271,-2.2611,-2.2695,-2.2724,-2.2747,-2.3116,-2.3596,-2.4159,-2.3604,-2.3813,-2.5075,-2.5068,-2.5118,-2.5303,-2.5303,-2.5303,-2.5303,-2.5303,-2.5303,-2.5303,-2.5303,-2.5303,-0.6264,-0.6349,0.0,-0.6299,-0.633,0.0,-0.5805,0.0,-0.5895,0.0,0.0,0.0,0.0,-0.44,-0.3799,-0.3062,-0.2627,-0.21,0.0,-0.0594,0.0,0.0,0.0,-0.0908,-0.1094,-0.0845,-0.0441,0.0088,0.1013,0.0,0.0,0.0,0.3587,0.273,0.239,0.2217,0.2217,0.1709,0.1373,0.1141,0.067,0.0033,-0.0801,-0.2098,-0.3126,-0.3849,-0.4549,-0.5346,-0.6249,-0.7277,-0.8003,-0.8561,-0.9527,-0.9911,-0.9901,-0.9893,-0.9906,-1.002,-1.0911,-1.177,-1.2604,-1.3211,-1.3871,-1.4491,-1.4709,-1.4771,-1.4924,-1.5724,-1.6032,-1.6406,-1.7505,-1.7799,-1.7805,-1.7805,-1.7811,-1.7811,-1.7811,-1.7861,-1.7949,-1.7949,-1.8371,-1.8752,-1.8752,-1.9115,-1.9445,-1.9515,-1.9972,-2.0478,-2.0906,-2.153,-2.1895,-2.182,-2.1881,-2.194,-2.2009,-2.2262,-2.2846,-2.3827,-2.2962,-2.3284,-2.5214,-2.5118,-2.5124,-2.5303,-2.5303,-2.5303,-2.5303,-2.5303,-2.5322,-2.537,-2.537,-2.539]}]]